<?xml version="1.0" encoding="UTF-8" standalone="no" ?>
<gpx xmlns="http://www.topografix.com/GPX/1/1" xmlns:xsi="http://www.w3.org/2001/XMLSchema-instance" xsi:schemaLocation="http://www.topografix.com/GPX/1/1 http://www.topografix.com/GPX/1/1/gpx.xsd" version="1.1" creator="VisuGPX - https://www.visugpx.com">
  <metadata>
    <name>Randonnée OVS Lizine</name>
    <desc><![CDATA[Agréable et facile promenade entre Loue et Lison. Marche principalement en forêt, avec quelques traversées de routes. Balisage très moyen.
Le détour (par la route jusqu\\\'au pont permet de voir le Lison se jeter dans la Loue.]]></desc>
  </metadata>
  <trk>
    <name><![CDATA[Rando  OVS Lizine]]></name>
    <trkseg>
      <trkpt lat="47.05472" lon="5.99488">
        <ele>401</ele>
        <time>2014-11-20T12:44:41.000Z</time>
      </trkpt>
      <trkpt lat="47.0547" lon="5.99495">
        <ele>401</ele>
        <time>2014-11-20T12:44:44.000Z</time>
      </trkpt>
      <trkpt lat="47.05463" lon="5.99515">
        <ele>401</ele>
        <time>2014-11-20T12:44:56.000Z</time>
      </trkpt>
      <trkpt lat="47.05457" lon="5.9953">
        <ele>401.20001220703</ele>
        <time>2014-11-20T12:45:06.000Z</time>
      </trkpt>
      <trkpt lat="47.05459" lon="5.99536">
        <ele>401.20001220703</ele>
        <time>2014-11-20T12:45:14.000Z</time>
      </trkpt>
      <trkpt lat="47.0545" lon="5.99545">
        <ele>401.79998779297</ele>
        <time>2014-11-20T12:45:24.000Z</time>
      </trkpt>
      <trkpt lat="47.05445" lon="5.99548">
        <ele>401.79998779297</ele>
        <time>2014-11-20T12:45:29.000Z</time>
      </trkpt>
      <trkpt lat="47.05436" lon="5.99545">
        <ele>402</ele>
        <time>2014-11-20T12:45:36.000Z</time>
      </trkpt>
      <trkpt lat="47.05434" lon="5.99544">
        <ele>402</ele>
        <time>2014-11-20T12:45:39.000Z</time>
      </trkpt>
      <trkpt lat="47.05427" lon="5.99535">
        <ele>402</ele>
        <time>2014-11-20T12:45:47.000Z</time>
      </trkpt>
      <trkpt lat="47.05425" lon="5.99534">
        <ele>402</ele>
        <time>2014-11-20T12:45:49.000Z</time>
      </trkpt>
      <trkpt lat="47.05422" lon="5.99532">
        <ele>402</ele>
        <time>2014-11-20T12:45:57.000Z</time>
      </trkpt>
      <trkpt lat="47.0542" lon="5.99535">
        <ele>402.20001220703</ele>
        <time>2014-11-20T12:46:02.000Z</time>
      </trkpt>
      <trkpt lat="47.05416" lon="5.9954">
        <ele>402.39999389648</ele>
        <time>2014-11-20T12:46:07.000Z</time>
      </trkpt>
      <trkpt lat="47.05411" lon="5.99549">
        <ele>402.79998779297</ele>
        <time>2014-11-20T12:46:14.000Z</time>
      </trkpt>
      <trkpt lat="47.05407" lon="5.99558">
        <ele>403</ele>
        <time>2014-11-20T12:46:20.000Z</time>
      </trkpt>
      <trkpt lat="47.05405" lon="5.99563">
        <ele>403.20001220703</ele>
        <time>2014-11-20T12:46:25.000Z</time>
      </trkpt>
      <trkpt lat="47.05404" lon="5.99565">
        <ele>403.20001220703</ele>
        <time>2014-11-20T12:46:27.000Z</time>
      </trkpt>
      <trkpt lat="47.05402" lon="5.99569">
        <ele>403.39999389648</ele>
        <time>2014-11-20T12:46:32.000Z</time>
      </trkpt>
      <trkpt lat="47.054" lon="5.99571">
        <ele>403.39999389648</ele>
        <time>2014-11-20T12:46:35.000Z</time>
      </trkpt>
      <trkpt lat="47.05395" lon="5.99578">
        <ele>403.60000610352</ele>
        <time>2014-11-20T12:46:42.000Z</time>
      </trkpt>
      <trkpt lat="47.05395" lon="5.99579">
        <ele>403.60000610352</ele>
        <time>2014-11-20T12:46:43.000Z</time>
      </trkpt>
      <trkpt lat="47.05392" lon="5.99583">
        <ele>403.79998779297</ele>
        <time>2014-11-20T12:46:50.000Z</time>
      </trkpt>
      <trkpt lat="47.0539" lon="5.99586">
        <ele>403.79998779297</ele>
        <time>2014-11-20T12:46:56.000Z</time>
      </trkpt>
      <trkpt lat="47.05393" lon="5.99589">
        <ele>404</ele>
        <time>2014-11-20T12:47:57.000Z</time>
      </trkpt>
      <trkpt lat="47.05396" lon="5.99588">
        <ele>403.79998779297</ele>
        <time>2014-11-20T12:48:04.000Z</time>
      </trkpt>
      <trkpt lat="47.054" lon="5.99582">
        <ele>403.60000610352</ele>
        <time>2014-11-20T12:48:12.000Z</time>
      </trkpt>
      <trkpt lat="47.05405" lon="5.99576">
        <ele>403.39999389648</ele>
        <time>2014-11-20T12:48:20.000Z</time>
      </trkpt>
      <trkpt lat="47.05405" lon="5.99575">
        <ele>403.39999389648</ele>
        <time>2014-11-20T12:48:21.000Z</time>
      </trkpt>
      <trkpt lat="47.05412" lon="5.99563">
        <ele>403</ele>
        <time>2014-11-20T12:48:33.000Z</time>
      </trkpt>
      <trkpt lat="47.05414" lon="5.99559">
        <ele>403</ele>
        <time>2014-11-20T12:48:37.000Z</time>
      </trkpt>
      <trkpt lat="47.05418" lon="5.99551">
        <ele>402.60000610352</ele>
        <time>2014-11-20T12:48:45.000Z</time>
      </trkpt>
      <trkpt lat="47.05419" lon="5.9955">
        <ele>402.60000610352</ele>
        <time>2014-11-20T12:48:46.000Z</time>
      </trkpt>
      <trkpt lat="47.05424" lon="5.99541">
        <ele>402.20001220703</ele>
        <time>2014-11-20T12:48:54.000Z</time>
      </trkpt>
      <trkpt lat="47.05427" lon="5.99537">
        <ele>402</ele>
        <time>2014-11-20T12:49:00.000Z</time>
      </trkpt>
      <trkpt lat="47.0543" lon="5.99538">
        <ele>402</ele>
        <time>2014-11-20T12:49:03.000Z</time>
      </trkpt>
      <trkpt lat="47.05433" lon="5.99541">
        <ele>402</ele>
        <time>2014-11-20T12:49:10.000Z</time>
      </trkpt>
      <trkpt lat="47.05437" lon="5.99545">
        <ele>402</ele>
        <time>2014-11-20T12:49:16.000Z</time>
      </trkpt>
      <trkpt lat="47.05443" lon="5.99553">
        <ele>402</ele>
        <time>2014-11-20T12:49:25.000Z</time>
      </trkpt>
      <trkpt lat="47.05444" lon="5.99556">
        <ele>402.20001220703</ele>
        <time>2014-11-20T12:49:27.000Z</time>
      </trkpt>
      <trkpt lat="47.05439" lon="5.99564">
        <ele>402.39999389648</ele>
        <time>2014-11-20T12:49:35.000Z</time>
      </trkpt>
      <trkpt lat="47.05435" lon="5.9957">
        <ele>402.79998779297</ele>
        <time>2014-11-20T12:49:41.000Z</time>
      </trkpt>
      <trkpt lat="47.0543" lon="5.99576">
        <ele>403.20001220703</ele>
        <time>2014-11-20T12:49:47.000Z</time>
      </trkpt>
      <trkpt lat="47.05429" lon="5.99578">
        <ele>403.20001220703</ele>
        <time>2014-11-20T12:49:48.000Z</time>
      </trkpt>
      <trkpt lat="47.05422" lon="5.9959">
        <ele>403.60000610352</ele>
        <time>2014-11-20T12:49:57.000Z</time>
      </trkpt>
      <trkpt lat="47.05416" lon="5.996">
        <ele>404</ele>
        <time>2014-11-20T12:50:05.000Z</time>
      </trkpt>
      <trkpt lat="47.05408" lon="5.99612">
        <ele>404.39999389648</ele>
        <time>2014-11-20T12:50:14.000Z</time>
      </trkpt>
      <trkpt lat="47.05402" lon="5.99623">
        <ele>404.60000610352</ele>
        <time>2014-11-20T12:50:22.000Z</time>
      </trkpt>
      <trkpt lat="47.05385" lon="5.99651">
        <ele>406.39999389648</ele>
        <time>2014-11-20T12:50:42.000Z</time>
      </trkpt>
      <trkpt lat="47.05376" lon="5.99666">
        <ele>407.39999389648</ele>
        <time>2014-11-20T12:50:52.000Z</time>
      </trkpt>
      <trkpt lat="47.05367" lon="5.99681">
        <ele>408.39999389648</ele>
        <time>2014-11-20T12:51:02.000Z</time>
      </trkpt>
      <trkpt lat="47.05359" lon="5.99694">
        <ele>408.79998779297</ele>
        <time>2014-11-20T12:51:11.000Z</time>
      </trkpt>
      <trkpt lat="47.05354" lon="5.99703">
        <ele>409.20001220703</ele>
        <time>2014-11-20T12:51:18.000Z</time>
      </trkpt>
      <trkpt lat="47.05345" lon="5.99717">
        <ele>409.60000610352</ele>
        <time>2014-11-20T12:51:28.000Z</time>
      </trkpt>
      <trkpt lat="47.05336" lon="5.99731">
        <ele>410</ele>
        <time>2014-11-20T12:51:37.000Z</time>
      </trkpt>
      <trkpt lat="47.05331" lon="5.99739">
        <ele>410.39999389648</ele>
        <time>2014-11-20T12:51:44.000Z</time>
      </trkpt>
      <trkpt lat="47.05326" lon="5.99746">
        <ele>410.79998779297</ele>
        <time>2014-11-20T12:51:50.000Z</time>
      </trkpt>
      <trkpt lat="47.05321" lon="5.99757">
        <ele>411.60000610352</ele>
        <time>2014-11-20T12:51:58.000Z</time>
      </trkpt>
      <trkpt lat="47.05319" lon="5.99762">
        <ele>411.79998779297</ele>
        <time>2014-11-20T12:52:01.000Z</time>
      </trkpt>
      <trkpt lat="47.05314" lon="5.99772">
        <ele>412.60000610352</ele>
        <time>2014-11-20T12:52:08.000Z</time>
      </trkpt>
      <trkpt lat="47.05314" lon="5.99773">
        <ele>412.79998779297</ele>
        <time>2014-11-20T12:52:09.000Z</time>
      </trkpt>
      <trkpt lat="47.05312" lon="5.99778">
        <ele>413</ele>
        <time>2014-11-20T12:52:12.000Z</time>
      </trkpt>
      <trkpt lat="47.05309" lon="5.99781">
        <ele>413.39999389648</ele>
        <time>2014-11-20T12:52:15.000Z</time>
      </trkpt>
      <trkpt lat="47.05305" lon="5.99791">
        <ele>414.20001220703</ele>
        <time>2014-11-20T12:52:21.000Z</time>
      </trkpt>
      <trkpt lat="47.053" lon="5.99801">
        <ele>415.79998779297</ele>
        <time>2014-11-20T12:52:28.000Z</time>
      </trkpt>
      <trkpt lat="47.05289" lon="5.99809">
        <ele>418</ele>
        <time>2014-11-20T12:52:37.000Z</time>
      </trkpt>
      <trkpt lat="47.05283" lon="5.99812">
        <ele>419.20001220703</ele>
        <time>2014-11-20T12:52:42.000Z</time>
      </trkpt>
      <trkpt lat="47.05273" lon="5.99812">
        <ele>420.39999389648</ele>
        <time>2014-11-20T12:52:50.000Z</time>
      </trkpt>
      <trkpt lat="47.05264" lon="5.99806">
        <ele>421</ele>
        <time>2014-11-20T12:52:58.000Z</time>
      </trkpt>
      <trkpt lat="47.05255" lon="5.998">
        <ele>421.60000610352</ele>
        <time>2014-11-20T12:53:06.000Z</time>
      </trkpt>
      <trkpt lat="47.05252" lon="5.99798">
        <ele>421.79998779297</ele>
        <time>2014-11-20T12:53:09.000Z</time>
      </trkpt>
      <trkpt lat="47.05248" lon="5.99794">
        <ele>422</ele>
        <time>2014-11-20T12:53:13.000Z</time>
      </trkpt>
      <trkpt lat="47.05236" lon="5.99784">
        <ele>422.39999389648</ele>
        <time>2014-11-20T12:53:23.000Z</time>
      </trkpt>
      <trkpt lat="47.05226" lon="5.99776">
        <ele>422.39999389648</ele>
        <time>2014-11-20T12:53:32.000Z</time>
      </trkpt>
      <trkpt lat="47.05217" lon="5.9977">
        <ele>422.60000610352</ele>
        <time>2014-11-20T12:53:39.000Z</time>
      </trkpt>
      <trkpt lat="47.05209" lon="5.99769">
        <ele>423.20001220703</ele>
        <time>2014-11-20T12:53:47.000Z</time>
      </trkpt>
      <trkpt lat="47.05199" lon="5.99774">
        <ele>424.39999389648</ele>
        <time>2014-11-20T12:53:56.000Z</time>
      </trkpt>
      <trkpt lat="47.05192" lon="5.99781">
        <ele>425.79998779297</ele>
        <time>2014-11-20T12:54:04.000Z</time>
      </trkpt>
      <trkpt lat="47.05186" lon="5.99791">
        <ele>427.60000610352</ele>
        <time>2014-11-20T12:54:12.000Z</time>
      </trkpt>
      <trkpt lat="47.05181" lon="5.998">
        <ele>429</ele>
        <time>2014-11-20T12:54:19.000Z</time>
      </trkpt>
      <trkpt lat="47.0518" lon="5.99801">
        <ele>429.20001220703</ele>
        <time>2014-11-20T12:54:20.000Z</time>
      </trkpt>
      <trkpt lat="47.05177" lon="5.99809">
        <ele>430.39999389648</ele>
        <time>2014-11-20T12:54:26.000Z</time>
      </trkpt>
      <trkpt lat="47.0517" lon="5.99819">
        <ele>432.79998779297</ele>
        <time>2014-11-20T12:54:35.000Z</time>
      </trkpt>
      <trkpt lat="47.05169" lon="5.99821">
        <ele>433.20001220703</ele>
        <time>2014-11-20T12:54:36.000Z</time>
      </trkpt>
      <trkpt lat="47.05165" lon="5.99828">
        <ele>434.79998779297</ele>
        <time>2014-11-20T12:54:41.000Z</time>
      </trkpt>
      <trkpt lat="47.05158" lon="5.99838">
        <ele>437.39999389648</ele>
        <time>2014-11-20T12:54:50.000Z</time>
      </trkpt>
      <trkpt lat="47.05156" lon="5.99842">
        <ele>438.39999389648</ele>
        <time>2014-11-20T12:54:53.000Z</time>
      </trkpt>
      <trkpt lat="47.05152" lon="5.9985">
        <ele>440.20001220703</ele>
        <time>2014-11-20T12:54:59.000Z</time>
      </trkpt>
      <trkpt lat="47.05151" lon="5.99857">
        <ele>441.60000610352</ele>
        <time>2014-11-20T12:55:04.000Z</time>
      </trkpt>
      <trkpt lat="47.05151" lon="5.99858">
        <ele>442</ele>
        <time>2014-11-20T12:55:05.000Z</time>
      </trkpt>
      <trkpt lat="47.05152" lon="5.99863">
        <ele>442.60000610352</ele>
        <time>2014-11-20T12:55:08.000Z</time>
      </trkpt>
      <trkpt lat="47.05156" lon="5.99872">
        <ele>443.79998779297</ele>
        <time>2014-11-20T12:55:14.000Z</time>
      </trkpt>
      <trkpt lat="47.05162" lon="5.9988">
        <ele>444.60000610352</ele>
        <time>2014-11-20T12:55:21.000Z</time>
      </trkpt>
      <trkpt lat="47.05168" lon="5.99888">
        <ele>445.39999389648</ele>
        <time>2014-11-20T12:55:29.000Z</time>
      </trkpt>
      <trkpt lat="47.05169" lon="5.9989">
        <ele>445.60000610352</ele>
        <time>2014-11-20T12:55:31.000Z</time>
      </trkpt>
      <trkpt lat="47.05174" lon="5.99895">
        <ele>446</ele>
        <time>2014-11-20T12:55:36.000Z</time>
      </trkpt>
      <trkpt lat="47.05176" lon="5.99897">
        <ele>446</ele>
        <time>2014-11-20T12:55:38.000Z</time>
      </trkpt>
      <trkpt lat="47.05183" lon="5.99903">
        <ele>446.39999389648</ele>
        <time>2014-11-20T12:55:44.000Z</time>
      </trkpt>
      <trkpt lat="47.0519" lon="5.99911">
        <ele>446.60000610352</ele>
        <time>2014-11-20T12:55:51.000Z</time>
      </trkpt>
      <trkpt lat="47.05193" lon="5.99914">
        <ele>446.79998779297</ele>
        <time>2014-11-20T12:55:54.000Z</time>
      </trkpt>
      <trkpt lat="47.05198" lon="5.99921">
        <ele>447.39999389648</ele>
        <time>2014-11-20T12:56:00.000Z</time>
      </trkpt>
      <trkpt lat="47.05201" lon="5.99925">
        <ele>447.60000610352</ele>
        <time>2014-11-20T12:56:03.000Z</time>
      </trkpt>
      <trkpt lat="47.05208" lon="5.99931">
        <ele>448</ele>
        <time>2014-11-20T12:56:10.000Z</time>
      </trkpt>
      <trkpt lat="47.05213" lon="5.99937">
        <ele>448.20001220703</ele>
        <time>2014-11-20T12:56:14.000Z</time>
      </trkpt>
      <trkpt lat="47.05223" lon="5.99948">
        <ele>448.79998779297</ele>
        <time>2014-11-20T12:56:23.000Z</time>
      </trkpt>
      <trkpt lat="47.05227" lon="5.99951">
        <ele>449</ele>
        <time>2014-11-20T12:56:26.000Z</time>
      </trkpt>
      <trkpt lat="47.05238" lon="5.99961">
        <ele>449.20001220703</ele>
        <time>2014-11-20T12:56:34.000Z</time>
      </trkpt>
      <trkpt lat="47.05247" lon="5.99969">
        <ele>449.20001220703</ele>
        <time>2014-11-20T12:56:41.000Z</time>
      </trkpt>
      <trkpt lat="47.05255" lon="5.99977">
        <ele>449.20001220703</ele>
        <time>2014-11-20T12:56:48.000Z</time>
      </trkpt>
      <trkpt lat="47.05263" lon="5.99985">
        <ele>449.39999389648</ele>
        <time>2014-11-20T12:56:54.000Z</time>
      </trkpt>
      <trkpt lat="47.0527" lon="5.99996">
        <ele>450.20001220703</ele>
        <time>2014-11-20T12:57:02.000Z</time>
      </trkpt>
      <trkpt lat="47.05272" lon="5.99997">
        <ele>450.20001220703</ele>
        <time>2014-11-20T12:57:03.000Z</time>
      </trkpt>
      <trkpt lat="47.05275" lon="6.00002">
        <ele>450.60000610352</ele>
        <time>2014-11-20T12:57:07.000Z</time>
      </trkpt>
      <trkpt lat="47.0528" lon="6.00011">
        <ele>451.79998779297</ele>
        <time>2014-11-20T12:57:14.000Z</time>
      </trkpt>
      <trkpt lat="47.05287" lon="6.00022">
        <ele>452.60000610352</ele>
        <time>2014-11-20T12:57:21.000Z</time>
      </trkpt>
      <trkpt lat="47.05288" lon="6.00024">
        <ele>452.79998779297</ele>
        <time>2014-11-20T12:57:23.000Z</time>
      </trkpt>
      <trkpt lat="47.0529" lon="6.00028">
        <ele>453</ele>
        <time>2014-11-20T12:57:26.000Z</time>
      </trkpt>
      <trkpt lat="47.05292" lon="6.00031">
        <ele>453.20001220703</ele>
        <time>2014-11-20T12:57:28.000Z</time>
      </trkpt>
      <trkpt lat="47.05293" lon="6.00032">
        <ele>453.39999389648</ele>
        <time>2014-11-20T12:57:29.000Z</time>
      </trkpt>
      <trkpt lat="47.05297" lon="6.00037">
        <ele>453.79998779297</ele>
        <time>2014-11-20T12:57:33.000Z</time>
      </trkpt>
      <trkpt lat="47.05303" lon="6.00048">
        <ele>454.79998779297</ele>
        <time>2014-11-20T12:57:41.000Z</time>
      </trkpt>
      <trkpt lat="47.0531" lon="6.00058">
        <ele>455.39999389648</ele>
        <time>2014-11-20T12:57:48.000Z</time>
      </trkpt>
      <trkpt lat="47.05311" lon="6.00059">
        <ele>455.60000610352</ele>
        <time>2014-11-20T12:57:49.000Z</time>
      </trkpt>
      <trkpt lat="47.05317" lon="6.00067">
        <ele>456.39999389648</ele>
        <time>2014-11-20T12:57:55.000Z</time>
      </trkpt>
      <trkpt lat="47.05324" lon="6.00079">
        <ele>457.79998779297</ele>
        <time>2014-11-20T12:58:03.000Z</time>
      </trkpt>
      <trkpt lat="47.05328" lon="6.00088">
        <ele>459</ele>
        <time>2014-11-20T12:58:09.000Z</time>
      </trkpt>
      <trkpt lat="47.05334" lon="6.00098">
        <ele>460.20001220703</ele>
        <time>2014-11-20T12:58:15.000Z</time>
      </trkpt>
      <trkpt lat="47.0534" lon="6.00106">
        <ele>461</ele>
        <time>2014-11-20T12:58:21.000Z</time>
      </trkpt>
      <trkpt lat="47.05348" lon="6.00115">
        <ele>461.60000610352</ele>
        <time>2014-11-20T12:58:28.000Z</time>
      </trkpt>
      <trkpt lat="47.05355" lon="6.00123">
        <ele>462.20001220703</ele>
        <time>2014-11-20T12:58:35.000Z</time>
      </trkpt>
      <trkpt lat="47.05356" lon="6.00124">
        <ele>462.20001220703</ele>
        <time>2014-11-20T12:58:36.000Z</time>
      </trkpt>
      <trkpt lat="47.05363" lon="6.00135">
        <ele>463.20001220703</ele>
        <time>2014-11-20T12:58:44.000Z</time>
      </trkpt>
      <trkpt lat="47.05365" lon="6.00137">
        <ele>463.39999389648</ele>
        <time>2014-11-20T12:58:46.000Z</time>
      </trkpt>
      <trkpt lat="47.05366" lon="6.00138">
        <ele>463.39999389648</ele>
        <time>2014-11-20T12:58:47.000Z</time>
      </trkpt>
      <trkpt lat="47.05373" lon="6.00147">
        <ele>464.20001220703</ele>
        <time>2014-11-20T12:58:54.000Z</time>
      </trkpt>
      <trkpt lat="47.0538" lon="6.00157">
        <ele>465.39999389648</ele>
        <time>2014-11-20T12:59:01.000Z</time>
      </trkpt>
      <trkpt lat="47.05387" lon="6.00165">
        <ele>466</ele>
        <time>2014-11-20T12:59:08.000Z</time>
      </trkpt>
      <trkpt lat="47.05392" lon="6.00171">
        <ele>466.60000610352</ele>
        <time>2014-11-20T12:59:13.000Z</time>
      </trkpt>
      <trkpt lat="47.05398" lon="6.00177">
        <ele>466.79998779297</ele>
        <time>2014-11-20T12:59:20.000Z</time>
      </trkpt>
      <trkpt lat="47.05409" lon="6.00194">
        <ele>469</ele>
        <time>2014-11-20T12:59:33.000Z</time>
      </trkpt>
      <trkpt lat="47.05412" lon="6.00205">
        <ele>470.79998779297</ele>
        <time>2014-11-20T12:59:41.000Z</time>
      </trkpt>
      <trkpt lat="47.05415" lon="6.00211">
        <ele>471.79998779297</ele>
        <time>2014-11-20T12:59:50.000Z</time>
      </trkpt>
      <trkpt lat="47.05408" lon="6.00215">
        <ele>473.79998779297</ele>
        <time>2014-11-20T13:00:24.000Z</time>
      </trkpt>
      <trkpt lat="47.05413" lon="6.00223">
        <ele>475</ele>
        <time>2014-11-20T13:02:27.000Z</time>
      </trkpt>
      <trkpt lat="47.05419" lon="6.00227">
        <ele>475</ele>
        <time>2014-11-20T13:02:34.000Z</time>
      </trkpt>
      <trkpt lat="47.05423" lon="6.00231">
        <ele>475.20001220703</ele>
        <time>2014-11-20T13:02:39.000Z</time>
      </trkpt>
      <trkpt lat="47.05432" lon="6.00238">
        <ele>475.39999389648</ele>
        <time>2014-11-20T13:02:48.000Z</time>
      </trkpt>
      <trkpt lat="47.05439" lon="6.00247">
        <ele>476</ele>
        <time>2014-11-20T13:02:56.000Z</time>
      </trkpt>
      <trkpt lat="47.05443" lon="6.00251">
        <ele>476.39999389648</ele>
        <time>2014-11-20T13:03:02.000Z</time>
      </trkpt>
      <trkpt lat="47.05447" lon="6.00256">
        <ele>476.79998779297</ele>
        <time>2014-11-20T13:03:08.000Z</time>
      </trkpt>
      <trkpt lat="47.05452" lon="6.00261">
        <ele>477</ele>
        <time>2014-11-20T13:03:14.000Z</time>
      </trkpt>
      <trkpt lat="47.05453" lon="6.00262">
        <ele>477.20001220703</ele>
        <time>2014-11-20T13:03:15.000Z</time>
      </trkpt>
      <trkpt lat="47.05453" lon="6.00263">
        <ele>477.39999389648</ele>
        <time>2014-11-20T13:03:16.000Z</time>
      </trkpt>
      <trkpt lat="47.05456" lon="6.00269">
        <ele>478.20001220703</ele>
        <time>2014-11-20T13:03:23.000Z</time>
      </trkpt>
      <trkpt lat="47.0546" lon="6.00273">
        <ele>478.60000610352</ele>
        <time>2014-11-20T13:03:29.000Z</time>
      </trkpt>
      <trkpt lat="47.0546" lon="6.00278">
        <ele>479.39999389648</ele>
        <time>2014-11-20T13:03:33.000Z</time>
      </trkpt>
      <trkpt lat="47.05461" lon="6.00279">
        <ele>479.39999389648</ele>
        <time>2014-11-20T13:03:34.000Z</time>
      </trkpt>
      <trkpt lat="47.05467" lon="6.00283">
        <ele>479.60000610352</ele>
        <time>2014-11-20T13:03:39.000Z</time>
      </trkpt>
      <trkpt lat="47.05469" lon="6.00285">
        <ele>479.60000610352</ele>
        <time>2014-11-20T13:03:41.000Z</time>
      </trkpt>
      <trkpt lat="47.05474" lon="6.00291">
        <ele>480</ele>
        <time>2014-11-20T13:03:48.000Z</time>
      </trkpt>
      <trkpt lat="47.05476" lon="6.00293">
        <ele>480.20001220703</ele>
        <time>2014-11-20T13:03:51.000Z</time>
      </trkpt>
      <trkpt lat="47.05481" lon="6.00297">
        <ele>480.39999389648</ele>
        <time>2014-11-20T13:03:56.000Z</time>
      </trkpt>
      <trkpt lat="47.05486" lon="6.00302">
        <ele>480.60000610352</ele>
        <time>2014-11-20T13:04:01.000Z</time>
      </trkpt>
      <trkpt lat="47.0549" lon="6.00306">
        <ele>480.79998779297</ele>
        <time>2014-11-20T13:04:05.000Z</time>
      </trkpt>
      <trkpt lat="47.05495" lon="6.00311">
        <ele>481.20001220703</ele>
        <time>2014-11-20T13:04:11.000Z</time>
      </trkpt>
      <trkpt lat="47.05503" lon="6.00315">
        <ele>481</ele>
        <time>2014-11-20T13:04:17.000Z</time>
      </trkpt>
      <trkpt lat="47.05507" lon="6.00318">
        <ele>481</ele>
        <time>2014-11-20T13:04:20.000Z</time>
      </trkpt>
      <trkpt lat="47.05509" lon="6.00319">
        <ele>481.20001220703</ele>
        <time>2014-11-20T13:04:22.000Z</time>
      </trkpt>
      <trkpt lat="47.05517" lon="6.00326">
        <ele>481.39999389648</ele>
        <time>2014-11-20T13:04:28.000Z</time>
      </trkpt>
      <trkpt lat="47.05522" lon="6.0033">
        <ele>481.60000610352</ele>
        <time>2014-11-20T13:04:33.000Z</time>
      </trkpt>
      <trkpt lat="47.05523" lon="6.00332">
        <ele>481.79998779297</ele>
        <time>2014-11-20T13:04:34.000Z</time>
      </trkpt>
      <trkpt lat="47.05527" lon="6.00335">
        <ele>482</ele>
        <time>2014-11-20T13:04:37.000Z</time>
      </trkpt>
      <trkpt lat="47.05529" lon="6.00338">
        <ele>482.20001220703</ele>
        <time>2014-11-20T13:04:40.000Z</time>
      </trkpt>
      <trkpt lat="47.05534" lon="6.00343">
        <ele>482.79998779297</ele>
        <time>2014-11-20T13:04:45.000Z</time>
      </trkpt>
      <trkpt lat="47.0554" lon="6.00349">
        <ele>483.20001220703</ele>
        <time>2014-11-20T13:04:52.000Z</time>
      </trkpt>
      <trkpt lat="47.05542" lon="6.00351">
        <ele>483.20001220703</ele>
        <time>2014-11-20T13:04:54.000Z</time>
      </trkpt>
      <trkpt lat="47.05545" lon="6.00354">
        <ele>483.39999389648</ele>
        <time>2014-11-20T13:04:57.000Z</time>
      </trkpt>
      <trkpt lat="47.0555" lon="6.00358">
        <ele>483.60000610352</ele>
        <time>2014-11-20T13:05:02.000Z</time>
      </trkpt>
      <trkpt lat="47.05559" lon="6.00363">
        <ele>483.60000610352</ele>
        <time>2014-11-20T13:05:10.000Z</time>
      </trkpt>
      <trkpt lat="47.05567" lon="6.00369">
        <ele>483.60000610352</ele>
        <time>2014-11-20T13:05:16.000Z</time>
      </trkpt>
      <trkpt lat="47.0557" lon="6.00371">
        <ele>483.60000610352</ele>
        <time>2014-11-20T13:05:19.000Z</time>
      </trkpt>
      <trkpt lat="47.05573" lon="6.00372">
        <ele>483.60000610352</ele>
        <time>2014-11-20T13:05:21.000Z</time>
      </trkpt>
      <trkpt lat="47.05578" lon="6.00375">
        <ele>483.39999389648</ele>
        <time>2014-11-20T13:05:26.000Z</time>
      </trkpt>
      <trkpt lat="47.05581" lon="6.00376">
        <ele>483</ele>
        <time>2014-11-20T13:05:28.000Z</time>
      </trkpt>
      <trkpt lat="47.05585" lon="6.00378">
        <ele>482.60000610352</ele>
        <time>2014-11-20T13:05:32.000Z</time>
      </trkpt>
      <trkpt lat="47.05593" lon="6.00383">
        <ele>481.79998779297</ele>
        <time>2014-11-20T13:05:38.000Z</time>
      </trkpt>
      <trkpt lat="47.05602" lon="6.00386">
        <ele>480.60000610352</ele>
        <time>2014-11-20T13:05:45.000Z</time>
      </trkpt>
      <trkpt lat="47.05603" lon="6.00387">
        <ele>480.39999389648</ele>
        <time>2014-11-20T13:05:46.000Z</time>
      </trkpt>
      <trkpt lat="47.05609" lon="6.00389">
        <ele>479.79998779297</ele>
        <time>2014-11-20T13:05:51.000Z</time>
      </trkpt>
      <trkpt lat="47.05611" lon="6.0039">
        <ele>479.39999389648</ele>
        <time>2014-11-20T13:05:53.000Z</time>
      </trkpt>
      <trkpt lat="47.05621" lon="6.00394">
        <ele>478.20001220703</ele>
        <time>2014-11-20T13:06:01.000Z</time>
      </trkpt>
      <trkpt lat="47.05626" lon="6.00395">
        <ele>477.39999389648</ele>
        <time>2014-11-20T13:06:06.000Z</time>
      </trkpt>
      <trkpt lat="47.05628" lon="6.00396">
        <ele>477.20001220703</ele>
        <time>2014-11-20T13:06:08.000Z</time>
      </trkpt>
      <trkpt lat="47.05634" lon="6.00401">
        <ele>476.79998779297</ele>
        <time>2014-11-20T13:06:15.000Z</time>
      </trkpt>
      <trkpt lat="47.05638" lon="6.00403">
        <ele>476.60000610352</ele>
        <time>2014-11-20T13:06:18.000Z</time>
      </trkpt>
      <trkpt lat="47.05639" lon="6.00404">
        <ele>476.39999389648</ele>
        <time>2014-11-20T13:06:20.000Z</time>
      </trkpt>
      <trkpt lat="47.05642" lon="6.00405">
        <ele>476</ele>
        <time>2014-11-20T13:06:23.000Z</time>
      </trkpt>
      <trkpt lat="47.05653" lon="6.00413">
        <ele>475.39999389648</ele>
        <time>2014-11-20T13:06:31.000Z</time>
      </trkpt>
      <trkpt lat="47.05654" lon="6.00414">
        <ele>475.39999389648</ele>
        <time>2014-11-20T13:06:32.000Z</time>
      </trkpt>
      <trkpt lat="47.05654" lon="6.00415">
        <ele>475.60000610352</ele>
        <time>2014-11-20T13:06:33.000Z</time>
      </trkpt>
      <trkpt lat="47.05658" lon="6.00418">
        <ele>475.20001220703</ele>
        <time>2014-11-20T13:06:37.000Z</time>
      </trkpt>
      <trkpt lat="47.05667" lon="6.00424">
        <ele>474.20001220703</ele>
        <time>2014-11-20T13:06:43.000Z</time>
      </trkpt>
      <trkpt lat="47.05673" lon="6.00425">
        <ele>473.20001220703</ele>
        <time>2014-11-20T13:06:47.000Z</time>
      </trkpt>
      <trkpt lat="47.05678" lon="6.00429">
        <ele>472.60000610352</ele>
        <time>2014-11-20T13:06:52.000Z</time>
      </trkpt>
      <trkpt lat="47.05687" lon="6.00436">
        <ele>471.79998779297</ele>
        <time>2014-11-20T13:07:00.000Z</time>
      </trkpt>
      <trkpt lat="47.05688" lon="6.00437">
        <ele>471.79998779297</ele>
        <time>2014-11-20T13:07:01.000Z</time>
      </trkpt>
      <trkpt lat="47.05694" lon="6.00442">
        <ele>471.39999389648</ele>
        <time>2014-11-20T13:07:06.000Z</time>
      </trkpt>
      <trkpt lat="47.05698" lon="6.00445">
        <ele>471</ele>
        <time>2014-11-20T13:07:10.000Z</time>
      </trkpt>
      <trkpt lat="47.057" lon="6.00447">
        <ele>470.79998779297</ele>
        <time>2014-11-20T13:07:12.000Z</time>
      </trkpt>
      <trkpt lat="47.05705" lon="6.00451">
        <ele>470.39999389648</ele>
        <time>2014-11-20T13:07:18.000Z</time>
      </trkpt>
      <trkpt lat="47.05712" lon="6.00458">
        <ele>469.79998779297</ele>
        <time>2014-11-20T13:07:25.000Z</time>
      </trkpt>
      <trkpt lat="47.05722" lon="6.00466">
        <ele>469.20001220703</ele>
        <time>2014-11-20T13:07:35.000Z</time>
      </trkpt>
      <trkpt lat="47.05728" lon="6.0047">
        <ele>468.39999389648</ele>
        <time>2014-11-20T13:07:43.000Z</time>
      </trkpt>
      <trkpt lat="47.05729" lon="6.0047">
        <ele>468.20001220703</ele>
        <time>2014-11-20T13:07:44.000Z</time>
      </trkpt>
      <trkpt lat="47.05732" lon="6.00471">
        <ele>467.79998779297</ele>
        <time>2014-11-20T13:07:47.000Z</time>
      </trkpt>
      <trkpt lat="47.05738" lon="6.00476">
        <ele>467.20001220703</ele>
        <time>2014-11-20T13:07:53.000Z</time>
      </trkpt>
      <trkpt lat="47.05741" lon="6.00478">
        <ele>467</ele>
        <time>2014-11-20T13:07:57.000Z</time>
      </trkpt>
      <trkpt lat="47.05744" lon="6.0048">
        <ele>466.60000610352</ele>
        <time>2014-11-20T13:08:00.000Z</time>
      </trkpt>
      <trkpt lat="47.0575" lon="6.00485">
        <ele>466</ele>
        <time>2014-11-20T13:08:06.000Z</time>
      </trkpt>
      <trkpt lat="47.05755" lon="6.00489">
        <ele>465.39999389648</ele>
        <time>2014-11-20T13:08:12.000Z</time>
      </trkpt>
      <trkpt lat="47.0576" lon="6.00492">
        <ele>464.60000610352</ele>
        <time>2014-11-20T13:08:17.000Z</time>
      </trkpt>
      <trkpt lat="47.05769" lon="6.00498">
        <ele>463.39999389648</ele>
        <time>2014-11-20T13:08:28.000Z</time>
      </trkpt>
      <trkpt lat="47.05775" lon="6.00502">
        <ele>462.39999389648</ele>
        <time>2014-11-20T13:08:33.000Z</time>
      </trkpt>
      <trkpt lat="47.05778" lon="6.00505">
        <ele>462</ele>
        <time>2014-11-20T13:08:36.000Z</time>
      </trkpt>
      <trkpt lat="47.05783" lon="6.00509">
        <ele>461.39999389648</ele>
        <time>2014-11-20T13:08:41.000Z</time>
      </trkpt>
      <trkpt lat="47.05784" lon="6.00509">
        <ele>461.20001220703</ele>
        <time>2014-11-20T13:08:42.000Z</time>
      </trkpt>
      <trkpt lat="47.05787" lon="6.00511">
        <ele>460.79998779297</ele>
        <time>2014-11-20T13:08:44.000Z</time>
      </trkpt>
      <trkpt lat="47.05792" lon="6.00516">
        <ele>460.39999389648</ele>
        <time>2014-11-20T13:08:48.000Z</time>
      </trkpt>
      <trkpt lat="47.05794" lon="6.0052">
        <ele>460.60000610352</ele>
        <time>2014-11-20T13:08:52.000Z</time>
      </trkpt>
      <trkpt lat="47.05804" lon="6.00528">
        <ele>459.60000610352</ele>
        <time>2014-11-20T13:08:59.000Z</time>
      </trkpt>
      <trkpt lat="47.0581" lon="6.00533">
        <ele>459</ele>
        <time>2014-11-20T13:09:04.000Z</time>
      </trkpt>
      <trkpt lat="47.05811" lon="6.00534">
        <ele>458.79998779297</ele>
        <time>2014-11-20T13:09:05.000Z</time>
      </trkpt>
      <trkpt lat="47.0582" lon="6.00541">
        <ele>457.60000610352</ele>
        <time>2014-11-20T13:09:13.000Z</time>
      </trkpt>
      <trkpt lat="47.05821" lon="6.00542">
        <ele>457.60000610352</ele>
        <time>2014-11-20T13:09:14.000Z</time>
      </trkpt>
      <trkpt lat="47.0583" lon="6.00551">
        <ele>457</ele>
        <time>2014-11-20T13:09:24.000Z</time>
      </trkpt>
      <trkpt lat="47.05838" lon="6.00559">
        <ele>456.79998779297</ele>
        <time>2014-11-20T13:09:30.000Z</time>
      </trkpt>
      <trkpt lat="47.05842" lon="6.00564">
        <ele>457</ele>
        <time>2014-11-20T13:09:35.000Z</time>
      </trkpt>
      <trkpt lat="47.05844" lon="6.00566">
        <ele>457.20001220703</ele>
        <time>2014-11-20T13:09:37.000Z</time>
      </trkpt>
      <trkpt lat="47.05846" lon="6.00568">
        <ele>457</ele>
        <time>2014-11-20T13:09:39.000Z</time>
      </trkpt>
      <trkpt lat="47.05851" lon="6.00574">
        <ele>457.39999389648</ele>
        <time>2014-11-20T13:09:44.000Z</time>
      </trkpt>
      <trkpt lat="47.05852" lon="6.00576">
        <ele>457.60000610352</ele>
        <time>2014-11-20T13:09:46.000Z</time>
      </trkpt>
      <trkpt lat="47.05854" lon="6.00578">
        <ele>457.60000610352</ele>
        <time>2014-11-20T13:09:48.000Z</time>
      </trkpt>
      <trkpt lat="47.05859" lon="6.00584">
        <ele>457.79998779297</ele>
        <time>2014-11-20T13:09:53.000Z</time>
      </trkpt>
      <trkpt lat="47.0586" lon="6.00585">
        <ele>457.79998779297</ele>
        <time>2014-11-20T13:09:55.000Z</time>
      </trkpt>
      <trkpt lat="47.05865" lon="6.00592">
        <ele>458.20001220703</ele>
        <time>2014-11-20T13:10:01.000Z</time>
      </trkpt>
      <trkpt lat="47.05868" lon="6.00596">
        <ele>458.20001220703</ele>
        <time>2014-11-20T13:10:05.000Z</time>
      </trkpt>
      <trkpt lat="47.05872" lon="6.00602">
        <ele>458.79998779297</ele>
        <time>2014-11-20T13:10:11.000Z</time>
      </trkpt>
      <trkpt lat="47.05877" lon="6.00611">
        <ele>459.60000610352</ele>
        <time>2014-11-20T13:10:17.000Z</time>
      </trkpt>
      <trkpt lat="47.05883" lon="6.00619">
        <ele>460.20001220703</ele>
        <time>2014-11-20T13:10:23.000Z</time>
      </trkpt>
      <trkpt lat="47.05885" lon="6.00621">
        <ele>460.20001220703</ele>
        <time>2014-11-20T13:10:25.000Z</time>
      </trkpt>
      <trkpt lat="47.05888" lon="6.00626">
        <ele>460.60000610352</ele>
        <time>2014-11-20T13:10:30.000Z</time>
      </trkpt>
      <trkpt lat="47.05894" lon="6.00634">
        <ele>461</ele>
        <time>2014-11-20T13:10:36.000Z</time>
      </trkpt>
      <trkpt lat="47.05895" lon="6.00636">
        <ele>461</ele>
        <time>2014-11-20T13:10:38.000Z</time>
      </trkpt>
      <trkpt lat="47.05902" lon="6.00641">
        <ele>460.79998779297</ele>
        <time>2014-11-20T13:10:44.000Z</time>
      </trkpt>
      <trkpt lat="47.05903" lon="6.00642">
        <ele>460.79998779297</ele>
        <time>2014-11-20T13:10:45.000Z</time>
      </trkpt>
      <trkpt lat="47.05905" lon="6.00645">
        <ele>460.79998779297</ele>
        <time>2014-11-20T13:10:47.000Z</time>
      </trkpt>
      <trkpt lat="47.0591" lon="6.0065">
        <ele>460.60000610352</ele>
        <time>2014-11-20T13:10:52.000Z</time>
      </trkpt>
      <trkpt lat="47.05918" lon="6.00658">
        <ele>460.39999389648</ele>
        <time>2014-11-20T13:10:59.000Z</time>
      </trkpt>
      <trkpt lat="47.05921" lon="6.00661">
        <ele>460.39999389648</ele>
        <time>2014-11-20T13:11:02.000Z</time>
      </trkpt>
      <trkpt lat="47.05926" lon="6.00667">
        <ele>460.60000610352</ele>
        <time>2014-11-20T13:11:08.000Z</time>
      </trkpt>
      <trkpt lat="47.0593" lon="6.00674">
        <ele>461</ele>
        <time>2014-11-20T13:11:15.000Z</time>
      </trkpt>
      <trkpt lat="47.05933" lon="6.00679">
        <ele>461.39999389648</ele>
        <time>2014-11-20T13:11:20.000Z</time>
      </trkpt>
      <trkpt lat="47.05934" lon="6.00681">
        <ele>461.39999389648</ele>
        <time>2014-11-20T13:11:22.000Z</time>
      </trkpt>
      <trkpt lat="47.05943" lon="6.00692">
        <ele>461.79998779297</ele>
        <time>2014-11-20T13:11:33.000Z</time>
      </trkpt>
      <trkpt lat="47.05947" lon="6.00697">
        <ele>462</ele>
        <time>2014-11-20T13:11:37.000Z</time>
      </trkpt>
      <trkpt lat="47.05951" lon="6.00703">
        <ele>462.20001220703</ele>
        <time>2014-11-20T13:11:42.000Z</time>
      </trkpt>
      <trkpt lat="47.05951" lon="6.00704">
        <ele>462.39999389648</ele>
        <time>2014-11-20T13:11:43.000Z</time>
      </trkpt>
      <trkpt lat="47.05952" lon="6.00705">
        <ele>462.39999389648</ele>
        <time>2014-11-20T13:11:44.000Z</time>
      </trkpt>
      <trkpt lat="47.05954" lon="6.00712">
        <ele>463.39999389648</ele>
        <time>2014-11-20T13:11:49.000Z</time>
      </trkpt>
      <trkpt lat="47.05958" lon="6.00718">
        <ele>464</ele>
        <time>2014-11-20T13:11:54.000Z</time>
      </trkpt>
      <trkpt lat="47.05958" lon="6.0072">
        <ele>464</ele>
        <time>2014-11-20T13:11:55.000Z</time>
      </trkpt>
      <trkpt lat="47.0596" lon="6.00722">
        <ele>464</ele>
        <time>2014-11-20T13:11:57.000Z</time>
      </trkpt>
      <trkpt lat="47.05965" lon="6.00728">
        <ele>464.39999389648</ele>
        <time>2014-11-20T13:12:04.000Z</time>
      </trkpt>
      <trkpt lat="47.0597" lon="6.00735">
        <ele>464.60000610352</ele>
        <time>2014-11-20T13:12:10.000Z</time>
      </trkpt>
      <trkpt lat="47.05974" lon="6.00742">
        <ele>465.20001220703</ele>
        <time>2014-11-20T13:12:16.000Z</time>
      </trkpt>
      <trkpt lat="47.05977" lon="6.00744">
        <ele>465</ele>
        <time>2014-11-20T13:12:19.000Z</time>
      </trkpt>
      <trkpt lat="47.05979" lon="6.00746">
        <ele>464.79998779297</ele>
        <time>2014-11-20T13:12:22.000Z</time>
      </trkpt>
      <trkpt lat="47.05984" lon="6.00751">
        <ele>464.60000610352</ele>
        <time>2014-11-20T13:12:28.000Z</time>
      </trkpt>
      <trkpt lat="47.05985" lon="6.00752">
        <ele>464.60000610352</ele>
        <time>2014-11-20T13:12:30.000Z</time>
      </trkpt>
      <trkpt lat="47.0599" lon="6.00759">
        <ele>464.79998779297</ele>
        <time>2014-11-20T13:12:35.000Z</time>
      </trkpt>
      <trkpt lat="47.05997" lon="6.00765">
        <ele>464.60000610352</ele>
        <time>2014-11-20T13:12:42.000Z</time>
      </trkpt>
      <trkpt lat="47.05999" lon="6.00766">
        <ele>464.60000610352</ele>
        <time>2014-11-20T13:12:43.000Z</time>
      </trkpt>
      <trkpt lat="47.06007" lon="6.00773">
        <ele>464.39999389648</ele>
        <time>2014-11-20T13:12:50.000Z</time>
      </trkpt>
      <trkpt lat="47.06012" lon="6.00778">
        <ele>464.20001220703</ele>
        <time>2014-11-20T13:12:55.000Z</time>
      </trkpt>
      <trkpt lat="47.06014" lon="6.00779">
        <ele>464.20001220703</ele>
        <time>2014-11-20T13:12:57.000Z</time>
      </trkpt>
      <trkpt lat="47.0602" lon="6.0078">
        <ele>463</ele>
        <time>2014-11-20T13:13:02.000Z</time>
      </trkpt>
      <trkpt lat="47.06021" lon="6.00781">
        <ele>463</ele>
        <time>2014-11-20T13:13:03.000Z</time>
      </trkpt>
      <trkpt lat="47.06023" lon="6.00782">
        <ele>462.79998779297</ele>
        <time>2014-11-20T13:13:05.000Z</time>
      </trkpt>
      <trkpt lat="47.06024" lon="6.00783">
        <ele>462.60000610352</ele>
        <time>2014-11-20T13:13:07.000Z</time>
      </trkpt>
      <trkpt lat="47.0603" lon="6.00785">
        <ele>461.79998779297</ele>
        <time>2014-11-20T13:13:12.000Z</time>
      </trkpt>
      <trkpt lat="47.06034" lon="6.00788">
        <ele>461.79998779297</ele>
        <time>2014-11-20T13:13:16.000Z</time>
      </trkpt>
      <trkpt lat="47.06042" lon="6.00795">
        <ele>461.39999389648</ele>
        <time>2014-11-20T13:13:23.000Z</time>
      </trkpt>
      <trkpt lat="47.06047" lon="6.00797">
        <ele>461</ele>
        <time>2014-11-20T13:13:27.000Z</time>
      </trkpt>
      <trkpt lat="47.06055" lon="6.00804">
        <ele>460.60000610352</ele>
        <time>2014-11-20T13:13:33.000Z</time>
      </trkpt>
      <trkpt lat="47.06056" lon="6.00805">
        <ele>460.60000610352</ele>
        <time>2014-11-20T13:13:34.000Z</time>
      </trkpt>
      <trkpt lat="47.06057" lon="6.00806">
        <ele>460.60000610352</ele>
        <time>2014-11-20T13:13:35.000Z</time>
      </trkpt>
      <trkpt lat="47.06063" lon="6.00807">
        <ele>459.60000610352</ele>
        <time>2014-11-20T13:13:39.000Z</time>
      </trkpt>
      <trkpt lat="47.06066" lon="6.00808">
        <ele>459</ele>
        <time>2014-11-20T13:13:42.000Z</time>
      </trkpt>
      <trkpt lat="47.0607" lon="6.0081">
        <ele>458.39999389648</ele>
        <time>2014-11-20T13:13:46.000Z</time>
      </trkpt>
      <trkpt lat="47.06072" lon="6.00809">
        <ele>458</ele>
        <time>2014-11-20T13:13:49.000Z</time>
      </trkpt>
      <trkpt lat="47.06081" lon="6.00814">
        <ele>456.39999389648</ele>
        <time>2014-11-20T13:13:55.000Z</time>
      </trkpt>
      <trkpt lat="47.06083" lon="6.00814">
        <ele>456.20001220703</ele>
        <time>2014-11-20T13:13:57.000Z</time>
      </trkpt>
      <trkpt lat="47.06088" lon="6.00816">
        <ele>455.20001220703</ele>
        <time>2014-11-20T13:14:01.000Z</time>
      </trkpt>
      <trkpt lat="47.06095" lon="6.0082">
        <ele>454</ele>
        <time>2014-11-20T13:14:06.000Z</time>
      </trkpt>
      <trkpt lat="47.06096" lon="6.00821">
        <ele>453.79998779297</ele>
        <time>2014-11-20T13:14:07.000Z</time>
      </trkpt>
      <trkpt lat="47.06098" lon="6.00821">
        <ele>453.39999389648</ele>
        <time>2014-11-20T13:14:09.000Z</time>
      </trkpt>
      <trkpt lat="47.06104" lon="6.00824">
        <ele>452.39999389648</ele>
        <time>2014-11-20T13:14:15.000Z</time>
      </trkpt>
      <trkpt lat="47.06105" lon="6.00825">
        <ele>452.20001220703</ele>
        <time>2014-11-20T13:14:16.000Z</time>
      </trkpt>
      <trkpt lat="47.06107" lon="6.00826">
        <ele>452</ele>
        <time>2014-11-20T13:14:18.000Z</time>
      </trkpt>
      <trkpt lat="47.06114" lon="6.00837">
        <ele>452</ele>
        <time>2014-11-20T13:14:24.000Z</time>
      </trkpt>
      <trkpt lat="47.06116" lon="6.00841">
        <ele>452</ele>
        <time>2014-11-20T13:14:27.000Z</time>
      </trkpt>
      <trkpt lat="47.06123" lon="6.00853">
        <ele>452</ele>
        <time>2014-11-20T13:14:34.000Z</time>
      </trkpt>
      <trkpt lat="47.06126" lon="6.00857">
        <ele>452</ele>
        <time>2014-11-20T13:14:37.000Z</time>
      </trkpt>
      <trkpt lat="47.06132" lon="6.00864">
        <ele>451.60000610352</ele>
        <time>2014-11-20T13:14:43.000Z</time>
      </trkpt>
      <trkpt lat="47.06135" lon="6.00868">
        <ele>451.39999389648</ele>
        <time>2014-11-20T13:14:46.000Z</time>
      </trkpt>
      <trkpt lat="47.06143" lon="6.00878">
        <ele>451</ele>
        <time>2014-11-20T13:14:55.000Z</time>
      </trkpt>
      <trkpt lat="47.06145" lon="6.0088">
        <ele>450.79998779297</ele>
        <time>2014-11-20T13:14:58.000Z</time>
      </trkpt>
      <trkpt lat="47.06148" lon="6.00884">
        <ele>450.60000610352</ele>
        <time>2014-11-20T13:15:01.000Z</time>
      </trkpt>
      <trkpt lat="47.06156" lon="6.00892">
        <ele>449.79998779297</ele>
        <time>2014-11-20T13:15:06.000Z</time>
      </trkpt>
      <trkpt lat="47.06161" lon="6.00897">
        <ele>449.60000610352</ele>
        <time>2014-11-20T13:15:10.000Z</time>
      </trkpt>
      <trkpt lat="47.06169" lon="6.00908">
        <ele>449</ele>
        <time>2014-11-20T13:15:18.000Z</time>
      </trkpt>
      <trkpt lat="47.0618" lon="6.00917">
        <ele>447.60000610352</ele>
        <time>2014-11-20T13:15:28.000Z</time>
      </trkpt>
      <trkpt lat="47.06186" lon="6.00924">
        <ele>447.20001220703</ele>
        <time>2014-11-20T13:15:34.000Z</time>
      </trkpt>
      <trkpt lat="47.0619" lon="6.0093">
        <ele>447</ele>
        <time>2014-11-20T13:15:39.000Z</time>
      </trkpt>
      <trkpt lat="47.06192" lon="6.00934">
        <ele>447</ele>
        <time>2014-11-20T13:15:42.000Z</time>
      </trkpt>
      <trkpt lat="47.06197" lon="6.00943">
        <ele>447.20001220703</ele>
        <time>2014-11-20T13:15:48.000Z</time>
      </trkpt>
      <trkpt lat="47.06199" lon="6.00946">
        <ele>447.20001220703</ele>
        <time>2014-11-20T13:15:51.000Z</time>
      </trkpt>
      <trkpt lat="47.06204" lon="6.00953">
        <ele>446.79998779297</ele>
        <time>2014-11-20T13:15:57.000Z</time>
      </trkpt>
      <trkpt lat="47.06208" lon="6.00961">
        <ele>447.20001220703</ele>
        <time>2014-11-20T13:16:02.000Z</time>
      </trkpt>
      <trkpt lat="47.06214" lon="6.00965">
        <ele>446.20001220703</ele>
        <time>2014-11-20T13:16:06.000Z</time>
      </trkpt>
      <trkpt lat="47.06219" lon="6.0097">
        <ele>445.79998779297</ele>
        <time>2014-11-20T13:16:10.000Z</time>
      </trkpt>
      <trkpt lat="47.06223" lon="6.00975">
        <ele>445.39999389648</ele>
        <time>2014-11-20T13:16:14.000Z</time>
      </trkpt>
      <trkpt lat="47.06224" lon="6.00977">
        <ele>445.39999389648</ele>
        <time>2014-11-20T13:16:16.000Z</time>
      </trkpt>
      <trkpt lat="47.06228" lon="6.00983">
        <ele>445.60000610352</ele>
        <time>2014-11-20T13:16:21.000Z</time>
      </trkpt>
      <trkpt lat="47.06232" lon="6.00993">
        <ele>446.20001220703</ele>
        <time>2014-11-20T13:16:27.000Z</time>
      </trkpt>
      <trkpt lat="47.06233" lon="6.00996">
        <ele>446.39999389648</ele>
        <time>2014-11-20T13:16:29.000Z</time>
      </trkpt>
      <trkpt lat="47.06235" lon="6.01003">
        <ele>447</ele>
        <time>2014-11-20T13:16:34.000Z</time>
      </trkpt>
      <trkpt lat="47.06238" lon="6.01007">
        <ele>447</ele>
        <time>2014-11-20T13:16:37.000Z</time>
      </trkpt>
      <trkpt lat="47.06241" lon="6.01013">
        <ele>447.39999389648</ele>
        <time>2014-11-20T13:16:42.000Z</time>
      </trkpt>
      <trkpt lat="47.06242" lon="6.01016">
        <ele>447.60000610352</ele>
        <time>2014-11-20T13:16:44.000Z</time>
      </trkpt>
      <trkpt lat="47.06243" lon="6.01019">
        <ele>447.79998779297</ele>
        <time>2014-11-20T13:16:47.000Z</time>
      </trkpt>
      <trkpt lat="47.06245" lon="6.01026">
        <ele>448.79998779297</ele>
        <time>2014-11-20T13:16:53.000Z</time>
      </trkpt>
      <trkpt lat="47.0625" lon="6.01036">
        <ele>449.39999389648</ele>
        <time>2014-11-20T13:16:59.000Z</time>
      </trkpt>
      <trkpt lat="47.06255" lon="6.01045">
        <ele>449.79998779297</ele>
        <time>2014-11-20T13:17:06.000Z</time>
      </trkpt>
      <trkpt lat="47.06258" lon="6.01049">
        <ele>449.79998779297</ele>
        <time>2014-11-20T13:17:09.000Z</time>
      </trkpt>
      <trkpt lat="47.06259" lon="6.01053">
        <ele>450.20001220703</ele>
        <time>2014-11-20T13:17:12.000Z</time>
      </trkpt>
      <trkpt lat="47.06262" lon="6.01057">
        <ele>450.20001220703</ele>
        <time>2014-11-20T13:17:15.000Z</time>
      </trkpt>
      <trkpt lat="47.06266" lon="6.01062">
        <ele>450.20001220703</ele>
        <time>2014-11-20T13:17:20.000Z</time>
      </trkpt>
      <trkpt lat="47.06271" lon="6.01068">
        <ele>450</ele>
        <time>2014-11-20T13:17:25.000Z</time>
      </trkpt>
      <trkpt lat="47.06277" lon="6.01075">
        <ele>449.79998779297</ele>
        <time>2014-11-20T13:17:31.000Z</time>
      </trkpt>
      <trkpt lat="47.06281" lon="6.01083">
        <ele>450</ele>
        <time>2014-11-20T13:17:36.000Z</time>
      </trkpt>
      <trkpt lat="47.06283" lon="6.01086">
        <ele>450</ele>
        <time>2014-11-20T13:17:39.000Z</time>
      </trkpt>
      <trkpt lat="47.06285" lon="6.01087">
        <ele>449.79998779297</ele>
        <time>2014-11-20T13:17:41.000Z</time>
      </trkpt>
      <trkpt lat="47.06289" lon="6.01095">
        <ele>450</ele>
        <time>2014-11-20T13:17:46.000Z</time>
      </trkpt>
      <trkpt lat="47.06293" lon="6.011">
        <ele>450</ele>
        <time>2014-11-20T13:17:50.000Z</time>
      </trkpt>
      <trkpt lat="47.06297" lon="6.01105">
        <ele>449.79998779297</ele>
        <time>2014-11-20T13:17:54.000Z</time>
      </trkpt>
      <trkpt lat="47.06299" lon="6.01109">
        <ele>450</ele>
        <time>2014-11-20T13:17:58.000Z</time>
      </trkpt>
      <trkpt lat="47.06303" lon="6.01112">
        <ele>449.60000610352</ele>
        <time>2014-11-20T13:18:02.000Z</time>
      </trkpt>
      <trkpt lat="47.06305" lon="6.01115">
        <ele>449.60000610352</ele>
        <time>2014-11-20T13:18:05.000Z</time>
      </trkpt>
      <trkpt lat="47.06312" lon="6.01123">
        <ele>449.20001220703</ele>
        <time>2014-11-20T13:18:11.000Z</time>
      </trkpt>
      <trkpt lat="47.06313" lon="6.01124">
        <ele>449.20001220703</ele>
        <time>2014-11-20T13:18:12.000Z</time>
      </trkpt>
      <trkpt lat="47.06315" lon="6.01128">
        <ele>449.20001220703</ele>
        <time>2014-11-20T13:18:15.000Z</time>
      </trkpt>
      <trkpt lat="47.0632" lon="6.01134">
        <ele>449.20001220703</ele>
        <time>2014-11-20T13:18:20.000Z</time>
      </trkpt>
      <trkpt lat="47.06322" lon="6.01137">
        <ele>449</ele>
        <time>2014-11-20T13:18:22.000Z</time>
      </trkpt>
      <trkpt lat="47.06323" lon="6.01138">
        <ele>449</ele>
        <time>2014-11-20T13:18:23.000Z</time>
      </trkpt>
      <trkpt lat="47.06325" lon="6.01141">
        <ele>449</ele>
        <time>2014-11-20T13:18:25.000Z</time>
      </trkpt>
      <trkpt lat="47.06332" lon="6.01145">
        <ele>448.39999389648</ele>
        <time>2014-11-20T13:18:30.000Z</time>
      </trkpt>
      <trkpt lat="47.06338" lon="6.01154">
        <ele>448.60000610352</ele>
        <time>2014-11-20T13:18:37.000Z</time>
      </trkpt>
      <trkpt lat="47.06338" lon="6.01155">
        <ele>448.60000610352</ele>
        <time>2014-11-20T13:18:38.000Z</time>
      </trkpt>
      <trkpt lat="47.06341" lon="6.01162">
        <ele>449</ele>
        <time>2014-11-20T13:18:42.000Z</time>
      </trkpt>
      <trkpt lat="47.06346" lon="6.01168">
        <ele>449</ele>
        <time>2014-11-20T13:18:47.000Z</time>
      </trkpt>
      <trkpt lat="47.06349" lon="6.01171">
        <ele>448.79998779297</ele>
        <time>2014-11-20T13:18:49.000Z</time>
      </trkpt>
      <trkpt lat="47.06353" lon="6.01175">
        <ele>448.60000610352</ele>
        <time>2014-11-20T13:18:53.000Z</time>
      </trkpt>
      <trkpt lat="47.06356" lon="6.0118">
        <ele>448.60000610352</ele>
        <time>2014-11-20T13:18:58.000Z</time>
      </trkpt>
      <trkpt lat="47.0636" lon="6.01186">
        <ele>448.79998779297</ele>
        <time>2014-11-20T13:19:03.000Z</time>
      </trkpt>
      <trkpt lat="47.06361" lon="6.01187">
        <ele>448.79998779297</ele>
        <time>2014-11-20T13:19:04.000Z</time>
      </trkpt>
      <trkpt lat="47.06363" lon="6.01188">
        <ele>448.60000610352</ele>
        <time>2014-11-20T13:19:06.000Z</time>
      </trkpt>
      <trkpt lat="47.06368" lon="6.01192">
        <ele>448.20001220703</ele>
        <time>2014-11-20T13:19:10.000Z</time>
      </trkpt>
      <trkpt lat="47.06371" lon="6.01194">
        <ele>448</ele>
        <time>2014-11-20T13:19:12.000Z</time>
      </trkpt>
      <trkpt lat="47.06372" lon="6.01194">
        <ele>447.79998779297</ele>
        <time>2014-11-20T13:19:14.000Z</time>
      </trkpt>
      <trkpt lat="47.06377" lon="6.012">
        <ele>447.39999389648</ele>
        <time>2014-11-20T13:19:20.000Z</time>
      </trkpt>
      <trkpt lat="47.06382" lon="6.01205">
        <ele>447.39999389648</ele>
        <time>2014-11-20T13:19:25.000Z</time>
      </trkpt>
      <trkpt lat="47.06384" lon="6.01206">
        <ele>447.20001220703</ele>
        <time>2014-11-20T13:19:26.000Z</time>
      </trkpt>
      <trkpt lat="47.06387" lon="6.01209">
        <ele>446.79998779297</ele>
        <time>2014-11-20T13:19:30.000Z</time>
      </trkpt>
      <trkpt lat="47.06392" lon="6.01213">
        <ele>446.79998779297</ele>
        <time>2014-11-20T13:19:35.000Z</time>
      </trkpt>
      <trkpt lat="47.06393" lon="6.01215">
        <ele>446.60000610352</ele>
        <time>2014-11-20T13:19:39.000Z</time>
      </trkpt>
      <trkpt lat="47.06396" lon="6.01217">
        <ele>446.60000610352</ele>
        <time>2014-11-20T13:19:44.000Z</time>
      </trkpt>
      <trkpt lat="47.06397" lon="6.01218">
        <ele>446.39999389648</ele>
        <time>2014-11-20T13:19:45.000Z</time>
      </trkpt>
      <trkpt lat="47.06402" lon="6.01224">
        <ele>446.20001220703</ele>
        <time>2014-11-20T13:19:49.000Z</time>
      </trkpt>
      <trkpt lat="47.06403" lon="6.01224">
        <ele>446.20001220703</ele>
        <time>2014-11-20T13:19:50.000Z</time>
      </trkpt>
      <trkpt lat="47.06408" lon="6.01229">
        <ele>445.60000610352</ele>
        <time>2014-11-20T13:19:55.000Z</time>
      </trkpt>
      <trkpt lat="47.06409" lon="6.0123">
        <ele>445.60000610352</ele>
        <time>2014-11-20T13:19:56.000Z</time>
      </trkpt>
      <trkpt lat="47.06414" lon="6.01235">
        <ele>445.20001220703</ele>
        <time>2014-11-20T13:20:01.000Z</time>
      </trkpt>
      <trkpt lat="47.0642" lon="6.0124">
        <ele>444.79998779297</ele>
        <time>2014-11-20T13:20:06.000Z</time>
      </trkpt>
      <trkpt lat="47.06426" lon="6.01246">
        <ele>444.20001220703</ele>
        <time>2014-11-20T13:20:12.000Z</time>
      </trkpt>
      <trkpt lat="47.06428" lon="6.01247">
        <ele>444</ele>
        <time>2014-11-20T13:20:15.000Z</time>
      </trkpt>
      <trkpt lat="47.06435" lon="6.01251">
        <ele>443.20001220703</ele>
        <time>2014-11-20T13:20:20.000Z</time>
      </trkpt>
      <trkpt lat="47.06439" lon="6.01254">
        <ele>442.79998779297</ele>
        <time>2014-11-20T13:20:23.000Z</time>
      </trkpt>
      <trkpt lat="47.06446" lon="6.01259">
        <ele>442.20001220703</ele>
        <time>2014-11-20T13:20:29.000Z</time>
      </trkpt>
      <trkpt lat="47.06447" lon="6.01262">
        <ele>442.20001220703</ele>
        <time>2014-11-20T13:20:31.000Z</time>
      </trkpt>
      <trkpt lat="47.06457" lon="6.01267">
        <ele>441</ele>
        <time>2014-11-20T13:20:37.000Z</time>
      </trkpt>
      <trkpt lat="47.06463" lon="6.01272">
        <ele>440.60000610352</ele>
        <time>2014-11-20T13:20:41.000Z</time>
      </trkpt>
      <trkpt lat="47.06467" lon="6.01276">
        <ele>440.20001220703</ele>
        <time>2014-11-20T13:20:46.000Z</time>
      </trkpt>
      <trkpt lat="47.06477" lon="6.01286">
        <ele>439.39999389648</ele>
        <time>2014-11-20T13:20:54.000Z</time>
      </trkpt>
      <trkpt lat="47.06484" lon="6.01292">
        <ele>439</ele>
        <time>2014-11-20T13:20:59.000Z</time>
      </trkpt>
      <trkpt lat="47.06494" lon="6.01302">
        <ele>438.20001220703</ele>
        <time>2014-11-20T13:21:09.000Z</time>
      </trkpt>
      <trkpt lat="47.06495" lon="6.01303">
        <ele>438.20001220703</ele>
        <time>2014-11-20T13:21:10.000Z</time>
      </trkpt>
      <trkpt lat="47.06502" lon="6.01308">
        <ele>438.20001220703</ele>
        <time>2014-11-20T13:21:18.000Z</time>
      </trkpt>
      <trkpt lat="47.06503" lon="6.01309">
        <ele>438.20001220703</ele>
        <time>2014-11-20T13:21:19.000Z</time>
      </trkpt>
      <trkpt lat="47.06505" lon="6.01313">
        <ele>438.39999389648</ele>
        <time>2014-11-20T13:21:27.000Z</time>
      </trkpt>
      <trkpt lat="47.06507" lon="6.01321">
        <ele>439</ele>
        <time>2014-11-20T13:21:46.000Z</time>
      </trkpt>
      <trkpt lat="47.0651" lon="6.01329">
        <ele>439.60000610352</ele>
        <time>2014-11-20T13:21:51.000Z</time>
      </trkpt>
      <trkpt lat="47.0651" lon="6.01331">
        <ele>439.60000610352</ele>
        <time>2014-11-20T13:21:52.000Z</time>
      </trkpt>
      <trkpt lat="47.06513" lon="6.01337">
        <ele>440</ele>
        <time>2014-11-20T13:21:57.000Z</time>
      </trkpt>
      <trkpt lat="47.06515" lon="6.01341">
        <ele>440.20001220703</ele>
        <time>2014-11-20T13:21:59.000Z</time>
      </trkpt>
      <trkpt lat="47.06517" lon="6.01348">
        <ele>440.79998779297</ele>
        <time>2014-11-20T13:22:04.000Z</time>
      </trkpt>
      <trkpt lat="47.06518" lon="6.01352">
        <ele>441</ele>
        <time>2014-11-20T13:22:07.000Z</time>
      </trkpt>
      <trkpt lat="47.06519" lon="6.01356">
        <ele>441.39999389648</ele>
        <time>2014-11-20T13:22:15.000Z</time>
      </trkpt>
      <trkpt lat="47.06513" lon="6.01356">
        <ele>441.79998779297</ele>
        <time>2014-11-20T13:23:02.000Z</time>
      </trkpt>
      <trkpt lat="47.06513" lon="6.01351">
        <ele>441.39999389648</ele>
        <time>2014-11-20T13:23:09.000Z</time>
      </trkpt>
      <trkpt lat="47.06512" lon="6.01349">
        <ele>441.20001220703</ele>
        <time>2014-11-20T13:23:16.000Z</time>
      </trkpt>
      <trkpt lat="47.06511" lon="6.01345">
        <ele>441</ele>
        <time>2014-11-20T13:23:20.000Z</time>
      </trkpt>
      <trkpt lat="47.06507" lon="6.01335">
        <ele>440.39999389648</ele>
        <time>2014-11-20T13:23:28.000Z</time>
      </trkpt>
      <trkpt lat="47.06506" lon="6.01333">
        <ele>440.20001220703</ele>
        <time>2014-11-20T13:23:29.000Z</time>
      </trkpt>
      <trkpt lat="47.06503" lon="6.01324">
        <ele>439.60000610352</ele>
        <time>2014-11-20T13:23:36.000Z</time>
      </trkpt>
      <trkpt lat="47.06503" lon="6.01323">
        <ele>439.60000610352</ele>
        <time>2014-11-20T13:23:37.000Z</time>
      </trkpt>
      <trkpt lat="47.06504" lon="6.01317">
        <ele>438.79998779297</ele>
        <time>2014-11-20T13:23:43.000Z</time>
      </trkpt>
      <trkpt lat="47.06505" lon="6.01324">
        <ele>439.39999389648</ele>
        <time>2014-11-20T13:24:47.000Z</time>
      </trkpt>
      <trkpt lat="47.06511" lon="6.01332">
        <ele>439.60000610352</ele>
        <time>2014-11-20T13:24:56.000Z</time>
      </trkpt>
      <trkpt lat="47.06516" lon="6.01337">
        <ele>439.79998779297</ele>
        <time>2014-11-20T13:25:02.000Z</time>
      </trkpt>
      <trkpt lat="47.06522" lon="6.01343">
        <ele>440</ele>
        <time>2014-11-20T13:25:09.000Z</time>
      </trkpt>
      <trkpt lat="47.06527" lon="6.01351">
        <ele>440.20001220703</ele>
        <time>2014-11-20T13:25:17.000Z</time>
      </trkpt>
      <trkpt lat="47.06534" lon="6.0136">
        <ele>440.39999389648</ele>
        <time>2014-11-20T13:25:26.000Z</time>
      </trkpt>
      <trkpt lat="47.06548" lon="6.01375">
        <ele>440.60000610352</ele>
        <time>2014-11-20T13:25:40.000Z</time>
      </trkpt>
      <trkpt lat="47.0655" lon="6.01376">
        <ele>440.60000610352</ele>
        <time>2014-11-20T13:25:41.000Z</time>
      </trkpt>
      <trkpt lat="47.06556" lon="6.01383">
        <ele>440.79998779297</ele>
        <time>2014-11-20T13:25:48.000Z</time>
      </trkpt>
      <trkpt lat="47.06559" lon="6.01385">
        <ele>440.79998779297</ele>
        <time>2014-11-20T13:25:51.000Z</time>
      </trkpt>
      <trkpt lat="47.06565" lon="6.01392">
        <ele>441</ele>
        <time>2014-11-20T13:25:58.000Z</time>
      </trkpt>
      <trkpt lat="47.06566" lon="6.01394">
        <ele>441</ele>
        <time>2014-11-20T13:26:00.000Z</time>
      </trkpt>
      <trkpt lat="47.06572" lon="6.014">
        <ele>441</ele>
        <time>2014-11-20T13:26:06.000Z</time>
      </trkpt>
      <trkpt lat="47.06576" lon="6.01403">
        <ele>441</ele>
        <time>2014-11-20T13:26:09.000Z</time>
      </trkpt>
      <trkpt lat="47.06578" lon="6.01405">
        <ele>441</ele>
        <time>2014-11-20T13:26:11.000Z</time>
      </trkpt>
      <trkpt lat="47.06596" lon="6.01421">
        <ele>440.39999389648</ele>
        <time>2014-11-20T13:26:27.000Z</time>
      </trkpt>
      <trkpt lat="47.06601" lon="6.01426">
        <ele>440.20001220703</ele>
        <time>2014-11-20T13:26:31.000Z</time>
      </trkpt>
      <trkpt lat="47.06606" lon="6.0143">
        <ele>440</ele>
        <time>2014-11-20T13:26:35.000Z</time>
      </trkpt>
      <trkpt lat="47.06614" lon="6.01438">
        <ele>439.79998779297</ele>
        <time>2014-11-20T13:26:43.000Z</time>
      </trkpt>
      <trkpt lat="47.06622" lon="6.01445">
        <ele>439.60000610352</ele>
        <time>2014-11-20T13:26:49.000Z</time>
      </trkpt>
      <trkpt lat="47.06625" lon="6.0145">
        <ele>439.60000610352</ele>
        <time>2014-11-20T13:26:53.000Z</time>
      </trkpt>
      <trkpt lat="47.06631" lon="6.01457">
        <ele>439.60000610352</ele>
        <time>2014-11-20T13:27:00.000Z</time>
      </trkpt>
      <trkpt lat="47.06631" lon="6.01459">
        <ele>439.60000610352</ele>
        <time>2014-11-20T13:27:01.000Z</time>
      </trkpt>
      <trkpt lat="47.06635" lon="6.01464">
        <ele>439.60000610352</ele>
        <time>2014-11-20T13:27:06.000Z</time>
      </trkpt>
      <trkpt lat="47.06639" lon="6.01468">
        <ele>439.60000610352</ele>
        <time>2014-11-20T13:27:11.000Z</time>
      </trkpt>
      <trkpt lat="47.06643" lon="6.01474">
        <ele>439.60000610352</ele>
        <time>2014-11-20T13:27:16.000Z</time>
      </trkpt>
      <trkpt lat="47.06648" lon="6.01483">
        <ele>439.60000610352</ele>
        <time>2014-11-20T13:27:23.000Z</time>
      </trkpt>
      <trkpt lat="47.06657" lon="6.01491">
        <ele>439.20001220703</ele>
        <time>2014-11-20T13:27:30.000Z</time>
      </trkpt>
      <trkpt lat="47.06663" lon="6.015">
        <ele>439</ele>
        <time>2014-11-20T13:27:36.000Z</time>
      </trkpt>
      <trkpt lat="47.06671" lon="6.01508">
        <ele>438.39999389648</ele>
        <time>2014-11-20T13:27:43.000Z</time>
      </trkpt>
      <trkpt lat="47.06672" lon="6.01509">
        <ele>438.20001220703</ele>
        <time>2014-11-20T13:27:44.000Z</time>
      </trkpt>
      <trkpt lat="47.06677" lon="6.01514">
        <ele>437.79998779297</ele>
        <time>2014-11-20T13:27:49.000Z</time>
      </trkpt>
      <trkpt lat="47.06683" lon="6.01523">
        <ele>437.60000610352</ele>
        <time>2014-11-20T13:27:55.000Z</time>
      </trkpt>
      <trkpt lat="47.0669" lon="6.0153">
        <ele>437</ele>
        <time>2014-11-20T13:28:01.000Z</time>
      </trkpt>
      <trkpt lat="47.06695" lon="6.01536">
        <ele>436.60000610352</ele>
        <time>2014-11-20T13:28:05.000Z</time>
      </trkpt>
      <trkpt lat="47.06697" lon="6.01538">
        <ele>436.39999389648</ele>
        <time>2014-11-20T13:28:07.000Z</time>
      </trkpt>
      <trkpt lat="47.06703" lon="6.01548">
        <ele>436.20001220703</ele>
        <time>2014-11-20T13:28:14.000Z</time>
      </trkpt>
      <trkpt lat="47.06705" lon="6.0155">
        <ele>436</ele>
        <time>2014-11-20T13:28:16.000Z</time>
      </trkpt>
      <trkpt lat="47.0671" lon="6.01559">
        <ele>435.60000610352</ele>
        <time>2014-11-20T13:28:23.000Z</time>
      </trkpt>
      <trkpt lat="47.06716" lon="6.0157">
        <ele>435.79998779297</ele>
        <time>2014-11-20T13:28:31.000Z</time>
      </trkpt>
      <trkpt lat="47.06721" lon="6.01579">
        <ele>435.79998779297</ele>
        <time>2014-11-20T13:28:38.000Z</time>
      </trkpt>
      <trkpt lat="47.06727" lon="6.01588">
        <ele>435.79998779297</ele>
        <time>2014-11-20T13:28:46.000Z</time>
      </trkpt>
      <trkpt lat="47.06736" lon="6.016">
        <ele>435.39999389648</ele>
        <time>2014-11-20T13:28:55.000Z</time>
      </trkpt>
      <trkpt lat="47.06743" lon="6.0161">
        <ele>435.39999389648</ele>
        <time>2014-11-20T13:29:04.000Z</time>
      </trkpt>
      <trkpt lat="47.06745" lon="6.01614">
        <ele>435.20001220703</ele>
        <time>2014-11-20T13:29:07.000Z</time>
      </trkpt>
      <trkpt lat="47.06752" lon="6.01622">
        <ele>435</ele>
        <time>2014-11-20T13:29:14.000Z</time>
      </trkpt>
      <trkpt lat="47.06755" lon="6.01629">
        <ele>435.20001220703</ele>
        <time>2014-11-20T13:29:21.000Z</time>
      </trkpt>
      <trkpt lat="47.06756" lon="6.0163">
        <ele>435.20001220703</ele>
        <time>2014-11-20T13:29:22.000Z</time>
      </trkpt>
      <trkpt lat="47.06762" lon="6.01641">
        <ele>435.20001220703</ele>
        <time>2014-11-20T13:29:31.000Z</time>
      </trkpt>
      <trkpt lat="47.06768" lon="6.01652">
        <ele>434.20001220703</ele>
        <time>2014-11-20T13:29:39.000Z</time>
      </trkpt>
      <trkpt lat="47.06769" lon="6.01653">
        <ele>434</ele>
        <time>2014-11-20T13:29:40.000Z</time>
      </trkpt>
      <trkpt lat="47.06772" lon="6.01658">
        <ele>433.60000610352</ele>
        <time>2014-11-20T13:29:44.000Z</time>
      </trkpt>
      <trkpt lat="47.06778" lon="6.01665">
        <ele>432.60000610352</ele>
        <time>2014-11-20T13:29:49.000Z</time>
      </trkpt>
      <trkpt lat="47.06783" lon="6.0167">
        <ele>432</ele>
        <time>2014-11-20T13:29:53.000Z</time>
      </trkpt>
      <trkpt lat="47.06788" lon="6.01679">
        <ele>431</ele>
        <time>2014-11-20T13:30:00.000Z</time>
      </trkpt>
      <trkpt lat="47.06793" lon="6.01685">
        <ele>430.20001220703</ele>
        <time>2014-11-20T13:30:07.000Z</time>
      </trkpt>
      <trkpt lat="47.06795" lon="6.0169">
        <ele>429.79998779297</ele>
        <time>2014-11-20T13:30:11.000Z</time>
      </trkpt>
      <trkpt lat="47.06801" lon="6.01697">
        <ele>429</ele>
        <time>2014-11-20T13:30:18.000Z</time>
      </trkpt>
      <trkpt lat="47.06805" lon="6.01703">
        <ele>428.39999389648</ele>
        <time>2014-11-20T13:30:24.000Z</time>
      </trkpt>
      <trkpt lat="47.0681" lon="6.01709">
        <ele>427.60000610352</ele>
        <time>2014-11-20T13:30:30.000Z</time>
      </trkpt>
      <trkpt lat="47.06815" lon="6.01715">
        <ele>426.79998779297</ele>
        <time>2014-11-20T13:30:35.000Z</time>
      </trkpt>
      <trkpt lat="47.0682" lon="6.01721">
        <ele>425.79998779297</ele>
        <time>2014-11-20T13:30:41.000Z</time>
      </trkpt>
      <trkpt lat="47.06829" lon="6.0173">
        <ele>422.79998779297</ele>
        <time>2014-11-20T13:30:49.000Z</time>
      </trkpt>
      <trkpt lat="47.06836" lon="6.01741">
        <ele>416</ele>
        <time>2014-11-20T13:30:58.000Z</time>
      </trkpt>
      <trkpt lat="47.06838" lon="6.01742">
        <ele>415</ele>
        <time>2014-11-20T13:30:59.000Z</time>
      </trkpt>
      <trkpt lat="47.06839" lon="6.01746">
        <ele>413.20001220703</ele>
        <time>2014-11-20T13:31:02.000Z</time>
      </trkpt>
      <trkpt lat="47.06842" lon="6.01751">
        <ele>410.60000610352</ele>
        <time>2014-11-20T13:31:06.000Z</time>
      </trkpt>
      <trkpt lat="47.06844" lon="6.01756">
        <ele>409</ele>
        <time>2014-11-20T13:31:10.000Z</time>
      </trkpt>
      <trkpt lat="47.06844" lon="6.01758">
        <ele>408.20001220703</ele>
        <time>2014-11-20T13:31:12.000Z</time>
      </trkpt>
      <trkpt lat="47.0685" lon="6.01768">
        <ele>402.79998779297</ele>
        <time>2014-11-20T13:31:20.000Z</time>
      </trkpt>
      <trkpt lat="47.06855" lon="6.01773">
        <ele>399</ele>
        <time>2014-11-20T13:31:27.000Z</time>
      </trkpt>
      <trkpt lat="47.0686" lon="6.01779">
        <ele>395</ele>
        <time>2014-11-20T13:31:34.000Z</time>
      </trkpt>
      <trkpt lat="47.06864" lon="6.0178">
        <ele>392</ele>
        <time>2014-11-20T13:31:42.000Z</time>
      </trkpt>
      <trkpt lat="47.06869" lon="6.0178">
        <ele>389.20001220703</ele>
        <time>2014-11-20T13:31:57.000Z</time>
      </trkpt>
      <trkpt lat="47.06869" lon="6.01781">
        <ele>388.60000610352</ele>
        <time>2014-11-20T13:32:22.000Z</time>
      </trkpt>
      <trkpt lat="47.06871" lon="6.01782">
        <ele>387.39999389648</ele>
        <time>2014-11-20T13:33:02.000Z</time>
      </trkpt>
      <trkpt lat="47.0687" lon="6.01785">
        <ele>387.60000610352</ele>
        <time>2014-11-20T13:33:34.000Z</time>
      </trkpt>
      <trkpt lat="47.0687" lon="6.01786">
        <ele>387.39999389648</ele>
        <time>2014-11-20T13:33:43.000Z</time>
      </trkpt>
      <trkpt lat="47.06873" lon="6.01785">
        <ele>385.79998779297</ele>
        <time>2014-11-20T13:35:33.000Z</time>
      </trkpt>
      <trkpt lat="47.06872" lon="6.01785">
        <ele>386.20001220703</ele>
        <time>2014-11-20T13:35:44.000Z</time>
      </trkpt>
      <trkpt lat="47.0687" lon="6.01783">
        <ele>388</ele>
        <time>2014-11-20T13:35:49.000Z</time>
      </trkpt>
      <trkpt lat="47.06866" lon="6.01783">
        <ele>390.20001220703</ele>
        <time>2014-11-20T13:35:59.000Z</time>
      </trkpt>
      <trkpt lat="47.06863" lon="6.01784">
        <ele>392.20001220703</ele>
        <time>2014-11-20T13:36:05.000Z</time>
      </trkpt>
      <trkpt lat="47.06859" lon="6.01781">
        <ele>394.79998779297</ele>
        <time>2014-11-20T13:36:10.000Z</time>
      </trkpt>
      <trkpt lat="47.06855" lon="6.01777">
        <ele>398.39999389648</ele>
        <time>2014-11-20T13:36:17.000Z</time>
      </trkpt>
      <trkpt lat="47.06852" lon="6.01775">
        <ele>400.39999389648</ele>
        <time>2014-11-20T13:36:20.000Z</time>
      </trkpt>
      <trkpt lat="47.06849" lon="6.01768">
        <ele>403.79998779297</ele>
        <time>2014-11-20T13:36:26.000Z</time>
      </trkpt>
      <trkpt lat="47.06846" lon="6.01763">
        <ele>406.20001220703</ele>
        <time>2014-11-20T13:36:30.000Z</time>
      </trkpt>
      <trkpt lat="47.0684" lon="6.01752">
        <ele>411.60000610352</ele>
        <time>2014-11-20T13:36:37.000Z</time>
      </trkpt>
      <trkpt lat="47.06832" lon="6.01745">
        <ele>418.39999389648</ele>
        <time>2014-11-20T13:36:45.000Z</time>
      </trkpt>
      <trkpt lat="47.0683" lon="6.01742">
        <ele>420</ele>
        <time>2014-11-20T13:36:47.000Z</time>
      </trkpt>
      <trkpt lat="47.06822" lon="6.01733">
        <ele>424</ele>
        <time>2014-11-20T13:36:55.000Z</time>
      </trkpt>
      <trkpt lat="47.06816" lon="6.01726">
        <ele>425.60000610352</ele>
        <time>2014-11-20T13:37:01.000Z</time>
      </trkpt>
      <trkpt lat="47.06814" lon="6.0172">
        <ele>426.20001220703</ele>
        <time>2014-11-20T13:37:06.000Z</time>
      </trkpt>
      <trkpt lat="47.06817" lon="6.01717">
        <ele>426.39999389648</ele>
        <time>2014-11-20T13:37:13.000Z</time>
      </trkpt>
      <trkpt lat="47.06817" lon="6.01717">
        <ele>426.39999389648</ele>
        <time>2014-11-20T13:37:20.000Z</time>
      </trkpt>
      <trkpt lat="47.06818" lon="6.01716">
        <ele>426.20001220703</ele>
        <time>2014-11-20T13:37:29.000Z</time>
      </trkpt>
      <trkpt lat="47.06821" lon="6.01712">
        <ele>425.79998779297</ele>
        <time>2014-11-20T13:37:35.000Z</time>
      </trkpt>
      <trkpt lat="47.06822" lon="6.01711">
        <ele>425.79998779297</ele>
        <time>2014-11-20T13:37:36.000Z</time>
      </trkpt>
      <trkpt lat="47.06825" lon="6.01706">
        <ele>425.39999389648</ele>
        <time>2014-11-20T13:37:41.000Z</time>
      </trkpt>
      <trkpt lat="47.06828" lon="6.01702">
        <ele>424.60000610352</ele>
        <time>2014-11-20T13:37:48.000Z</time>
      </trkpt>
      <trkpt lat="47.06831" lon="6.01696">
        <ele>422.60000610352</ele>
        <time>2014-11-20T13:37:54.000Z</time>
      </trkpt>
      <trkpt lat="47.06832" lon="6.01696">
        <ele>422.20001220703</ele>
        <time>2014-11-20T13:37:55.000Z</time>
      </trkpt>
      <trkpt lat="47.06836" lon="6.01692">
        <ele>420</ele>
        <time>2014-11-20T13:38:01.000Z</time>
      </trkpt>
      <trkpt lat="47.06841" lon="6.01689">
        <ele>417.79998779297</ele>
        <time>2014-11-20T13:38:09.000Z</time>
      </trkpt>
      <trkpt lat="47.06843" lon="6.01685">
        <ele>416.79998779297</ele>
        <time>2014-11-20T13:38:12.000Z</time>
      </trkpt>
      <trkpt lat="47.06846" lon="6.01679">
        <ele>415</ele>
        <time>2014-11-20T13:38:17.000Z</time>
      </trkpt>
      <trkpt lat="47.06847" lon="6.01678">
        <ele>414.60000610352</ele>
        <time>2014-11-20T13:38:19.000Z</time>
      </trkpt>
      <trkpt lat="47.06848" lon="6.01674">
        <ele>414.39999389648</ele>
        <time>2014-11-20T13:38:23.000Z</time>
      </trkpt>
      <trkpt lat="47.06847" lon="6.01669">
        <ele>414.60000610352</ele>
        <time>2014-11-20T13:38:29.000Z</time>
      </trkpt>
      <trkpt lat="47.06846" lon="6.01665">
        <ele>415.20001220703</ele>
        <time>2014-11-20T13:38:32.000Z</time>
      </trkpt>
      <trkpt lat="47.06846" lon="6.0166">
        <ele>415.79998779297</ele>
        <time>2014-11-20T13:38:36.000Z</time>
      </trkpt>
      <trkpt lat="47.06846" lon="6.01658">
        <ele>416.20001220703</ele>
        <time>2014-11-20T13:38:38.000Z</time>
      </trkpt>
      <trkpt lat="47.06845" lon="6.01652">
        <ele>418.39999389648</ele>
        <time>2014-11-20T13:38:44.000Z</time>
      </trkpt>
      <trkpt lat="47.06845" lon="6.01646">
        <ele>419.79998779297</ele>
        <time>2014-11-20T13:38:49.000Z</time>
      </trkpt>
      <trkpt lat="47.06847" lon="6.01638">
        <ele>420</ele>
        <time>2014-11-20T13:38:56.000Z</time>
      </trkpt>
      <trkpt lat="47.06847" lon="6.01632">
        <ele>419.60000610352</ele>
        <time>2014-11-20T13:39:00.000Z</time>
      </trkpt>
      <trkpt lat="47.06846" lon="6.01626">
        <ele>419.39999389648</ele>
        <time>2014-11-20T13:39:04.000Z</time>
      </trkpt>
      <trkpt lat="47.06847" lon="6.01622">
        <ele>419</ele>
        <time>2014-11-20T13:39:06.000Z</time>
      </trkpt>
      <trkpt lat="47.06849" lon="6.01616">
        <ele>417.79998779297</ele>
        <time>2014-11-20T13:39:11.000Z</time>
      </trkpt>
      <trkpt lat="47.0685" lon="6.01613">
        <ele>417.39999389648</ele>
        <time>2014-11-20T13:39:13.000Z</time>
      </trkpt>
      <trkpt lat="47.06851" lon="6.01611">
        <ele>417</ele>
        <time>2014-11-20T13:39:15.000Z</time>
      </trkpt>
      <trkpt lat="47.06855" lon="6.01604">
        <ele>415.39999389648</ele>
        <time>2014-11-20T13:39:20.000Z</time>
      </trkpt>
      <trkpt lat="47.06855" lon="6.01603">
        <ele>415.20001220703</ele>
        <time>2014-11-20T13:39:22.000Z</time>
      </trkpt>
      <trkpt lat="47.06856" lon="6.016">
        <ele>414.79998779297</ele>
        <time>2014-11-20T13:39:23.000Z</time>
      </trkpt>
      <trkpt lat="47.06856" lon="6.01597">
        <ele>414.60000610352</ele>
        <time>2014-11-20T13:39:25.000Z</time>
      </trkpt>
      <trkpt lat="47.06858" lon="6.0159">
        <ele>413.39999389648</ele>
        <time>2014-11-20T13:39:31.000Z</time>
      </trkpt>
      <trkpt lat="47.06859" lon="6.01589">
        <ele>413.39999389648</ele>
        <time>2014-11-20T13:39:32.000Z</time>
      </trkpt>
      <trkpt lat="47.06861" lon="6.01584">
        <ele>412.79998779297</ele>
        <time>2014-11-20T13:39:35.000Z</time>
      </trkpt>
      <trkpt lat="47.06868" lon="6.01579">
        <ele>411.39999389648</ele>
        <time>2014-11-20T13:39:41.000Z</time>
      </trkpt>
      <trkpt lat="47.06872" lon="6.01575">
        <ele>410.60000610352</ele>
        <time>2014-11-20T13:39:44.000Z</time>
      </trkpt>
      <trkpt lat="47.06874" lon="6.01574">
        <ele>410.20001220703</ele>
        <time>2014-11-20T13:39:46.000Z</time>
      </trkpt>
      <trkpt lat="47.06876" lon="6.01574">
        <ele>409.79998779297</ele>
        <time>2014-11-20T13:39:48.000Z</time>
      </trkpt>
      <trkpt lat="47.0688" lon="6.01569">
        <ele>409</ele>
        <time>2014-11-20T13:39:52.000Z</time>
      </trkpt>
      <trkpt lat="47.06881" lon="6.01566">
        <ele>409</ele>
        <time>2014-11-20T13:39:54.000Z</time>
      </trkpt>
      <trkpt lat="47.06887" lon="6.01558">
        <ele>407.60000610352</ele>
        <time>2014-11-20T13:40:00.000Z</time>
      </trkpt>
      <trkpt lat="47.06888" lon="6.01557">
        <ele>407.20001220703</ele>
        <time>2014-11-20T13:40:01.000Z</time>
      </trkpt>
      <trkpt lat="47.06889" lon="6.01555">
        <ele>406.79998779297</ele>
        <time>2014-11-20T13:40:03.000Z</time>
      </trkpt>
      <trkpt lat="47.06893" lon="6.01552">
        <ele>405.79998779297</ele>
        <time>2014-11-20T13:40:07.000Z</time>
      </trkpt>
      <trkpt lat="47.06898" lon="6.01546">
        <ele>404.20001220703</ele>
        <time>2014-11-20T13:40:14.000Z</time>
      </trkpt>
      <trkpt lat="47.069" lon="6.01542">
        <ele>403.60000610352</ele>
        <time>2014-11-20T13:40:18.000Z</time>
      </trkpt>
      <trkpt lat="47.06906" lon="6.01541">
        <ele>402.60000610352</ele>
        <time>2014-11-20T13:40:23.000Z</time>
      </trkpt>
      <trkpt lat="47.06907" lon="6.01541">
        <ele>402.39999389648</ele>
        <time>2014-11-20T13:40:24.000Z</time>
      </trkpt>
      <trkpt lat="47.06909" lon="6.01539">
        <ele>401.79998779297</ele>
        <time>2014-11-20T13:40:28.000Z</time>
      </trkpt>
      <trkpt lat="47.0691" lon="6.01537">
        <ele>401.39999389648</ele>
        <time>2014-11-20T13:40:29.000Z</time>
      </trkpt>
      <trkpt lat="47.06917" lon="6.01531">
        <ele>397.79998779297</ele>
        <time>2014-11-20T13:40:35.000Z</time>
      </trkpt>
      <trkpt lat="47.06919" lon="6.0153">
        <ele>396.79998779297</ele>
        <time>2014-11-20T13:40:37.000Z</time>
      </trkpt>
      <trkpt lat="47.06926" lon="6.01523">
        <ele>393.20001220703</ele>
        <time>2014-11-20T13:40:43.000Z</time>
      </trkpt>
      <trkpt lat="47.06926" lon="6.01522">
        <ele>392.79998779297</ele>
        <time>2014-11-20T13:40:44.000Z</time>
      </trkpt>
      <trkpt lat="47.06927" lon="6.01521">
        <ele>392.60000610352</ele>
        <time>2014-11-20T13:40:45.000Z</time>
      </trkpt>
      <trkpt lat="47.0693" lon="6.01513">
        <ele>390.20001220703</ele>
        <time>2014-11-20T13:40:51.000Z</time>
      </trkpt>
      <trkpt lat="47.06931" lon="6.01512">
        <ele>390</ele>
        <time>2014-11-20T13:40:52.000Z</time>
      </trkpt>
      <trkpt lat="47.06935" lon="6.01505">
        <ele>387.39999389648</ele>
        <time>2014-11-20T13:40:58.000Z</time>
      </trkpt>
      <trkpt lat="47.06937" lon="6.01503">
        <ele>386.20001220703</ele>
        <time>2014-11-20T13:41:00.000Z</time>
      </trkpt>
      <trkpt lat="47.0694" lon="6.01501">
        <ele>385.60000610352</ele>
        <time>2014-11-20T13:41:04.000Z</time>
      </trkpt>
      <trkpt lat="47.06944" lon="6.01493">
        <ele>385</ele>
        <time>2014-11-20T13:41:09.000Z</time>
      </trkpt>
      <trkpt lat="47.06948" lon="6.01485">
        <ele>384.39999389648</ele>
        <time>2014-11-20T13:41:14.000Z</time>
      </trkpt>
      <trkpt lat="47.06949" lon="6.01484">
        <ele>384</ele>
        <time>2014-11-20T13:41:15.000Z</time>
      </trkpt>
      <trkpt lat="47.0695" lon="6.01483">
        <ele>383.79998779297</ele>
        <time>2014-11-20T13:41:16.000Z</time>
      </trkpt>
      <trkpt lat="47.06953" lon="6.0148">
        <ele>383</ele>
        <time>2014-11-20T13:41:20.000Z</time>
      </trkpt>
      <trkpt lat="47.06954" lon="6.01475">
        <ele>383</ele>
        <time>2014-11-20T13:41:24.000Z</time>
      </trkpt>
      <trkpt lat="47.06955" lon="6.01472">
        <ele>382.60000610352</ele>
        <time>2014-11-20T13:41:26.000Z</time>
      </trkpt>
      <trkpt lat="47.06954" lon="6.01457">
        <ele>382.60000610352</ele>
        <time>2014-11-20T13:41:36.000Z</time>
      </trkpt>
      <trkpt lat="47.06953" lon="6.0145">
        <ele>382.60000610352</ele>
        <time>2014-11-20T13:41:41.000Z</time>
      </trkpt>
      <trkpt lat="47.06952" lon="6.01442">
        <ele>382.39999389648</ele>
        <time>2014-11-20T13:41:46.000Z</time>
      </trkpt>
      <trkpt lat="47.06951" lon="6.01439">
        <ele>382.60000610352</ele>
        <time>2014-11-20T13:41:48.000Z</time>
      </trkpt>
      <trkpt lat="47.06951" lon="6.01431">
        <ele>382.20001220703</ele>
        <time>2014-11-20T13:41:52.000Z</time>
      </trkpt>
      <trkpt lat="47.06951" lon="6.01417">
        <ele>381.20001220703</ele>
        <time>2014-11-20T13:41:59.000Z</time>
      </trkpt>
      <trkpt lat="47.0695" lon="6.01408">
        <ele>380.60000610352</ele>
        <time>2014-11-20T13:42:04.000Z</time>
      </trkpt>
      <trkpt lat="47.06949" lon="6.01403">
        <ele>380.79998779297</ele>
        <time>2014-11-20T13:42:07.000Z</time>
      </trkpt>
      <trkpt lat="47.06948" lon="6.014">
        <ele>381</ele>
        <time>2014-11-20T13:42:09.000Z</time>
      </trkpt>
      <trkpt lat="47.06944" lon="6.0139">
        <ele>381.60000610352</ele>
        <time>2014-11-20T13:42:17.000Z</time>
      </trkpt>
      <trkpt lat="47.06938" lon="6.01382">
        <ele>383.60000610352</ele>
        <time>2014-11-20T13:42:24.000Z</time>
      </trkpt>
      <trkpt lat="47.06937" lon="6.01381">
        <ele>383.79998779297</ele>
        <time>2014-11-20T13:42:26.000Z</time>
      </trkpt>
      <trkpt lat="47.06937" lon="6.01376">
        <ele>383.79998779297</ele>
        <time>2014-11-20T13:42:30.000Z</time>
      </trkpt>
      <trkpt lat="47.06937" lon="6.01368">
        <ele>383.20001220703</ele>
        <time>2014-11-20T13:42:35.000Z</time>
      </trkpt>
      <trkpt lat="47.06936" lon="6.01357">
        <ele>383.20001220703</ele>
        <time>2014-11-20T13:42:41.000Z</time>
      </trkpt>
      <trkpt lat="47.06935" lon="6.01346">
        <ele>383</ele>
        <time>2014-11-20T13:43:04.000Z</time>
      </trkpt>
      <trkpt lat="47.06932" lon="6.01342">
        <ele>383.79998779297</ele>
        <time>2014-11-20T13:43:09.000Z</time>
      </trkpt>
      <trkpt lat="47.0693" lon="6.01339">
        <ele>384.79998779297</ele>
        <time>2014-11-20T13:43:13.000Z</time>
      </trkpt>
      <trkpt lat="47.06927" lon="6.01337">
        <ele>385.79998779297</ele>
        <time>2014-11-20T13:43:18.000Z</time>
      </trkpt>
      <trkpt lat="47.06921" lon="6.01334">
        <ele>387.79998779297</ele>
        <time>2014-11-20T13:43:27.000Z</time>
      </trkpt>
      <trkpt lat="47.06918" lon="6.01335">
        <ele>389</ele>
        <time>2014-11-20T13:43:33.000Z</time>
      </trkpt>
      <trkpt lat="47.06915" lon="6.01334">
        <ele>390</ele>
        <time>2014-11-20T13:43:38.000Z</time>
      </trkpt>
      <trkpt lat="47.06912" lon="6.01334">
        <ele>391.39999389648</ele>
        <time>2014-11-20T13:43:44.000Z</time>
      </trkpt>
      <trkpt lat="47.06907" lon="6.01334">
        <ele>392.60000610352</ele>
        <time>2014-11-20T13:43:50.000Z</time>
      </trkpt>
      <trkpt lat="47.06904" lon="6.01332">
        <ele>393.39999389648</ele>
        <time>2014-11-20T13:43:55.000Z</time>
      </trkpt>
      <trkpt lat="47.06902" lon="6.01329">
        <ele>393.60000610352</ele>
        <time>2014-11-20T13:44:01.000Z</time>
      </trkpt>
      <trkpt lat="47.069" lon="6.01323">
        <ele>393.60000610352</ele>
        <time>2014-11-20T13:44:08.000Z</time>
      </trkpt>
      <trkpt lat="47.06897" lon="6.01323">
        <ele>394.20001220703</ele>
        <time>2014-11-20T13:44:13.000Z</time>
      </trkpt>
      <trkpt lat="47.06892" lon="6.01321">
        <ele>395.20001220703</ele>
        <time>2014-11-20T13:44:23.000Z</time>
      </trkpt>
      <trkpt lat="47.06888" lon="6.01319">
        <ele>396</ele>
        <time>2014-11-20T13:44:32.000Z</time>
      </trkpt>
      <trkpt lat="47.06885" lon="6.01316">
        <ele>396.20001220703</ele>
        <time>2014-11-20T13:44:37.000Z</time>
      </trkpt>
      <trkpt lat="47.06884" lon="6.01312">
        <ele>396.20001220703</ele>
        <time>2014-11-20T13:44:43.000Z</time>
      </trkpt>
      <trkpt lat="47.06882" lon="6.01305">
        <ele>396.60000610352</ele>
        <time>2014-11-20T13:44:48.000Z</time>
      </trkpt>
      <trkpt lat="47.06882" lon="6.01303">
        <ele>396.60000610352</ele>
        <time>2014-11-20T13:44:49.000Z</time>
      </trkpt>
      <trkpt lat="47.06882" lon="6.01302">
        <ele>396.60000610352</ele>
        <time>2014-11-20T13:44:51.000Z</time>
      </trkpt>
      <trkpt lat="47.06881" lon="6.01297">
        <ele>396.79998779297</ele>
        <time>2014-11-20T13:44:57.000Z</time>
      </trkpt>
      <trkpt lat="47.06881" lon="6.01295">
        <ele>396.79998779297</ele>
        <time>2014-11-20T13:45:02.000Z</time>
      </trkpt>
      <trkpt lat="47.06881" lon="6.01291">
        <ele>396.79998779297</ele>
        <time>2014-11-20T13:45:07.000Z</time>
      </trkpt>
      <trkpt lat="47.06877" lon="6.01287">
        <ele>397.60000610352</ele>
        <time>2014-11-20T13:45:22.000Z</time>
      </trkpt>
      <trkpt lat="47.06875" lon="6.01286">
        <ele>398</ele>
        <time>2014-11-20T13:45:27.000Z</time>
      </trkpt>
      <trkpt lat="47.06871" lon="6.01283">
        <ele>398.79998779297</ele>
        <time>2014-11-20T13:45:45.000Z</time>
      </trkpt>
      <trkpt lat="47.06869" lon="6.01281">
        <ele>399.20001220703</ele>
        <time>2014-11-20T13:45:50.000Z</time>
      </trkpt>
      <trkpt lat="47.06867" lon="6.01281">
        <ele>399.79998779297</ele>
        <time>2014-11-20T13:45:56.000Z</time>
      </trkpt>
      <trkpt lat="47.06863" lon="6.01281">
        <ele>400.60000610352</ele>
        <time>2014-11-20T13:46:02.000Z</time>
      </trkpt>
      <trkpt lat="47.0686" lon="6.01277">
        <ele>401</ele>
        <time>2014-11-20T13:46:08.000Z</time>
      </trkpt>
      <trkpt lat="47.0686" lon="6.01273">
        <ele>401.20001220703</ele>
        <time>2014-11-20T13:46:14.000Z</time>
      </trkpt>
      <trkpt lat="47.06859" lon="6.01269">
        <ele>401.20001220703</ele>
        <time>2014-11-20T13:46:19.000Z</time>
      </trkpt>
      <trkpt lat="47.0686" lon="6.01265">
        <ele>401.20001220703</ele>
        <time>2014-11-20T13:46:25.000Z</time>
      </trkpt>
      <trkpt lat="47.0686" lon="6.01258">
        <ele>401</ele>
        <time>2014-11-20T13:46:32.000Z</time>
      </trkpt>
      <trkpt lat="47.0686" lon="6.0125">
        <ele>399.39999389648</ele>
        <time>2014-11-20T13:46:39.000Z</time>
      </trkpt>
      <trkpt lat="47.0686" lon="6.01248">
        <ele>399</ele>
        <time>2014-11-20T13:46:43.000Z</time>
      </trkpt>
      <trkpt lat="47.06859" lon="6.01242">
        <ele>398.60000610352</ele>
        <time>2014-11-20T13:46:51.000Z</time>
      </trkpt>
      <trkpt lat="47.06858" lon="6.01233">
        <ele>397</ele>
        <time>2014-11-20T13:46:57.000Z</time>
      </trkpt>
      <trkpt lat="47.06858" lon="6.01232">
        <ele>397</ele>
        <time>2014-11-20T13:46:58.000Z</time>
      </trkpt>
      <trkpt lat="47.06857" lon="6.01227">
        <ele>396.39999389648</ele>
        <time>2014-11-20T13:47:02.000Z</time>
      </trkpt>
      <trkpt lat="47.06855" lon="6.01222">
        <ele>396.79998779297</ele>
        <time>2014-11-20T13:47:07.000Z</time>
      </trkpt>
      <trkpt lat="47.06857" lon="6.01216">
        <ele>396.20001220703</ele>
        <time>2014-11-20T13:47:12.000Z</time>
      </trkpt>
      <trkpt lat="47.06858" lon="6.01215">
        <ele>396</ele>
        <time>2014-11-20T13:47:14.000Z</time>
      </trkpt>
      <trkpt lat="47.06859" lon="6.0121">
        <ele>395.39999389648</ele>
        <time>2014-11-20T13:47:19.000Z</time>
      </trkpt>
      <trkpt lat="47.06863" lon="6.01198">
        <ele>393.79998779297</ele>
        <time>2014-11-20T13:47:30.000Z</time>
      </trkpt>
      <trkpt lat="47.06867" lon="6.01193">
        <ele>392.39999389648</ele>
        <time>2014-11-20T13:47:35.000Z</time>
      </trkpt>
      <trkpt lat="47.06869" lon="6.01189">
        <ele>391.79998779297</ele>
        <time>2014-11-20T13:47:38.000Z</time>
      </trkpt>
      <trkpt lat="47.06869" lon="6.01188">
        <ele>391.79998779297</ele>
        <time>2014-11-20T13:47:40.000Z</time>
      </trkpt>
      <trkpt lat="47.0687" lon="6.01178">
        <ele>390</ele>
        <time>2014-11-20T13:47:47.000Z</time>
      </trkpt>
      <trkpt lat="47.06871" lon="6.01168">
        <ele>387.20001220703</ele>
        <time>2014-11-20T13:47:55.000Z</time>
      </trkpt>
      <trkpt lat="47.06871" lon="6.01166">
        <ele>387</ele>
        <time>2014-11-20T13:47:56.000Z</time>
      </trkpt>
      <trkpt lat="47.06872" lon="6.01158">
        <ele>385.39999389648</ele>
        <time>2014-11-20T13:48:01.000Z</time>
      </trkpt>
      <trkpt lat="47.06871" lon="6.01148">
        <ele>383.79998779297</ele>
        <time>2014-11-20T13:48:08.000Z</time>
      </trkpt>
      <trkpt lat="47.06871" lon="6.01143">
        <ele>383</ele>
        <time>2014-11-20T13:48:12.000Z</time>
      </trkpt>
      <trkpt lat="47.06871" lon="6.01137">
        <ele>382.39999389648</ele>
        <time>2014-11-20T13:48:16.000Z</time>
      </trkpt>
      <trkpt lat="47.06871" lon="6.01133">
        <ele>382.39999389648</ele>
        <time>2014-11-20T13:48:18.000Z</time>
      </trkpt>
      <trkpt lat="47.06873" lon="6.01131">
        <ele>381.39999389648</ele>
        <time>2014-11-20T13:48:20.000Z</time>
      </trkpt>
      <trkpt lat="47.06872" lon="6.01119">
        <ele>381.39999389648</ele>
        <time>2014-11-20T13:48:26.000Z</time>
      </trkpt>
      <trkpt lat="47.06872" lon="6.01118">
        <ele>381.60000610352</ele>
        <time>2014-11-20T13:48:27.000Z</time>
      </trkpt>
      <trkpt lat="47.06871" lon="6.01114">
        <ele>381.79998779297</ele>
        <time>2014-11-20T13:48:29.000Z</time>
      </trkpt>
      <trkpt lat="47.06871" lon="6.01106">
        <ele>382</ele>
        <time>2014-11-20T13:48:34.000Z</time>
      </trkpt>
      <trkpt lat="47.0687" lon="6.01098">
        <ele>382</ele>
        <time>2014-11-20T13:48:40.000Z</time>
      </trkpt>
      <trkpt lat="47.0687" lon="6.01096">
        <ele>382</ele>
        <time>2014-11-20T13:48:42.000Z</time>
      </trkpt>
      <trkpt lat="47.0687" lon="6.01093">
        <ele>381.79998779297</ele>
        <time>2014-11-20T13:48:45.000Z</time>
      </trkpt>
      <trkpt lat="47.06869" lon="6.0108">
        <ele>382.39999389648</ele>
        <time>2014-11-20T13:48:52.000Z</time>
      </trkpt>
      <trkpt lat="47.06869" lon="6.01075">
        <ele>382.20001220703</ele>
        <time>2014-11-20T13:48:55.000Z</time>
      </trkpt>
      <trkpt lat="47.0687" lon="6.01062">
        <ele>381.20001220703</ele>
        <time>2014-11-20T13:49:03.000Z</time>
      </trkpt>
      <trkpt lat="47.0687" lon="6.01058">
        <ele>381</ele>
        <time>2014-11-20T13:49:05.000Z</time>
      </trkpt>
      <trkpt lat="47.0687" lon="6.01051">
        <ele>381</ele>
        <time>2014-11-20T13:49:10.000Z</time>
      </trkpt>
      <trkpt lat="47.0687" lon="6.01048">
        <ele>380.79998779297</ele>
        <time>2014-11-20T13:49:12.000Z</time>
      </trkpt>
      <trkpt lat="47.06872" lon="6.01042">
        <ele>379.60000610352</ele>
        <time>2014-11-20T13:49:17.000Z</time>
      </trkpt>
      <trkpt lat="47.06873" lon="6.0104">
        <ele>378.60000610352</ele>
        <time>2014-11-20T13:49:19.000Z</time>
      </trkpt>
      <trkpt lat="47.06873" lon="6.01038">
        <ele>378.39999389648</ele>
        <time>2014-11-20T13:49:21.000Z</time>
      </trkpt>
      <trkpt lat="47.06871" lon="6.01022">
        <ele>379.20001220703</ele>
        <time>2014-11-20T13:49:32.000Z</time>
      </trkpt>
      <trkpt lat="47.06871" lon="6.01014">
        <ele>378.79998779297</ele>
        <time>2014-11-20T13:49:37.000Z</time>
      </trkpt>
      <trkpt lat="47.06871" lon="6.01009">
        <ele>379</ele>
        <time>2014-11-20T13:49:39.000Z</time>
      </trkpt>
      <trkpt lat="47.06872" lon="6.00996">
        <ele>379.20001220703</ele>
        <time>2014-11-20T13:49:46.000Z</time>
      </trkpt>
      <trkpt lat="47.06872" lon="6.00992">
        <ele>379.20001220703</ele>
        <time>2014-11-20T13:49:48.000Z</time>
      </trkpt>
      <trkpt lat="47.06872" lon="6.00989">
        <ele>379</ele>
        <time>2014-11-20T13:49:50.000Z</time>
      </trkpt>
      <trkpt lat="47.06872" lon="6.00983">
        <ele>379</ele>
        <time>2014-11-20T13:49:53.000Z</time>
      </trkpt>
      <trkpt lat="47.06872" lon="6.00973">
        <ele>379.20001220703</ele>
        <time>2014-11-20T13:49:59.000Z</time>
      </trkpt>
      <trkpt lat="47.06873" lon="6.00973">
        <ele>379</ele>
        <time>2014-11-20T13:50:00.000Z</time>
      </trkpt>
      <trkpt lat="47.06873" lon="6.00972">
        <ele>379</ele>
        <time>2014-11-20T13:50:01.000Z</time>
      </trkpt>
      <trkpt lat="47.06872" lon="6.00962">
        <ele>379.39999389648</ele>
        <time>2014-11-20T13:50:07.000Z</time>
      </trkpt>
      <trkpt lat="47.06872" lon="6.00953">
        <ele>379</ele>
        <time>2014-11-20T13:50:13.000Z</time>
      </trkpt>
      <trkpt lat="47.06872" lon="6.00951">
        <ele>379</ele>
        <time>2014-11-20T13:50:14.000Z</time>
      </trkpt>
      <trkpt lat="47.06873" lon="6.00946">
        <ele>378.79998779297</ele>
        <time>2014-11-20T13:50:17.000Z</time>
      </trkpt>
      <trkpt lat="47.06872" lon="6.00939">
        <ele>378.79998779297</ele>
        <time>2014-11-20T13:50:23.000Z</time>
      </trkpt>
      <trkpt lat="47.06872" lon="6.00934">
        <ele>379</ele>
        <time>2014-11-20T13:50:24.000Z</time>
      </trkpt>
      <trkpt lat="47.06872" lon="6.00927">
        <ele>379.39999389648</ele>
        <time>2014-11-20T13:50:29.000Z</time>
      </trkpt>
      <trkpt lat="47.06871" lon="6.00917">
        <ele>380.39999389648</ele>
        <time>2014-11-20T13:50:33.000Z</time>
      </trkpt>
      <trkpt lat="47.0687" lon="6.00909">
        <ele>381.20001220703</ele>
        <time>2014-11-20T13:50:39.000Z</time>
      </trkpt>
      <trkpt lat="47.0687" lon="6.00899">
        <ele>381.79998779297</ele>
        <time>2014-11-20T13:50:46.000Z</time>
      </trkpt>
      <trkpt lat="47.0687" lon="6.00897">
        <ele>382</ele>
        <time>2014-11-20T13:50:47.000Z</time>
      </trkpt>
      <trkpt lat="47.06869" lon="6.00891">
        <ele>382.60000610352</ele>
        <time>2014-11-20T13:50:51.000Z</time>
      </trkpt>
      <trkpt lat="47.06869" lon="6.00889">
        <ele>382.60000610352</ele>
        <time>2014-11-20T13:50:54.000Z</time>
      </trkpt>
      <trkpt lat="47.06869" lon="6.00883">
        <ele>382.60000610352</ele>
        <time>2014-11-20T13:50:59.000Z</time>
      </trkpt>
      <trkpt lat="47.06869" lon="6.00875">
        <ele>382.39999389648</ele>
        <time>2014-11-20T13:51:03.000Z</time>
      </trkpt>
      <trkpt lat="47.06868" lon="6.00868">
        <ele>382.79998779297</ele>
        <time>2014-11-20T13:51:07.000Z</time>
      </trkpt>
      <trkpt lat="47.06868" lon="6.00865">
        <ele>382.39999389648</ele>
        <time>2014-11-20T13:51:09.000Z</time>
      </trkpt>
      <trkpt lat="47.06869" lon="6.00857">
        <ele>382.20001220703</ele>
        <time>2014-11-20T13:51:15.000Z</time>
      </trkpt>
      <trkpt lat="47.06866" lon="6.00848">
        <ele>383.39999389648</ele>
        <time>2014-11-20T13:51:18.000Z</time>
      </trkpt>
      <trkpt lat="47.06865" lon="6.00845">
        <ele>383.79998779297</ele>
        <time>2014-11-20T13:51:20.000Z</time>
      </trkpt>
      <trkpt lat="47.06864" lon="6.00843">
        <ele>384</ele>
        <time>2014-11-20T13:51:21.000Z</time>
      </trkpt>
      <trkpt lat="47.06861" lon="6.00815">
        <ele>386</ele>
        <time>2014-11-20T13:51:39.000Z</time>
      </trkpt>
      <trkpt lat="47.06862" lon="6.00806">
        <ele>385.60000610352</ele>
        <time>2014-11-20T13:51:45.000Z</time>
      </trkpt>
      <trkpt lat="47.06861" lon="6.008">
        <ele>385.79998779297</ele>
        <time>2014-11-20T13:51:50.000Z</time>
      </trkpt>
      <trkpt lat="47.0686" lon="6.00793">
        <ele>386.39999389648</ele>
        <time>2014-11-20T13:51:54.000Z</time>
      </trkpt>
      <trkpt lat="47.06858" lon="6.00787">
        <ele>386.79998779297</ele>
        <time>2014-11-20T13:51:59.000Z</time>
      </trkpt>
      <trkpt lat="47.06853" lon="6.00777">
        <ele>388.60000610352</ele>
        <time>2014-11-20T13:52:08.000Z</time>
      </trkpt>
      <trkpt lat="47.06852" lon="6.00776">
        <ele>388.79998779297</ele>
        <time>2014-11-20T13:52:09.000Z</time>
      </trkpt>
      <trkpt lat="47.0685" lon="6.00769">
        <ele>389.60000610352</ele>
        <time>2014-11-20T13:52:15.000Z</time>
      </trkpt>
      <trkpt lat="47.06848" lon="6.00764">
        <ele>390.20001220703</ele>
        <time>2014-11-20T13:52:17.000Z</time>
      </trkpt>
      <trkpt lat="47.06846" lon="6.00757">
        <ele>391</ele>
        <time>2014-11-20T13:52:23.000Z</time>
      </trkpt>
      <trkpt lat="47.06843" lon="6.00746">
        <ele>392</ele>
        <time>2014-11-20T13:52:30.000Z</time>
      </trkpt>
      <trkpt lat="47.0684" lon="6.00742">
        <ele>392.79998779297</ele>
        <time>2014-11-20T13:52:33.000Z</time>
      </trkpt>
      <trkpt lat="47.06839" lon="6.00737">
        <ele>393.20001220703</ele>
        <time>2014-11-20T13:52:36.000Z</time>
      </trkpt>
      <trkpt lat="47.06839" lon="6.00731">
        <ele>393.60000610352</ele>
        <time>2014-11-20T13:52:42.000Z</time>
      </trkpt>
      <trkpt lat="47.06838" lon="6.00724">
        <ele>394</ele>
        <time>2014-11-20T13:52:47.000Z</time>
      </trkpt>
      <trkpt lat="47.06836" lon="6.00715">
        <ele>394.20001220703</ele>
        <time>2014-11-20T13:52:52.000Z</time>
      </trkpt>
      <trkpt lat="47.06836" lon="6.00712">
        <ele>394.20001220703</ele>
        <time>2014-11-20T13:52:54.000Z</time>
      </trkpt>
      <trkpt lat="47.06835" lon="6.00701">
        <ele>394.20001220703</ele>
        <time>2014-11-20T13:53:00.000Z</time>
      </trkpt>
      <trkpt lat="47.06833" lon="6.00695">
        <ele>394.39999389648</ele>
        <time>2014-11-20T13:53:03.000Z</time>
      </trkpt>
      <trkpt lat="47.06833" lon="6.00693">
        <ele>394.39999389648</ele>
        <time>2014-11-20T13:53:05.000Z</time>
      </trkpt>
      <trkpt lat="47.06832" lon="6.00684">
        <ele>394.60000610352</ele>
        <time>2014-11-20T13:53:15.000Z</time>
      </trkpt>
      <trkpt lat="47.06832" lon="6.00681">
        <ele>394.39999389648</ele>
        <time>2014-11-20T13:53:24.000Z</time>
      </trkpt>
      <trkpt lat="47.06828" lon="6.0066">
        <ele>395</ele>
        <time>2014-11-20T13:54:31.000Z</time>
      </trkpt>
      <trkpt lat="47.0683" lon="6.00661">
        <ele>394.20001220703</ele>
        <time>2014-11-20T13:54:36.000Z</time>
      </trkpt>
      <trkpt lat="47.06833" lon="6.00663">
        <ele>393.39999389648</ele>
        <time>2014-11-20T13:54:41.000Z</time>
      </trkpt>
      <trkpt lat="47.06837" lon="6.00669">
        <ele>392.20001220703</ele>
        <time>2014-11-20T13:54:46.000Z</time>
      </trkpt>
      <trkpt lat="47.06837" lon="6.0067">
        <ele>392.20001220703</ele>
        <time>2014-11-20T13:54:47.000Z</time>
      </trkpt>
      <trkpt lat="47.06841" lon="6.00673">
        <ele>391</ele>
        <time>2014-11-20T13:54:53.000Z</time>
      </trkpt>
      <trkpt lat="47.06844" lon="6.00677">
        <ele>390</ele>
        <time>2014-11-20T13:55:01.000Z</time>
      </trkpt>
      <trkpt lat="47.06848" lon="6.0068">
        <ele>388.60000610352</ele>
        <time>2014-11-20T13:55:07.000Z</time>
      </trkpt>
      <trkpt lat="47.06853" lon="6.00683">
        <ele>387.20001220703</ele>
        <time>2014-11-20T13:55:13.000Z</time>
      </trkpt>
      <trkpt lat="47.06857" lon="6.00682">
        <ele>385.60000610352</ele>
        <time>2014-11-20T13:55:19.000Z</time>
      </trkpt>
      <trkpt lat="47.06859" lon="6.00682">
        <ele>385.20001220703</ele>
        <time>2014-11-20T13:55:21.000Z</time>
      </trkpt>
      <trkpt lat="47.06865" lon="6.00677">
        <ele>383</ele>
        <time>2014-11-20T13:55:30.000Z</time>
      </trkpt>
      <trkpt lat="47.06867" lon="6.00675">
        <ele>382.60000610352</ele>
        <time>2014-11-20T13:55:33.000Z</time>
      </trkpt>
      <trkpt lat="47.06868" lon="6.00669">
        <ele>382.60000610352</ele>
        <time>2014-11-20T13:55:39.000Z</time>
      </trkpt>
      <trkpt lat="47.06867" lon="6.00662">
        <ele>383</ele>
        <time>2014-11-20T13:55:47.000Z</time>
      </trkpt>
      <trkpt lat="47.06867" lon="6.00657">
        <ele>383.39999389648</ele>
        <time>2014-11-20T13:55:52.000Z</time>
      </trkpt>
      <trkpt lat="47.06866" lon="6.00654">
        <ele>383.60000610352</ele>
        <time>2014-11-20T13:56:01.000Z</time>
      </trkpt>
      <trkpt lat="47.06864" lon="6.00645">
        <ele>384.39999389648</ele>
        <time>2014-11-20T13:57:15.000Z</time>
      </trkpt>
      <trkpt lat="47.06865" lon="6.00641">
        <ele>384.39999389648</ele>
        <time>2014-11-20T13:57:20.000Z</time>
      </trkpt>
      <trkpt lat="47.06865" lon="6.00634">
        <ele>384.20001220703</ele>
        <time>2014-11-20T13:57:27.000Z</time>
      </trkpt>
      <trkpt lat="47.06864" lon="6.0063">
        <ele>384.20001220703</ele>
        <time>2014-11-20T13:57:33.000Z</time>
      </trkpt>
      <trkpt lat="47.06864" lon="6.00623">
        <ele>384.20001220703</ele>
        <time>2014-11-20T13:57:41.000Z</time>
      </trkpt>
      <trkpt lat="47.06864" lon="6.00618">
        <ele>383.79998779297</ele>
        <time>2014-11-20T13:57:47.000Z</time>
      </trkpt>
      <trkpt lat="47.06864" lon="6.00607">
        <ele>383.79998779297</ele>
        <time>2014-11-20T13:57:55.000Z</time>
      </trkpt>
      <trkpt lat="47.06864" lon="6.00605">
        <ele>383.60000610352</ele>
        <time>2014-11-20T13:57:56.000Z</time>
      </trkpt>
      <trkpt lat="47.06864" lon="6.00601">
        <ele>383.39999389648</ele>
        <time>2014-11-20T13:58:01.000Z</time>
      </trkpt>
      <trkpt lat="47.06868" lon="6.00592">
        <ele>382.39999389648</ele>
        <time>2014-11-20T13:58:10.000Z</time>
      </trkpt>
      <trkpt lat="47.06869" lon="6.00587">
        <ele>382</ele>
        <time>2014-11-20T13:58:15.000Z</time>
      </trkpt>
      <trkpt lat="47.06869" lon="6.00577">
        <ele>381.79998779297</ele>
        <time>2014-11-20T13:58:21.000Z</time>
      </trkpt>
      <trkpt lat="47.06871" lon="6.00569">
        <ele>381.39999389648</ele>
        <time>2014-11-20T13:58:27.000Z</time>
      </trkpt>
      <trkpt lat="47.0687" lon="6.00563">
        <ele>381.60000610352</ele>
        <time>2014-11-20T13:58:32.000Z</time>
      </trkpt>
      <trkpt lat="47.06867" lon="6.00555">
        <ele>381.79998779297</ele>
        <time>2014-11-20T13:58:38.000Z</time>
      </trkpt>
      <trkpt lat="47.06867" lon="6.00554">
        <ele>381.79998779297</ele>
        <time>2014-11-20T13:58:39.000Z</time>
      </trkpt>
      <trkpt lat="47.06866" lon="6.0055">
        <ele>382</ele>
        <time>2014-11-20T13:58:42.000Z</time>
      </trkpt>
      <trkpt lat="47.06864" lon="6.0054">
        <ele>381.60000610352</ele>
        <time>2014-11-20T13:58:48.000Z</time>
      </trkpt>
      <trkpt lat="47.06862" lon="6.00534">
        <ele>381.60000610352</ele>
        <time>2014-11-20T13:58:53.000Z</time>
      </trkpt>
      <trkpt lat="47.06861" lon="6.00528">
        <ele>381.60000610352</ele>
        <time>2014-11-20T13:58:57.000Z</time>
      </trkpt>
      <trkpt lat="47.06859" lon="6.00518">
        <ele>381.39999389648</ele>
        <time>2014-11-20T13:59:04.000Z</time>
      </trkpt>
      <trkpt lat="47.06858" lon="6.00513">
        <ele>381.39999389648</ele>
        <time>2014-11-20T13:59:07.000Z</time>
      </trkpt>
      <trkpt lat="47.06857" lon="6.0051">
        <ele>381.39999389648</ele>
        <time>2014-11-20T13:59:09.000Z</time>
      </trkpt>
      <trkpt lat="47.06855" lon="6.00503">
        <ele>381.39999389648</ele>
        <time>2014-11-20T13:59:16.000Z</time>
      </trkpt>
      <trkpt lat="47.06851" lon="6.00497">
        <ele>381.79998779297</ele>
        <time>2014-11-20T13:59:21.000Z</time>
      </trkpt>
      <trkpt lat="47.0685" lon="6.00496">
        <ele>381.79998779297</ele>
        <time>2014-11-20T13:59:23.000Z</time>
      </trkpt>
      <trkpt lat="47.0685" lon="6.00494">
        <ele>381.79998779297</ele>
        <time>2014-11-20T13:59:24.000Z</time>
      </trkpt>
      <trkpt lat="47.06848" lon="6.00487">
        <ele>381.39999389648</ele>
        <time>2014-11-20T13:59:28.000Z</time>
      </trkpt>
      <trkpt lat="47.06848" lon="6.00478">
        <ele>380.39999389648</ele>
        <time>2014-11-20T13:59:34.000Z</time>
      </trkpt>
      <trkpt lat="47.06847" lon="6.00473">
        <ele>380</ele>
        <time>2014-11-20T13:59:37.000Z</time>
      </trkpt>
      <trkpt lat="47.06846" lon="6.00468">
        <ele>380</ele>
        <time>2014-11-20T13:59:40.000Z</time>
      </trkpt>
      <trkpt lat="47.06845" lon="6.00453">
        <ele>379.39999389648</ele>
        <time>2014-11-20T13:59:50.000Z</time>
      </trkpt>
      <trkpt lat="47.06841" lon="6.00445">
        <ele>379.79998779297</ele>
        <time>2014-11-20T13:59:56.000Z</time>
      </trkpt>
      <trkpt lat="47.06839" lon="6.0044">
        <ele>380.20001220703</ele>
        <time>2014-11-20T13:59:59.000Z</time>
      </trkpt>
      <trkpt lat="47.06836" lon="6.00435">
        <ele>380.79998779297</ele>
        <time>2014-11-20T14:00:03.000Z</time>
      </trkpt>
      <trkpt lat="47.06834" lon="6.00432">
        <ele>381.39999389648</ele>
        <time>2014-11-20T14:00:07.000Z</time>
      </trkpt>
      <trkpt lat="47.06832" lon="6.00427">
        <ele>381.79998779297</ele>
        <time>2014-11-20T14:00:11.000Z</time>
      </trkpt>
      <trkpt lat="47.06831" lon="6.00423">
        <ele>381.79998779297</ele>
        <time>2014-11-20T14:00:15.000Z</time>
      </trkpt>
      <trkpt lat="47.06829" lon="6.00414">
        <ele>381.79998779297</ele>
        <time>2014-11-20T14:00:21.000Z</time>
      </trkpt>
      <trkpt lat="47.06828" lon="6.00412">
        <ele>381.79998779297</ele>
        <time>2014-11-20T14:00:22.000Z</time>
      </trkpt>
      <trkpt lat="47.06827" lon="6.00408">
        <ele>382</ele>
        <time>2014-11-20T14:00:26.000Z</time>
      </trkpt>
      <trkpt lat="47.06823" lon="6.00399">
        <ele>382</ele>
        <time>2014-11-20T14:00:31.000Z</time>
      </trkpt>
      <trkpt lat="47.0682" lon="6.00392">
        <ele>381.79998779297</ele>
        <time>2014-11-20T14:00:36.000Z</time>
      </trkpt>
      <trkpt lat="47.06819" lon="6.00389">
        <ele>382</ele>
        <time>2014-11-20T14:00:38.000Z</time>
      </trkpt>
      <trkpt lat="47.06818" lon="6.00387">
        <ele>382</ele>
        <time>2014-11-20T14:00:40.000Z</time>
      </trkpt>
      <trkpt lat="47.06815" lon="6.00381">
        <ele>382</ele>
        <time>2014-11-20T14:00:45.000Z</time>
      </trkpt>
      <trkpt lat="47.06813" lon="6.00377">
        <ele>382</ele>
        <time>2014-11-20T14:00:48.000Z</time>
      </trkpt>
      <trkpt lat="47.06812" lon="6.00374">
        <ele>382</ele>
        <time>2014-11-20T14:00:51.000Z</time>
      </trkpt>
      <trkpt lat="47.0681" lon="6.00372">
        <ele>382</ele>
        <time>2014-11-20T14:00:52.000Z</time>
      </trkpt>
      <trkpt lat="47.06805" lon="6.00365">
        <ele>382.39999389648</ele>
        <time>2014-11-20T14:00:58.000Z</time>
      </trkpt>
      <trkpt lat="47.06801" lon="6.00361">
        <ele>382.79998779297</ele>
        <time>2014-11-20T14:01:03.000Z</time>
      </trkpt>
      <trkpt lat="47.06796" lon="6.00356">
        <ele>383.20001220703</ele>
        <time>2014-11-20T14:01:06.000Z</time>
      </trkpt>
      <trkpt lat="47.06793" lon="6.00354">
        <ele>383.60000610352</ele>
        <time>2014-11-20T14:01:09.000Z</time>
      </trkpt>
      <trkpt lat="47.06788" lon="6.0035">
        <ele>384.20001220703</ele>
        <time>2014-11-20T14:01:15.000Z</time>
      </trkpt>
      <trkpt lat="47.06774" lon="6.00341">
        <ele>386</ele>
        <time>2014-11-20T14:01:32.000Z</time>
      </trkpt>
      <trkpt lat="47.06771" lon="6.00335">
        <ele>386.20001220703</ele>
        <time>2014-11-20T14:01:37.000Z</time>
      </trkpt>
      <trkpt lat="47.0677" lon="6.00333">
        <ele>386.20001220703</ele>
        <time>2014-11-20T14:01:39.000Z</time>
      </trkpt>
      <trkpt lat="47.06766" lon="6.00325">
        <ele>386.20001220703</ele>
        <time>2014-11-20T14:01:45.000Z</time>
      </trkpt>
      <trkpt lat="47.06762" lon="6.00321">
        <ele>386.39999389648</ele>
        <time>2014-11-20T14:01:50.000Z</time>
      </trkpt>
      <trkpt lat="47.0676" lon="6.00317">
        <ele>386.20001220703</ele>
        <time>2014-11-20T14:01:54.000Z</time>
      </trkpt>
      <trkpt lat="47.06755" lon="6.00307">
        <ele>386.20001220703</ele>
        <time>2014-11-20T14:02:01.000Z</time>
      </trkpt>
      <trkpt lat="47.06754" lon="6.00306">
        <ele>386.39999389648</ele>
        <time>2014-11-20T14:02:02.000Z</time>
      </trkpt>
      <trkpt lat="47.0675" lon="6.00297">
        <ele>386.60000610352</ele>
        <time>2014-11-20T14:02:09.000Z</time>
      </trkpt>
      <trkpt lat="47.06747" lon="6.00292">
        <ele>386.60000610352</ele>
        <time>2014-11-20T14:02:14.000Z</time>
      </trkpt>
      <trkpt lat="47.06746" lon="6.00291">
        <ele>386.79998779297</ele>
        <time>2014-11-20T14:02:15.000Z</time>
      </trkpt>
      <trkpt lat="47.06741" lon="6.00285">
        <ele>387.39999389648</ele>
        <time>2014-11-20T14:02:21.000Z</time>
      </trkpt>
      <trkpt lat="47.0674" lon="6.00285">
        <ele>387.39999389648</ele>
        <time>2014-11-20T14:02:23.000Z</time>
      </trkpt>
      <trkpt lat="47.06736" lon="6.00278">
        <ele>387.20001220703</ele>
        <time>2014-11-20T14:02:29.000Z</time>
      </trkpt>
      <trkpt lat="47.06736" lon="6.00278">
        <ele>387.20001220703</ele>
        <time>2014-11-20T14:02:30.000Z</time>
      </trkpt>
      <trkpt lat="47.06733" lon="6.00275">
        <ele>387.39999389648</ele>
        <time>2014-11-20T14:02:32.000Z</time>
      </trkpt>
      <trkpt lat="47.06726" lon="6.00269">
        <ele>387.60000610352</ele>
        <time>2014-11-20T14:02:39.000Z</time>
      </trkpt>
      <trkpt lat="47.06725" lon="6.00268">
        <ele>387.60000610352</ele>
        <time>2014-11-20T14:02:41.000Z</time>
      </trkpt>
      <trkpt lat="47.06721" lon="6.00265">
        <ele>388</ele>
        <time>2014-11-20T14:02:45.000Z</time>
      </trkpt>
      <trkpt lat="47.06715" lon="6.00261">
        <ele>388.39999389648</ele>
        <time>2014-11-20T14:02:51.000Z</time>
      </trkpt>
      <trkpt lat="47.06712" lon="6.00254">
        <ele>388.20001220703</ele>
        <time>2014-11-20T14:02:56.000Z</time>
      </trkpt>
      <trkpt lat="47.06711" lon="6.00253">
        <ele>388.20001220703</ele>
        <time>2014-11-20T14:02:57.000Z</time>
      </trkpt>
      <trkpt lat="47.06708" lon="6.00244">
        <ele>387.79998779297</ele>
        <time>2014-11-20T14:03:03.000Z</time>
      </trkpt>
      <trkpt lat="47.06708" lon="6.00242">
        <ele>387.60000610352</ele>
        <time>2014-11-20T14:03:05.000Z</time>
      </trkpt>
      <trkpt lat="47.06708" lon="6.00241">
        <ele>387.60000610352</ele>
        <time>2014-11-20T14:03:06.000Z</time>
      </trkpt>
      <trkpt lat="47.06704" lon="6.00235">
        <ele>387.39999389648</ele>
        <time>2014-11-20T14:03:09.000Z</time>
      </trkpt>
      <trkpt lat="47.06703" lon="6.00231">
        <ele>387.20001220703</ele>
        <time>2014-11-20T14:03:12.000Z</time>
      </trkpt>
      <trkpt lat="47.067" lon="6.00224">
        <ele>387</ele>
        <time>2014-11-20T14:03:17.000Z</time>
      </trkpt>
      <trkpt lat="47.06696" lon="6.00215">
        <ele>386.39999389648</ele>
        <time>2014-11-20T14:03:21.000Z</time>
      </trkpt>
      <trkpt lat="47.06692" lon="6.00208">
        <ele>386</ele>
        <time>2014-11-20T14:03:26.000Z</time>
      </trkpt>
      <trkpt lat="47.06692" lon="6.00206">
        <ele>385.79998779297</ele>
        <time>2014-11-20T14:03:27.000Z</time>
      </trkpt>
      <trkpt lat="47.0669" lon="6.00198">
        <ele>385.20001220703</ele>
        <time>2014-11-20T14:03:32.000Z</time>
      </trkpt>
      <trkpt lat="47.06688" lon="6.00192">
        <ele>384.60000610352</ele>
        <time>2014-11-20T14:03:37.000Z</time>
      </trkpt>
      <trkpt lat="47.06687" lon="6.00187">
        <ele>384.20001220703</ele>
        <time>2014-11-20T14:03:39.000Z</time>
      </trkpt>
      <trkpt lat="47.06685" lon="6.00181">
        <ele>383.79998779297</ele>
        <time>2014-11-20T14:03:44.000Z</time>
      </trkpt>
      <trkpt lat="47.06683" lon="6.00178">
        <ele>383.60000610352</ele>
        <time>2014-11-20T14:03:45.000Z</time>
      </trkpt>
      <trkpt lat="47.06678" lon="6.00171">
        <ele>383.20001220703</ele>
        <time>2014-11-20T14:03:51.000Z</time>
      </trkpt>
      <trkpt lat="47.06677" lon="6.00167">
        <ele>383</ele>
        <time>2014-11-20T14:03:55.000Z</time>
      </trkpt>
      <trkpt lat="47.06677" lon="6.00166">
        <ele>382.79998779297</ele>
        <time>2014-11-20T14:03:56.000Z</time>
      </trkpt>
      <trkpt lat="47.06675" lon="6.00154">
        <ele>381.60000610352</ele>
        <time>2014-11-20T14:04:02.000Z</time>
      </trkpt>
      <trkpt lat="47.06673" lon="6.00143">
        <ele>380.20001220703</ele>
        <time>2014-11-20T14:04:07.000Z</time>
      </trkpt>
      <trkpt lat="47.06672" lon="6.00141">
        <ele>380</ele>
        <time>2014-11-20T14:04:11.000Z</time>
      </trkpt>
      <trkpt lat="47.0667" lon="6.00133">
        <ele>380.20001220703</ele>
        <time>2014-11-20T14:04:15.000Z</time>
      </trkpt>
      <trkpt lat="47.06668" lon="6.00122">
        <ele>380.20001220703</ele>
        <time>2014-11-20T14:04:20.000Z</time>
      </trkpt>
      <trkpt lat="47.06668" lon="6.0012">
        <ele>380.20001220703</ele>
        <time>2014-11-20T14:04:21.000Z</time>
      </trkpt>
      <trkpt lat="47.06667" lon="6.00117">
        <ele>380.20001220703</ele>
        <time>2014-11-20T14:04:22.000Z</time>
      </trkpt>
      <trkpt lat="47.06666" lon="6.00108">
        <ele>380.20001220703</ele>
        <time>2014-11-20T14:04:27.000Z</time>
      </trkpt>
      <trkpt lat="47.06666" lon="6.00102">
        <ele>380</ele>
        <time>2014-11-20T14:04:31.000Z</time>
      </trkpt>
      <trkpt lat="47.06667" lon="6.00097">
        <ele>379.79998779297</ele>
        <time>2014-11-20T14:04:36.000Z</time>
      </trkpt>
      <trkpt lat="47.06667" lon="6.00096">
        <ele>379.79998779297</ele>
        <time>2014-11-20T14:04:37.000Z</time>
      </trkpt>
      <trkpt lat="47.06667" lon="6.00088">
        <ele>379.60000610352</ele>
        <time>2014-11-20T14:04:41.000Z</time>
      </trkpt>
      <trkpt lat="47.06665" lon="6.00078">
        <ele>379.60000610352</ele>
        <time>2014-11-20T14:04:47.000Z</time>
      </trkpt>
      <trkpt lat="47.06663" lon="6.00072">
        <ele>379.79998779297</ele>
        <time>2014-11-20T14:04:50.000Z</time>
      </trkpt>
      <trkpt lat="47.06661" lon="6.00069">
        <ele>380</ele>
        <time>2014-11-20T14:04:51.000Z</time>
      </trkpt>
      <trkpt lat="47.06657" lon="6.00062">
        <ele>380.60000610352</ele>
        <time>2014-11-20T14:04:56.000Z</time>
      </trkpt>
      <trkpt lat="47.06655" lon="6.00056">
        <ele>380.79998779297</ele>
        <time>2014-11-20T14:04:58.000Z</time>
      </trkpt>
      <trkpt lat="47.06656" lon="6.00044">
        <ele>380.39999389648</ele>
        <time>2014-11-20T14:05:05.000Z</time>
      </trkpt>
      <trkpt lat="47.06656" lon="6.00042">
        <ele>380.20001220703</ele>
        <time>2014-11-20T14:05:08.000Z</time>
      </trkpt>
      <trkpt lat="47.06653" lon="6.00026">
        <ele>380.60000610352</ele>
        <time>2014-11-20T14:05:15.000Z</time>
      </trkpt>
      <trkpt lat="47.06653" lon="6.00015">
        <ele>380.20001220703</ele>
        <time>2014-11-20T14:05:20.000Z</time>
      </trkpt>
      <trkpt lat="47.06653" lon="6.00007">
        <ele>380</ele>
        <time>2014-11-20T14:05:25.000Z</time>
      </trkpt>
      <trkpt lat="47.06653" lon="5.99999">
        <ele>379.79998779297</ele>
        <time>2014-11-20T14:05:31.000Z</time>
      </trkpt>
      <trkpt lat="47.06655" lon="5.99992">
        <ele>379.20001220703</ele>
        <time>2014-11-20T14:05:35.000Z</time>
      </trkpt>
      <trkpt lat="47.06656" lon="5.99989">
        <ele>379</ele>
        <time>2014-11-20T14:05:37.000Z</time>
      </trkpt>
      <trkpt lat="47.06656" lon="5.99982">
        <ele>378.79998779297</ele>
        <time>2014-11-20T14:05:41.000Z</time>
      </trkpt>
      <trkpt lat="47.06658" lon="5.99974">
        <ele>378.39999389648</ele>
        <time>2014-11-20T14:05:46.000Z</time>
      </trkpt>
      <trkpt lat="47.06658" lon="5.99972">
        <ele>378.39999389648</ele>
        <time>2014-11-20T14:05:47.000Z</time>
      </trkpt>
      <trkpt lat="47.06658" lon="5.99969">
        <ele>378.20001220703</ele>
        <time>2014-11-20T14:05:49.000Z</time>
      </trkpt>
      <trkpt lat="47.06657" lon="5.99959">
        <ele>378.60000610352</ele>
        <time>2014-11-20T14:05:54.000Z</time>
      </trkpt>
      <trkpt lat="47.06657" lon="5.99951">
        <ele>378.79998779297</ele>
        <time>2014-11-20T14:05:59.000Z</time>
      </trkpt>
      <trkpt lat="47.06656" lon="5.99941">
        <ele>379</ele>
        <time>2014-11-20T14:06:03.000Z</time>
      </trkpt>
      <trkpt lat="47.06656" lon="5.99935">
        <ele>379.20001220703</ele>
        <time>2014-11-20T14:06:07.000Z</time>
      </trkpt>
      <trkpt lat="47.06655" lon="5.99932">
        <ele>379.39999389648</ele>
        <time>2014-11-20T14:06:09.000Z</time>
      </trkpt>
      <trkpt lat="47.06654" lon="5.99928">
        <ele>379.60000610352</ele>
        <time>2014-11-20T14:06:12.000Z</time>
      </trkpt>
      <trkpt lat="47.06654" lon="5.99923">
        <ele>379.79998779297</ele>
        <time>2014-11-20T14:06:15.000Z</time>
      </trkpt>
      <trkpt lat="47.06653" lon="5.99919">
        <ele>380</ele>
        <time>2014-11-20T14:06:17.000Z</time>
      </trkpt>
      <trkpt lat="47.06652" lon="5.99907">
        <ele>380.20001220703</ele>
        <time>2014-11-20T14:06:26.000Z</time>
      </trkpt>
      <trkpt lat="47.06653" lon="5.99903">
        <ele>380.20001220703</ele>
        <time>2014-11-20T14:06:30.000Z</time>
      </trkpt>
      <trkpt lat="47.06653" lon="5.99892">
        <ele>380.39999389648</ele>
        <time>2014-11-20T14:06:36.000Z</time>
      </trkpt>
      <trkpt lat="47.06653" lon="5.99887">
        <ele>380.39999389648</ele>
        <time>2014-11-20T14:06:39.000Z</time>
      </trkpt>
      <trkpt lat="47.06654" lon="5.99885">
        <ele>380.20001220703</ele>
        <time>2014-11-20T14:06:41.000Z</time>
      </trkpt>
      <trkpt lat="47.06655" lon="5.9988">
        <ele>380.20001220703</ele>
        <time>2014-11-20T14:06:45.000Z</time>
      </trkpt>
      <trkpt lat="47.06654" lon="5.99876">
        <ele>380.39999389648</ele>
        <time>2014-11-20T14:06:47.000Z</time>
      </trkpt>
      <trkpt lat="47.06654" lon="5.99868">
        <ele>380.79998779297</ele>
        <time>2014-11-20T14:06:52.000Z</time>
      </trkpt>
      <trkpt lat="47.06653" lon="5.99867">
        <ele>380.79998779297</ele>
        <time>2014-11-20T14:06:54.000Z</time>
      </trkpt>
      <trkpt lat="47.0665" lon="5.99858">
        <ele>381.79998779297</ele>
        <time>2014-11-20T14:07:02.000Z</time>
      </trkpt>
      <trkpt lat="47.06649" lon="5.99854">
        <ele>382.20001220703</ele>
        <time>2014-11-20T14:07:07.000Z</time>
      </trkpt>
      <trkpt lat="47.06647" lon="5.99853">
        <ele>382.39999389648</ele>
        <time>2014-11-20T14:07:12.000Z</time>
      </trkpt>
      <trkpt lat="47.06644" lon="5.9985">
        <ele>383.20001220703</ele>
        <time>2014-11-20T14:07:19.000Z</time>
      </trkpt>
      <trkpt lat="47.06639" lon="5.99852">
        <ele>384</ele>
        <time>2014-11-20T14:07:27.000Z</time>
      </trkpt>
      <trkpt lat="47.06637" lon="5.99855">
        <ele>384</ele>
        <time>2014-11-20T14:07:31.000Z</time>
      </trkpt>
      <trkpt lat="47.06636" lon="5.99859">
        <ele>384.20001220703</ele>
        <time>2014-11-20T14:07:35.000Z</time>
      </trkpt>
      <trkpt lat="47.06635" lon="5.99865">
        <ele>384.20001220703</ele>
        <time>2014-11-20T14:07:42.000Z</time>
      </trkpt>
      <trkpt lat="47.06635" lon="5.9987">
        <ele>384</ele>
        <time>2014-11-20T14:08:23.000Z</time>
      </trkpt>
      <trkpt lat="47.06636" lon="5.99864">
        <ele>384</ele>
        <time>2014-11-20T14:08:30.000Z</time>
      </trkpt>
      <trkpt lat="47.06639" lon="5.99856">
        <ele>383.79998779297</ele>
        <time>2014-11-20T14:08:37.000Z</time>
      </trkpt>
      <trkpt lat="47.0664" lon="5.99852">
        <ele>383.60000610352</ele>
        <time>2014-11-20T14:08:44.000Z</time>
      </trkpt>
      <trkpt lat="47.06643" lon="5.9985">
        <ele>383.20001220703</ele>
        <time>2014-11-20T14:08:47.000Z</time>
      </trkpt>
      <trkpt lat="47.06644" lon="5.99848">
        <ele>383.20001220703</ele>
        <time>2014-11-20T14:08:49.000Z</time>
      </trkpt>
      <trkpt lat="47.06646" lon="5.99844">
        <ele>383</ele>
        <time>2014-11-20T14:08:52.000Z</time>
      </trkpt>
      <trkpt lat="47.06647" lon="5.99842">
        <ele>383</ele>
        <time>2014-11-20T14:08:55.000Z</time>
      </trkpt>
      <trkpt lat="47.06648" lon="5.99837">
        <ele>382.79998779297</ele>
        <time>2014-11-20T14:08:59.000Z</time>
      </trkpt>
      <trkpt lat="47.06649" lon="5.99835">
        <ele>382.79998779297</ele>
        <time>2014-11-20T14:09:01.000Z</time>
      </trkpt>
      <trkpt lat="47.06649" lon="5.99829">
        <ele>383</ele>
        <time>2014-11-20T14:09:05.000Z</time>
      </trkpt>
      <trkpt lat="47.0665" lon="5.99826">
        <ele>383</ele>
        <time>2014-11-20T14:09:07.000Z</time>
      </trkpt>
      <trkpt lat="47.06651" lon="5.9982">
        <ele>383</ele>
        <time>2014-11-20T14:09:11.000Z</time>
      </trkpt>
      <trkpt lat="47.06651" lon="5.99819">
        <ele>383</ele>
        <time>2014-11-20T14:09:12.000Z</time>
      </trkpt>
      <trkpt lat="47.06653" lon="5.99813">
        <ele>383</ele>
        <time>2014-11-20T14:09:17.000Z</time>
      </trkpt>
      <trkpt lat="47.06654" lon="5.99805">
        <ele>382.79998779297</ele>
        <time>2014-11-20T14:09:24.000Z</time>
      </trkpt>
      <trkpt lat="47.06654" lon="5.99803">
        <ele>382.79998779297</ele>
        <time>2014-11-20T14:09:25.000Z</time>
      </trkpt>
      <trkpt lat="47.06655" lon="5.99798">
        <ele>383</ele>
        <time>2014-11-20T14:09:29.000Z</time>
      </trkpt>
      <trkpt lat="47.06656" lon="5.99795">
        <ele>383</ele>
        <time>2014-11-20T14:09:32.000Z</time>
      </trkpt>
      <trkpt lat="47.06658" lon="5.99787">
        <ele>383</ele>
        <time>2014-11-20T14:09:37.000Z</time>
      </trkpt>
      <trkpt lat="47.06659" lon="5.99785">
        <ele>383</ele>
        <time>2014-11-20T14:09:39.000Z</time>
      </trkpt>
      <trkpt lat="47.0666" lon="5.99784">
        <ele>382.60000610352</ele>
        <time>2014-11-20T14:09:41.000Z</time>
      </trkpt>
      <trkpt lat="47.06663" lon="5.99775">
        <ele>380</ele>
        <time>2014-11-20T14:09:47.000Z</time>
      </trkpt>
      <trkpt lat="47.06665" lon="5.99771">
        <ele>378.79998779297</ele>
        <time>2014-11-20T14:09:51.000Z</time>
      </trkpt>
      <trkpt lat="47.06668" lon="5.99763">
        <ele>376.60000610352</ele>
        <time>2014-11-20T14:09:57.000Z</time>
      </trkpt>
      <trkpt lat="47.06668" lon="5.99757">
        <ele>376.39999389648</ele>
        <time>2014-11-20T14:10:01.000Z</time>
      </trkpt>
      <trkpt lat="47.0667" lon="5.99754">
        <ele>375.20001220703</ele>
        <time>2014-11-20T14:10:07.000Z</time>
      </trkpt>
      <trkpt lat="47.06672" lon="5.99743">
        <ele>373.60000610352</ele>
        <time>2014-11-20T14:10:36.000Z</time>
      </trkpt>
      <trkpt lat="47.06673" lon="5.99736">
        <ele>373</ele>
        <time>2014-11-20T14:10:42.000Z</time>
      </trkpt>
      <trkpt lat="47.06674" lon="5.99732">
        <ele>372.60000610352</ele>
        <time>2014-11-20T14:10:47.000Z</time>
      </trkpt>
      <trkpt lat="47.06676" lon="5.99732">
        <ele>371</ele>
        <time>2014-11-20T14:11:03.000Z</time>
      </trkpt>
      <trkpt lat="47.06674" lon="5.9973">
        <ele>372.60000610352</ele>
        <time>2014-11-20T14:11:19.000Z</time>
      </trkpt>
      <trkpt lat="47.06674" lon="5.99727">
        <ele>373.60000610352</ele>
        <time>2014-11-20T14:11:23.000Z</time>
      </trkpt>
      <trkpt lat="47.06674" lon="5.99716">
        <ele>373.79998779297</ele>
        <time>2014-11-20T14:11:32.000Z</time>
      </trkpt>
      <trkpt lat="47.06674" lon="5.99715">
        <ele>373.39999389648</ele>
        <time>2014-11-20T14:11:33.000Z</time>
      </trkpt>
      <trkpt lat="47.06677" lon="5.99708">
        <ele>372.20001220703</ele>
        <time>2014-11-20T14:11:39.000Z</time>
      </trkpt>
      <trkpt lat="47.0668" lon="5.99701">
        <ele>369.79998779297</ele>
        <time>2014-11-20T14:11:44.000Z</time>
      </trkpt>
      <trkpt lat="47.0668" lon="5.99699">
        <ele>369.60000610352</ele>
        <time>2014-11-20T14:11:45.000Z</time>
      </trkpt>
      <trkpt lat="47.06681" lon="5.99696">
        <ele>369</ele>
        <time>2014-11-20T14:11:47.000Z</time>
      </trkpt>
      <trkpt lat="47.06682" lon="5.9969">
        <ele>368.20001220703</ele>
        <time>2014-11-20T14:11:51.000Z</time>
      </trkpt>
      <trkpt lat="47.06681" lon="5.99686">
        <ele>369.79998779297</ele>
        <time>2014-11-20T14:11:55.000Z</time>
      </trkpt>
      <trkpt lat="47.06681" lon="5.99683">
        <ele>369.60000610352</ele>
        <time>2014-11-20T14:11:56.000Z</time>
      </trkpt>
      <trkpt lat="47.06681" lon="5.9967">
        <ele>370</ele>
        <time>2014-11-20T14:12:02.000Z</time>
      </trkpt>
      <trkpt lat="47.06682" lon="5.99668">
        <ele>369.20001220703</ele>
        <time>2014-11-20T14:12:03.000Z</time>
      </trkpt>
      <trkpt lat="47.06687" lon="5.99661">
        <ele>366</ele>
        <time>2014-11-20T14:12:09.000Z</time>
      </trkpt>
      <trkpt lat="47.06691" lon="5.99653">
        <ele>364.20001220703</ele>
        <time>2014-11-20T14:12:14.000Z</time>
      </trkpt>
      <trkpt lat="47.06693" lon="5.99644">
        <ele>363.79998779297</ele>
        <time>2014-11-20T14:12:19.000Z</time>
      </trkpt>
      <trkpt lat="47.06695" lon="5.99631">
        <ele>362</ele>
        <time>2014-11-20T14:12:26.000Z</time>
      </trkpt>
      <trkpt lat="47.06695" lon="5.9963">
        <ele>362.20001220703</ele>
        <time>2014-11-20T14:12:27.000Z</time>
      </trkpt>
      <trkpt lat="47.06695" lon="5.99625">
        <ele>362</ele>
        <time>2014-11-20T14:12:30.000Z</time>
      </trkpt>
      <trkpt lat="47.06695" lon="5.99622">
        <ele>361.79998779297</ele>
        <time>2014-11-20T14:12:33.000Z</time>
      </trkpt>
      <trkpt lat="47.06696" lon="5.9962">
        <ele>360.79998779297</ele>
        <time>2014-11-20T14:12:36.000Z</time>
      </trkpt>
      <trkpt lat="47.06701" lon="5.99617">
        <ele>357.20001220703</ele>
        <time>2014-11-20T14:12:42.000Z</time>
      </trkpt>
      <trkpt lat="47.06706" lon="5.99615">
        <ele>353.60000610352</ele>
        <time>2014-11-20T14:12:49.000Z</time>
      </trkpt>
      <trkpt lat="47.06708" lon="5.99614">
        <ele>352.20001220703</ele>
        <time>2014-11-20T14:12:57.000Z</time>
      </trkpt>
      <trkpt lat="47.06709" lon="5.99614">
        <ele>351.20001220703</ele>
        <time>2014-11-20T14:13:05.000Z</time>
      </trkpt>
      <trkpt lat="47.06711" lon="5.99611">
        <ele>349.79998779297</ele>
        <time>2014-11-20T14:13:33.000Z</time>
      </trkpt>
      <trkpt lat="47.06709" lon="5.9961">
        <ele>351.60000610352</ele>
        <time>2014-11-20T14:14:42.000Z</time>
      </trkpt>
      <trkpt lat="47.06705" lon="5.9961">
        <ele>354</ele>
        <time>2014-11-20T14:14:47.000Z</time>
      </trkpt>
      <trkpt lat="47.06702" lon="5.99611">
        <ele>356.60000610352</ele>
        <time>2014-11-20T14:14:55.000Z</time>
      </trkpt>
      <trkpt lat="47.06695" lon="5.99588">
        <ele>362.79998779297</ele>
        <time>2014-11-20T14:16:14.000Z</time>
      </trkpt>
      <trkpt lat="47.06696" lon="5.9958">
        <ele>363.39999389648</ele>
        <time>2014-11-20T14:16:20.000Z</time>
      </trkpt>
      <trkpt lat="47.06697" lon="5.99572">
        <ele>364.20001220703</ele>
        <time>2014-11-20T14:16:27.000Z</time>
      </trkpt>
      <trkpt lat="47.06696" lon="5.99567">
        <ele>365.20001220703</ele>
        <time>2014-11-20T14:16:31.000Z</time>
      </trkpt>
      <trkpt lat="47.06697" lon="5.99563">
        <ele>365.60000610352</ele>
        <time>2014-11-20T14:16:33.000Z</time>
      </trkpt>
      <trkpt lat="47.06698" lon="5.99552">
        <ele>365.39999389648</ele>
        <time>2014-11-20T14:16:42.000Z</time>
      </trkpt>
      <trkpt lat="47.06698" lon="5.9955">
        <ele>365.20001220703</ele>
        <time>2014-11-20T14:16:43.000Z</time>
      </trkpt>
      <trkpt lat="47.06698" lon="5.99547">
        <ele>365</ele>
        <time>2014-11-20T14:16:45.000Z</time>
      </trkpt>
      <trkpt lat="47.06692" lon="5.99543">
        <ele>368</ele>
        <time>2014-11-20T14:16:55.000Z</time>
      </trkpt>
      <trkpt lat="47.0669" lon="5.9954">
        <ele>369</ele>
        <time>2014-11-20T14:17:01.000Z</time>
      </trkpt>
      <trkpt lat="47.06685" lon="5.99537">
        <ele>371.79998779297</ele>
        <time>2014-11-20T14:17:07.000Z</time>
      </trkpt>
      <trkpt lat="47.06678" lon="5.99533">
        <ele>375.39999389648</ele>
        <time>2014-11-20T14:17:14.000Z</time>
      </trkpt>
      <trkpt lat="47.06675" lon="5.99532">
        <ele>377.20001220703</ele>
        <time>2014-11-20T14:17:17.000Z</time>
      </trkpt>
      <trkpt lat="47.06668" lon="5.99527">
        <ele>380.60000610352</ele>
        <time>2014-11-20T14:17:25.000Z</time>
      </trkpt>
      <trkpt lat="47.06664" lon="5.99524">
        <ele>382.60000610352</ele>
        <time>2014-11-20T14:17:29.000Z</time>
      </trkpt>
      <trkpt lat="47.06656" lon="5.99518">
        <ele>385.39999389648</ele>
        <time>2014-11-20T14:17:37.000Z</time>
      </trkpt>
      <trkpt lat="47.0665" lon="5.99514">
        <ele>385.79998779297</ele>
        <time>2014-11-20T14:17:44.000Z</time>
      </trkpt>
      <trkpt lat="47.06646" lon="5.99512">
        <ele>386.20001220703</ele>
        <time>2014-11-20T14:17:47.000Z</time>
      </trkpt>
      <trkpt lat="47.06641" lon="5.9951">
        <ele>386.60000610352</ele>
        <time>2014-11-20T14:17:52.000Z</time>
      </trkpt>
      <trkpt lat="47.06634" lon="5.99507">
        <ele>387</ele>
        <time>2014-11-20T14:17:59.000Z</time>
      </trkpt>
      <trkpt lat="47.06629" lon="5.99503">
        <ele>387.39999389648</ele>
        <time>2014-11-20T14:18:05.000Z</time>
      </trkpt>
      <trkpt lat="47.06625" lon="5.99499">
        <ele>387.60000610352</ele>
        <time>2014-11-20T14:18:09.000Z</time>
      </trkpt>
      <trkpt lat="47.0662" lon="5.99498">
        <ele>387.79998779297</ele>
        <time>2014-11-20T14:18:14.000Z</time>
      </trkpt>
      <trkpt lat="47.06611" lon="5.99495">
        <ele>388.60000610352</ele>
        <time>2014-11-20T14:18:21.000Z</time>
      </trkpt>
      <trkpt lat="47.06608" lon="5.99494">
        <ele>388.79998779297</ele>
        <time>2014-11-20T14:18:24.000Z</time>
      </trkpt>
      <trkpt lat="47.066" lon="5.99488">
        <ele>389.39999389648</ele>
        <time>2014-11-20T14:18:32.000Z</time>
      </trkpt>
      <trkpt lat="47.06597" lon="5.99487">
        <ele>389.60000610352</ele>
        <time>2014-11-20T14:18:35.000Z</time>
      </trkpt>
      <trkpt lat="47.06589" lon="5.99481">
        <ele>390.20001220703</ele>
        <time>2014-11-20T14:18:43.000Z</time>
      </trkpt>
      <trkpt lat="47.06588" lon="5.99481">
        <ele>390.20001220703</ele>
        <time>2014-11-20T14:18:44.000Z</time>
      </trkpt>
      <trkpt lat="47.06579" lon="5.99478">
        <ele>391</ele>
        <time>2014-11-20T14:18:51.000Z</time>
      </trkpt>
      <trkpt lat="47.06571" lon="5.99469">
        <ele>390.39999389648</ele>
        <time>2014-11-20T14:19:00.000Z</time>
      </trkpt>
      <trkpt lat="47.06569" lon="5.99467">
        <ele>390</ele>
        <time>2014-11-20T14:19:02.000Z</time>
      </trkpt>
      <trkpt lat="47.06562" lon="5.9946">
        <ele>389.20001220703</ele>
        <time>2014-11-20T14:19:09.000Z</time>
      </trkpt>
      <trkpt lat="47.06556" lon="5.99451">
        <ele>388.20001220703</ele>
        <time>2014-11-20T14:19:18.000Z</time>
      </trkpt>
      <trkpt lat="47.06553" lon="5.99448">
        <ele>388</ele>
        <time>2014-11-20T14:19:21.000Z</time>
      </trkpt>
      <trkpt lat="47.06548" lon="5.99444">
        <ele>387.39999389648</ele>
        <time>2014-11-20T14:19:26.000Z</time>
      </trkpt>
      <trkpt lat="47.06535" lon="5.99443">
        <ele>387.39999389648</ele>
        <time>2014-11-20T14:19:37.000Z</time>
      </trkpt>
      <trkpt lat="47.06535" lon="5.99442">
        <ele>387.20001220703</ele>
        <time>2014-11-20T14:19:38.000Z</time>
      </trkpt>
      <trkpt lat="47.0653" lon="5.99436">
        <ele>386.39999389648</ele>
        <time>2014-11-20T14:19:43.000Z</time>
      </trkpt>
      <trkpt lat="47.06529" lon="5.99434">
        <ele>386.20001220703</ele>
        <time>2014-11-20T14:19:45.000Z</time>
      </trkpt>
      <trkpt lat="47.06523" lon="5.99426">
        <ele>385.20001220703</ele>
        <time>2014-11-20T14:19:51.000Z</time>
      </trkpt>
      <trkpt lat="47.06522" lon="5.99425">
        <ele>385</ele>
        <time>2014-11-20T14:19:52.000Z</time>
      </trkpt>
      <trkpt lat="47.06516" lon="5.99417">
        <ele>384.20001220703</ele>
        <time>2014-11-20T14:19:59.000Z</time>
      </trkpt>
      <trkpt lat="47.06511" lon="5.99404">
        <ele>382.79998779297</ele>
        <time>2014-11-20T14:20:07.000Z</time>
      </trkpt>
      <trkpt lat="47.0651" lon="5.99401">
        <ele>382.60000610352</ele>
        <time>2014-11-20T14:20:09.000Z</time>
      </trkpt>
      <trkpt lat="47.06509" lon="5.99398">
        <ele>382.20001220703</ele>
        <time>2014-11-20T14:20:15.000Z</time>
      </trkpt>
      <trkpt lat="47.06504" lon="5.99396">
        <ele>382</ele>
        <time>2014-11-20T14:20:23.000Z</time>
      </trkpt>
      <trkpt lat="47.06502" lon="5.99388">
        <ele>380</ele>
        <time>2014-11-20T14:20:58.000Z</time>
      </trkpt>
      <trkpt lat="47.06505" lon="5.99385">
        <ele>378.79998779297</ele>
        <time>2014-11-20T14:21:06.000Z</time>
      </trkpt>
      <trkpt lat="47.06506" lon="5.99384">
        <ele>378.39999389648</ele>
        <time>2014-11-20T14:21:13.000Z</time>
      </trkpt>
      <trkpt lat="47.06502" lon="5.99385">
        <ele>378.39999389648</ele>
        <time>2014-11-20T14:22:52.000Z</time>
      </trkpt>
      <trkpt lat="47.06508" lon="5.99402">
        <ele>382.39999389648</ele>
        <time>2014-11-20T14:24:36.000Z</time>
      </trkpt>
      <trkpt lat="47.06509" lon="5.99408">
        <ele>383</ele>
        <time>2014-11-20T14:24:43.000Z</time>
      </trkpt>
      <trkpt lat="47.06509" lon="5.99413">
        <ele>383.60000610352</ele>
        <time>2014-11-20T14:24:49.000Z</time>
      </trkpt>
      <trkpt lat="47.06512" lon="5.99417">
        <ele>384.20001220703</ele>
        <time>2014-11-20T14:24:55.000Z</time>
      </trkpt>
      <trkpt lat="47.06514" lon="5.99423">
        <ele>385</ele>
        <time>2014-11-20T14:25:01.000Z</time>
      </trkpt>
      <trkpt lat="47.06516" lon="5.99428">
        <ele>385.60000610352</ele>
        <time>2014-11-20T14:25:05.000Z</time>
      </trkpt>
      <trkpt lat="47.06521" lon="5.99432">
        <ele>386.20001220703</ele>
        <time>2014-11-20T14:25:11.000Z</time>
      </trkpt>
      <trkpt lat="47.06525" lon="5.99432">
        <ele>386</ele>
        <time>2014-11-20T14:25:15.000Z</time>
      </trkpt>
      <trkpt lat="47.0654" lon="5.99428">
        <ele>385.79998779297</ele>
        <time>2014-11-20T14:25:27.000Z</time>
      </trkpt>
      <trkpt lat="47.06544" lon="5.99427">
        <ele>386</ele>
        <time>2014-11-20T14:25:31.000Z</time>
      </trkpt>
      <trkpt lat="47.06544" lon="5.99427">
        <ele>386</ele>
        <time>2014-11-20T14:25:32.000Z</time>
      </trkpt>
      <trkpt lat="47.06549" lon="5.99427">
        <ele>386.20001220703</ele>
        <time>2014-11-20T14:25:38.000Z</time>
      </trkpt>
      <trkpt lat="47.06555" lon="5.99425">
        <ele>386.39999389648</ele>
        <time>2014-11-20T14:25:43.000Z</time>
      </trkpt>
      <trkpt lat="47.06562" lon="5.99423">
        <ele>386.60000610352</ele>
        <time>2014-11-20T14:25:51.000Z</time>
      </trkpt>
      <trkpt lat="47.06564" lon="5.99423">
        <ele>386.60000610352</ele>
        <time>2014-11-20T14:25:53.000Z</time>
      </trkpt>
      <trkpt lat="47.06568" lon="5.99421">
        <ele>386.79998779297</ele>
        <time>2014-11-20T14:25:57.000Z</time>
      </trkpt>
      <trkpt lat="47.06569" lon="5.99421">
        <ele>386.79998779297</ele>
        <time>2014-11-20T14:25:59.000Z</time>
      </trkpt>
      <trkpt lat="47.06573" lon="5.99419">
        <ele>386.79998779297</ele>
        <time>2014-11-20T14:26:03.000Z</time>
      </trkpt>
      <trkpt lat="47.06574" lon="5.99419">
        <ele>386.79998779297</ele>
        <time>2014-11-20T14:26:05.000Z</time>
      </trkpt>
      <trkpt lat="47.0658" lon="5.99418">
        <ele>386.39999389648</ele>
        <time>2014-11-20T14:26:11.000Z</time>
      </trkpt>
      <trkpt lat="47.06585" lon="5.99415">
        <ele>385.79998779297</ele>
        <time>2014-11-20T14:26:17.000Z</time>
      </trkpt>
      <trkpt lat="47.06586" lon="5.99415">
        <ele>385.60000610352</ele>
        <time>2014-11-20T14:26:18.000Z</time>
      </trkpt>
      <trkpt lat="47.0659" lon="5.99413">
        <ele>385</ele>
        <time>2014-11-20T14:26:22.000Z</time>
      </trkpt>
      <trkpt lat="47.06592" lon="5.99412">
        <ele>384.60000610352</ele>
        <time>2014-11-20T14:26:24.000Z</time>
      </trkpt>
      <trkpt lat="47.06598" lon="5.99409">
        <ele>384</ele>
        <time>2014-11-20T14:26:32.000Z</time>
      </trkpt>
      <trkpt lat="47.06599" lon="5.99408">
        <ele>384</ele>
        <time>2014-11-20T14:26:33.000Z</time>
      </trkpt>
      <trkpt lat="47.06606" lon="5.99407">
        <ele>383.39999389648</ele>
        <time>2014-11-20T14:26:41.000Z</time>
      </trkpt>
      <trkpt lat="47.06608" lon="5.99407">
        <ele>383.20001220703</ele>
        <time>2014-11-20T14:26:43.000Z</time>
      </trkpt>
      <trkpt lat="47.0661" lon="5.99407">
        <ele>383.20001220703</ele>
        <time>2014-11-20T14:26:46.000Z</time>
      </trkpt>
      <trkpt lat="47.06613" lon="5.99405">
        <ele>382.79998779297</ele>
        <time>2014-11-20T14:26:50.000Z</time>
      </trkpt>
      <trkpt lat="47.06619" lon="5.99403">
        <ele>382.39999389648</ele>
        <time>2014-11-20T14:26:56.000Z</time>
      </trkpt>
      <trkpt lat="47.06621" lon="5.99403">
        <ele>382.20001220703</ele>
        <time>2014-11-20T14:26:59.000Z</time>
      </trkpt>
      <trkpt lat="47.06624" lon="5.99401">
        <ele>381.79998779297</ele>
        <time>2014-11-20T14:27:02.000Z</time>
      </trkpt>
      <trkpt lat="47.0663" lon="5.99399">
        <ele>381.39999389648</ele>
        <time>2014-11-20T14:27:08.000Z</time>
      </trkpt>
      <trkpt lat="47.06633" lon="5.99398">
        <ele>381.20001220703</ele>
        <time>2014-11-20T14:27:11.000Z</time>
      </trkpt>
      <trkpt lat="47.06637" lon="5.99397">
        <ele>380.79998779297</ele>
        <time>2014-11-20T14:27:15.000Z</time>
      </trkpt>
      <trkpt lat="47.0664" lon="5.99397">
        <ele>380.60000610352</ele>
        <time>2014-11-20T14:27:17.000Z</time>
      </trkpt>
      <trkpt lat="47.06649" lon="5.99395">
        <ele>379.79998779297</ele>
        <time>2014-11-20T14:27:25.000Z</time>
      </trkpt>
      <trkpt lat="47.0665" lon="5.99395">
        <ele>379.79998779297</ele>
        <time>2014-11-20T14:27:26.000Z</time>
      </trkpt>
      <trkpt lat="47.06658" lon="5.99394">
        <ele>379.20001220703</ele>
        <time>2014-11-20T14:27:34.000Z</time>
      </trkpt>
      <trkpt lat="47.0666" lon="5.99393">
        <ele>379</ele>
        <time>2014-11-20T14:27:36.000Z</time>
      </trkpt>
      <trkpt lat="47.06665" lon="5.99391">
        <ele>378.20001220703</ele>
        <time>2014-11-20T14:27:41.000Z</time>
      </trkpt>
      <trkpt lat="47.06667" lon="5.99392">
        <ele>378</ele>
        <time>2014-11-20T14:27:43.000Z</time>
      </trkpt>
      <trkpt lat="47.06672" lon="5.99391">
        <ele>377.20001220703</ele>
        <time>2014-11-20T14:27:49.000Z</time>
      </trkpt>
      <trkpt lat="47.06676" lon="5.9939">
        <ele>376.39999389648</ele>
        <time>2014-11-20T14:27:53.000Z</time>
      </trkpt>
      <trkpt lat="47.06681" lon="5.99386">
        <ele>375.39999389648</ele>
        <time>2014-11-20T14:27:57.000Z</time>
      </trkpt>
      <trkpt lat="47.06683" lon="5.99383">
        <ele>374.79998779297</ele>
        <time>2014-11-20T14:28:01.000Z</time>
      </trkpt>
      <trkpt lat="47.06687" lon="5.9938">
        <ele>374</ele>
        <time>2014-11-20T14:28:06.000Z</time>
      </trkpt>
      <trkpt lat="47.06693" lon="5.99377">
        <ele>372.79998779297</ele>
        <time>2014-11-20T14:28:10.000Z</time>
      </trkpt>
      <trkpt lat="47.067" lon="5.99372">
        <ele>371.39999389648</ele>
        <time>2014-11-20T14:28:16.000Z</time>
      </trkpt>
      <trkpt lat="47.06702" lon="5.99371">
        <ele>371</ele>
        <time>2014-11-20T14:28:18.000Z</time>
      </trkpt>
      <trkpt lat="47.0671" lon="5.99364">
        <ele>369.20001220703</ele>
        <time>2014-11-20T14:28:23.000Z</time>
      </trkpt>
      <trkpt lat="47.06713" lon="5.99363">
        <ele>368.60000610352</ele>
        <time>2014-11-20T14:28:26.000Z</time>
      </trkpt>
      <trkpt lat="47.06714" lon="5.99362">
        <ele>368.39999389648</ele>
        <time>2014-11-20T14:28:27.000Z</time>
      </trkpt>
      <trkpt lat="47.06717" lon="5.99361">
        <ele>368.20001220703</ele>
        <time>2014-11-20T14:28:30.000Z</time>
      </trkpt>
      <trkpt lat="47.06727" lon="5.99356">
        <ele>367.20001220703</ele>
        <time>2014-11-20T14:28:38.000Z</time>
      </trkpt>
      <trkpt lat="47.06734" lon="5.99351">
        <ele>366.60000610352</ele>
        <time>2014-11-20T14:28:45.000Z</time>
      </trkpt>
      <trkpt lat="47.06737" lon="5.9935">
        <ele>366.39999389648</ele>
        <time>2014-11-20T14:28:47.000Z</time>
      </trkpt>
      <trkpt lat="47.06742" lon="5.99348">
        <ele>366</ele>
        <time>2014-11-20T14:28:51.000Z</time>
      </trkpt>
      <trkpt lat="47.06748" lon="5.99344">
        <ele>364.20001220703</ele>
        <time>2014-11-20T14:28:55.000Z</time>
      </trkpt>
      <trkpt lat="47.06753" lon="5.99341">
        <ele>362.39999389648</ele>
        <time>2014-11-20T14:29:01.000Z</time>
      </trkpt>
      <trkpt lat="47.06763" lon="5.9934">
        <ele>359.20001220703</ele>
        <time>2014-11-20T14:29:08.000Z</time>
      </trkpt>
      <trkpt lat="47.06765" lon="5.99339">
        <ele>358.60000610352</ele>
        <time>2014-11-20T14:29:09.000Z</time>
      </trkpt>
      <trkpt lat="47.06769" lon="5.99335">
        <ele>357.20001220703</ele>
        <time>2014-11-20T14:29:13.000Z</time>
      </trkpt>
      <trkpt lat="47.06771" lon="5.99333">
        <ele>357.20001220703</ele>
        <time>2014-11-20T14:29:15.000Z</time>
      </trkpt>
      <trkpt lat="47.06782" lon="5.99322">
        <ele>358.60000610352</ele>
        <time>2014-11-20T14:29:28.000Z</time>
      </trkpt>
      <trkpt lat="47.06788" lon="5.99315">
        <ele>359.20001220703</ele>
        <time>2014-11-20T14:29:36.000Z</time>
      </trkpt>
      <trkpt lat="47.0679" lon="5.99313">
        <ele>359.60000610352</ele>
        <time>2014-11-20T14:29:37.000Z</time>
      </trkpt>
      <trkpt lat="47.06793" lon="5.99308">
        <ele>360.20001220703</ele>
        <time>2014-11-20T14:29:46.000Z</time>
      </trkpt>
      <trkpt lat="47.06796" lon="5.99302">
        <ele>358.79998779297</ele>
        <time>2014-11-20T14:30:10.000Z</time>
      </trkpt>
      <trkpt lat="47.06798" lon="5.993">
        <ele>358</ele>
        <time>2014-11-20T14:30:12.000Z</time>
      </trkpt>
      <trkpt lat="47.06801" lon="5.99299">
        <ele>357.60000610352</ele>
        <time>2014-11-20T14:30:17.000Z</time>
      </trkpt>
      <trkpt lat="47.06803" lon="5.99297">
        <ele>357.20001220703</ele>
        <time>2014-11-20T14:30:29.000Z</time>
      </trkpt>
      <trkpt lat="47.06807" lon="5.99297">
        <ele>356.79998779297</ele>
        <time>2014-11-20T14:30:36.000Z</time>
      </trkpt>
      <trkpt lat="47.06803" lon="5.99298">
        <ele>357.39999389648</ele>
        <time>2014-11-20T14:31:29.000Z</time>
      </trkpt>
      <trkpt lat="47.06803" lon="5.99286">
        <ele>354.79998779297</ele>
        <time>2014-11-20T14:31:37.000Z</time>
      </trkpt>
      <trkpt lat="47.06805" lon="5.9928">
        <ele>354.20001220703</ele>
        <time>2014-11-20T14:31:41.000Z</time>
      </trkpt>
      <trkpt lat="47.06812" lon="5.99272">
        <ele>353</ele>
        <time>2014-11-20T14:31:49.000Z</time>
      </trkpt>
      <trkpt lat="47.06821" lon="5.99267">
        <ele>352.20001220703</ele>
        <time>2014-11-20T14:31:58.000Z</time>
      </trkpt>
      <trkpt lat="47.06829" lon="5.99265">
        <ele>351.20001220703</ele>
        <time>2014-11-20T14:32:05.000Z</time>
      </trkpt>
      <trkpt lat="47.06836" lon="5.99262">
        <ele>349.60000610352</ele>
        <time>2014-11-20T14:32:11.000Z</time>
      </trkpt>
      <trkpt lat="47.06847" lon="5.9926">
        <ele>347.20001220703</ele>
        <time>2014-11-20T14:32:19.000Z</time>
      </trkpt>
      <trkpt lat="47.0685" lon="5.9926">
        <ele>346.60000610352</ele>
        <time>2014-11-20T14:32:22.000Z</time>
      </trkpt>
      <trkpt lat="47.06855" lon="5.99257">
        <ele>345.39999389648</ele>
        <time>2014-11-20T14:32:26.000Z</time>
      </trkpt>
      <trkpt lat="47.06865" lon="5.99253">
        <ele>344.39999389648</ele>
        <time>2014-11-20T14:32:35.000Z</time>
      </trkpt>
      <trkpt lat="47.06873" lon="5.99251">
        <ele>343.79998779297</ele>
        <time>2014-11-20T14:32:42.000Z</time>
      </trkpt>
      <trkpt lat="47.0688" lon="5.99251">
        <ele>343.39999389648</ele>
        <time>2014-11-20T14:32:47.000Z</time>
      </trkpt>
      <trkpt lat="47.06887" lon="5.99251">
        <ele>343</ele>
        <time>2014-11-20T14:32:53.000Z</time>
      </trkpt>
      <trkpt lat="47.06893" lon="5.99251">
        <ele>342.60000610352</ele>
        <time>2014-11-20T14:32:58.000Z</time>
      </trkpt>
      <trkpt lat="47.06895" lon="5.99251">
        <ele>342.60000610352</ele>
        <time>2014-11-20T14:33:00.000Z</time>
      </trkpt>
      <trkpt lat="47.06899" lon="5.99251">
        <ele>342.39999389648</ele>
        <time>2014-11-20T14:33:05.000Z</time>
      </trkpt>
      <trkpt lat="47.06909" lon="5.99251">
        <ele>341.79998779297</ele>
        <time>2014-11-20T14:33:13.000Z</time>
      </trkpt>
      <trkpt lat="47.06917" lon="5.9925">
        <ele>340.79998779297</ele>
        <time>2014-11-20T14:33:20.000Z</time>
      </trkpt>
      <trkpt lat="47.06924" lon="5.9925">
        <ele>339.79998779297</ele>
        <time>2014-11-20T14:33:26.000Z</time>
      </trkpt>
      <trkpt lat="47.06926" lon="5.9925">
        <ele>339.39999389648</ele>
        <time>2014-11-20T14:33:28.000Z</time>
      </trkpt>
      <trkpt lat="47.06934" lon="5.99248">
        <ele>338.60000610352</ele>
        <time>2014-11-20T14:33:34.000Z</time>
      </trkpt>
      <trkpt lat="47.06945" lon="5.99248">
        <ele>337.79998779297</ele>
        <time>2014-11-20T14:33:42.000Z</time>
      </trkpt>
      <trkpt lat="47.0695" lon="5.99247">
        <ele>337.60000610352</ele>
        <time>2014-11-20T14:33:47.000Z</time>
      </trkpt>
      <trkpt lat="47.06953" lon="5.99247">
        <ele>337.20001220703</ele>
        <time>2014-11-20T14:33:50.000Z</time>
      </trkpt>
      <trkpt lat="47.06959" lon="5.99247">
        <ele>336.79998779297</ele>
        <time>2014-11-20T14:33:55.000Z</time>
      </trkpt>
      <trkpt lat="47.06963" lon="5.99246">
        <ele>336.60000610352</ele>
        <time>2014-11-20T14:33:58.000Z</time>
      </trkpt>
      <trkpt lat="47.06972" lon="5.99247">
        <ele>336</ele>
        <time>2014-11-20T14:34:05.000Z</time>
      </trkpt>
      <trkpt lat="47.06981" lon="5.99247">
        <ele>335.20001220703</ele>
        <time>2014-11-20T14:34:12.000Z</time>
      </trkpt>
      <trkpt lat="47.06983" lon="5.99247">
        <ele>335.20001220703</ele>
        <time>2014-11-20T14:34:13.000Z</time>
      </trkpt>
      <trkpt lat="47.06992" lon="5.99247">
        <ele>334.39999389648</ele>
        <time>2014-11-20T14:34:20.000Z</time>
      </trkpt>
      <trkpt lat="47.06997" lon="5.99248">
        <ele>333.79998779297</ele>
        <time>2014-11-20T14:34:25.000Z</time>
      </trkpt>
      <trkpt lat="47.07002" lon="5.9925">
        <ele>332.79998779297</ele>
        <time>2014-11-20T14:34:31.000Z</time>
      </trkpt>
      <trkpt lat="47.07006" lon="5.99251">
        <ele>332.20001220703</ele>
        <time>2014-11-20T14:34:35.000Z</time>
      </trkpt>
      <trkpt lat="47.07008" lon="5.99252">
        <ele>331.79998779297</ele>
        <time>2014-11-20T14:34:37.000Z</time>
      </trkpt>
      <trkpt lat="47.07013" lon="5.99253">
        <ele>331.20001220703</ele>
        <time>2014-11-20T14:34:41.000Z</time>
      </trkpt>
      <trkpt lat="47.07025" lon="5.99256">
        <ele>329.20001220703</ele>
        <time>2014-11-20T14:34:50.000Z</time>
      </trkpt>
      <trkpt lat="47.07028" lon="5.99259">
        <ele>328.60000610352</ele>
        <time>2014-11-20T14:34:53.000Z</time>
      </trkpt>
      <trkpt lat="47.07031" lon="5.99266">
        <ele>327.60000610352</ele>
        <time>2014-11-20T14:34:59.000Z</time>
      </trkpt>
      <trkpt lat="47.07034" lon="5.99272">
        <ele>326.60000610352</ele>
        <time>2014-11-20T14:35:03.000Z</time>
      </trkpt>
      <trkpt lat="47.07035" lon="5.99272">
        <ele>326.60000610352</ele>
        <time>2014-11-20T14:35:04.000Z</time>
      </trkpt>
      <trkpt lat="47.07036" lon="5.99273">
        <ele>326.39999389648</ele>
        <time>2014-11-20T14:35:05.000Z</time>
      </trkpt>
      <trkpt lat="47.07041" lon="5.9928">
        <ele>325.20001220703</ele>
        <time>2014-11-20T14:35:11.000Z</time>
      </trkpt>
      <trkpt lat="47.07041" lon="5.99281">
        <ele>325</ele>
        <time>2014-11-20T14:35:12.000Z</time>
      </trkpt>
      <trkpt lat="47.07046" lon="5.99283">
        <ele>324.20001220703</ele>
        <time>2014-11-20T14:35:22.000Z</time>
      </trkpt>
      <trkpt lat="47.07047" lon="5.99286">
        <ele>323.79998779297</ele>
        <time>2014-11-20T14:35:24.000Z</time>
      </trkpt>
      <trkpt lat="47.07058" lon="5.99299">
        <ele>321.20001220703</ele>
        <time>2014-11-20T14:35:35.000Z</time>
      </trkpt>
      <trkpt lat="47.07069" lon="5.99303">
        <ele>319.39999389648</ele>
        <time>2014-11-20T14:35:44.000Z</time>
      </trkpt>
      <trkpt lat="47.07075" lon="5.99301">
        <ele>319</ele>
        <time>2014-11-20T14:35:49.000Z</time>
      </trkpt>
      <trkpt lat="47.07078" lon="5.99295">
        <ele>319.20001220703</ele>
        <time>2014-11-20T14:35:54.000Z</time>
      </trkpt>
      <trkpt lat="47.07081" lon="5.99284">
        <ele>320</ele>
        <time>2014-11-20T14:36:02.000Z</time>
      </trkpt>
      <trkpt lat="47.07075" lon="5.99271">
        <ele>322.60000610352</ele>
        <time>2014-11-20T14:36:11.000Z</time>
      </trkpt>
      <trkpt lat="47.07073" lon="5.99268">
        <ele>323.20001220703</ele>
        <time>2014-11-20T14:36:14.000Z</time>
      </trkpt>
      <trkpt lat="47.07067" lon="5.99263">
        <ele>324.39999389648</ele>
        <time>2014-11-20T14:36:20.000Z</time>
      </trkpt>
      <trkpt lat="47.07066" lon="5.99262">
        <ele>324.39999389648</ele>
        <time>2014-11-20T14:36:21.000Z</time>
      </trkpt>
      <trkpt lat="47.07061" lon="5.99257">
        <ele>325.60000610352</ele>
        <time>2014-11-20T14:36:26.000Z</time>
      </trkpt>
      <trkpt lat="47.0705" lon="5.99246">
        <ele>328</ele>
        <time>2014-11-20T14:36:39.000Z</time>
      </trkpt>
      <trkpt lat="47.07051" lon="5.99242">
        <ele>328.39999389648</ele>
        <time>2014-11-20T14:36:44.000Z</time>
      </trkpt>
      <trkpt lat="47.07054" lon="5.99239">
        <ele>328.60000610352</ele>
        <time>2014-11-20T14:36:47.000Z</time>
      </trkpt>
      <trkpt lat="47.07059" lon="5.99234">
        <ele>328.60000610352</ele>
        <time>2014-11-20T14:36:52.000Z</time>
      </trkpt>
      <trkpt lat="47.0706" lon="5.99234">
        <ele>328.39999389648</ele>
        <time>2014-11-20T14:36:54.000Z</time>
      </trkpt>
      <trkpt lat="47.07064" lon="5.99232">
        <ele>328.39999389648</ele>
        <time>2014-11-20T14:37:00.000Z</time>
      </trkpt>
      <trkpt lat="47.07067" lon="5.99228">
        <ele>328.39999389648</ele>
        <time>2014-11-20T14:37:05.000Z</time>
      </trkpt>
      <trkpt lat="47.07071" lon="5.99227">
        <ele>328.20001220703</ele>
        <time>2014-11-20T14:37:10.000Z</time>
      </trkpt>
      <trkpt lat="47.07075" lon="5.99224">
        <ele>327.79998779297</ele>
        <time>2014-11-20T14:37:14.000Z</time>
      </trkpt>
      <trkpt lat="47.07076" lon="5.99221">
        <ele>327.60000610352</ele>
        <time>2014-11-20T14:37:16.000Z</time>
      </trkpt>
      <trkpt lat="47.07078" lon="5.99218">
        <ele>327</ele>
        <time>2014-11-20T14:37:21.000Z</time>
      </trkpt>
      <trkpt lat="47.07081" lon="5.99218">
        <ele>326.60000610352</ele>
        <time>2014-11-20T14:37:29.000Z</time>
      </trkpt>
      <trkpt lat="47.07083" lon="5.99216">
        <ele>325.79998779297</ele>
        <time>2014-11-20T14:37:34.000Z</time>
      </trkpt>
      <trkpt lat="47.07084" lon="5.99216">
        <ele>325.79998779297</ele>
        <time>2014-11-20T14:37:41.000Z</time>
      </trkpt>
      <trkpt lat="47.07086" lon="5.99211">
        <ele>325</ele>
        <time>2014-11-20T14:38:01.000Z</time>
      </trkpt>
      <trkpt lat="47.07088" lon="5.99203">
        <ele>323.79998779297</ele>
        <time>2014-11-20T14:38:25.000Z</time>
      </trkpt>
      <trkpt lat="47.07087" lon="5.99199">
        <ele>323.60000610352</ele>
        <time>2014-11-20T14:38:31.000Z</time>
      </trkpt>
      <trkpt lat="47.07083" lon="5.99192">
        <ele>323.39999389648</ele>
        <time>2014-11-20T14:38:38.000Z</time>
      </trkpt>
      <trkpt lat="47.07075" lon="5.99185">
        <ele>323.60000610352</ele>
        <time>2014-11-20T14:38:47.000Z</time>
      </trkpt>
      <trkpt lat="47.07069" lon="5.9918">
        <ele>323</ele>
        <time>2014-11-20T14:38:54.000Z</time>
      </trkpt>
      <trkpt lat="47.07068" lon="5.99179">
        <ele>323</ele>
        <time>2014-11-20T14:38:55.000Z</time>
      </trkpt>
      <trkpt lat="47.0707" lon="5.99173">
        <ele>322.39999389648</ele>
        <time>2014-11-20T14:39:08.000Z</time>
      </trkpt>
      <trkpt lat="47.07072" lon="5.99166">
        <ele>321.60000610352</ele>
        <time>2014-11-20T14:39:14.000Z</time>
      </trkpt>
      <trkpt lat="47.07073" lon="5.99164">
        <ele>321.39999389648</ele>
        <time>2014-11-20T14:39:16.000Z</time>
      </trkpt>
      <trkpt lat="47.07079" lon="5.99156">
        <ele>320.20001220703</ele>
        <time>2014-11-20T14:39:24.000Z</time>
      </trkpt>
      <trkpt lat="47.07084" lon="5.99154">
        <ele>319</ele>
        <time>2014-11-20T14:39:31.000Z</time>
      </trkpt>
      <trkpt lat="47.07086" lon="5.99151">
        <ele>318.60000610352</ele>
        <time>2014-11-20T14:39:35.000Z</time>
      </trkpt>
      <trkpt lat="47.07092" lon="5.99147">
        <ele>318.79998779297</ele>
        <time>2014-11-20T14:39:40.000Z</time>
      </trkpt>
      <trkpt lat="47.07096" lon="5.99142">
        <ele>319.20001220703</ele>
        <time>2014-11-20T14:39:45.000Z</time>
      </trkpt>
      <trkpt lat="47.07099" lon="5.99139">
        <ele>318.79998779297</ele>
        <time>2014-11-20T14:39:48.000Z</time>
      </trkpt>
      <trkpt lat="47.071" lon="5.99137">
        <ele>318.60000610352</ele>
        <time>2014-11-20T14:39:50.000Z</time>
      </trkpt>
      <trkpt lat="47.07102" lon="5.99133">
        <ele>318</ele>
        <time>2014-11-20T14:39:53.000Z</time>
      </trkpt>
      <trkpt lat="47.07107" lon="5.99124">
        <ele>316.60000610352</ele>
        <time>2014-11-20T14:40:01.000Z</time>
      </trkpt>
      <trkpt lat="47.07107" lon="5.99123">
        <ele>316.60000610352</ele>
        <time>2014-11-20T14:40:02.000Z</time>
      </trkpt>
      <trkpt lat="47.07112" lon="5.99113">
        <ele>315</ele>
        <time>2014-11-20T14:40:10.000Z</time>
      </trkpt>
      <trkpt lat="47.07113" lon="5.9911">
        <ele>314.60000610352</ele>
        <time>2014-11-20T14:40:12.000Z</time>
      </trkpt>
      <trkpt lat="47.07114" lon="5.99106">
        <ele>314</ele>
        <time>2014-11-20T14:40:15.000Z</time>
      </trkpt>
      <trkpt lat="47.07118" lon="5.99096">
        <ele>312.79998779297</ele>
        <time>2014-11-20T14:40:20.000Z</time>
      </trkpt>
      <trkpt lat="47.07118" lon="5.99093">
        <ele>312.60000610352</ele>
        <time>2014-11-20T14:40:21.000Z</time>
      </trkpt>
      <trkpt lat="47.07119" lon="5.99089">
        <ele>312.39999389648</ele>
        <time>2014-11-20T14:40:24.000Z</time>
      </trkpt>
      <trkpt lat="47.07121" lon="5.9908">
        <ele>312.20001220703</ele>
        <time>2014-11-20T14:40:29.000Z</time>
      </trkpt>
      <trkpt lat="47.07121" lon="5.99079">
        <ele>312.20001220703</ele>
        <time>2014-11-20T14:40:30.000Z</time>
      </trkpt>
      <trkpt lat="47.07123" lon="5.99075">
        <ele>312</ele>
        <time>2014-11-20T14:40:33.000Z</time>
      </trkpt>
      <trkpt lat="47.07124" lon="5.99067">
        <ele>311.79998779297</ele>
        <time>2014-11-20T14:40:39.000Z</time>
      </trkpt>
      <trkpt lat="47.07126" lon="5.9906">
        <ele>311.60000610352</ele>
        <time>2014-11-20T14:40:44.000Z</time>
      </trkpt>
      <trkpt lat="47.07128" lon="5.99057">
        <ele>311.39999389648</ele>
        <time>2014-11-20T14:40:46.000Z</time>
      </trkpt>
      <trkpt lat="47.07129" lon="5.99051">
        <ele>311.39999389648</ele>
        <time>2014-11-20T14:40:50.000Z</time>
      </trkpt>
      <trkpt lat="47.07131" lon="5.99048">
        <ele>311.39999389648</ele>
        <time>2014-11-20T14:40:52.000Z</time>
      </trkpt>
      <trkpt lat="47.07133" lon="5.99041">
        <ele>311.39999389648</ele>
        <time>2014-11-20T14:40:56.000Z</time>
      </trkpt>
      <trkpt lat="47.07134" lon="5.99037">
        <ele>311.20001220703</ele>
        <time>2014-11-20T14:40:58.000Z</time>
      </trkpt>
      <trkpt lat="47.07135" lon="5.99034">
        <ele>311.20001220703</ele>
        <time>2014-11-20T14:41:00.000Z</time>
      </trkpt>
      <trkpt lat="47.07139" lon="5.99025">
        <ele>310.20001220703</ele>
        <time>2014-11-20T14:41:06.000Z</time>
      </trkpt>
      <trkpt lat="47.0714" lon="5.99022">
        <ele>310</ele>
        <time>2014-11-20T14:41:08.000Z</time>
      </trkpt>
      <trkpt lat="47.0714" lon="5.9902">
        <ele>309.60000610352</ele>
        <time>2014-11-20T14:41:10.000Z</time>
      </trkpt>
      <trkpt lat="47.07143" lon="5.99012">
        <ele>309</ele>
        <time>2014-11-20T14:41:14.000Z</time>
      </trkpt>
      <trkpt lat="47.07144" lon="5.99009">
        <ele>308.60000610352</ele>
        <time>2014-11-20T14:41:16.000Z</time>
      </trkpt>
      <trkpt lat="47.07145" lon="5.99005">
        <ele>308</ele>
        <time>2014-11-20T14:41:19.000Z</time>
      </trkpt>
      <trkpt lat="47.07152" lon="5.98996">
        <ele>307.20001220703</ele>
        <time>2014-11-20T14:41:27.000Z</time>
      </trkpt>
      <trkpt lat="47.07152" lon="5.98995">
        <ele>307.20001220703</ele>
        <time>2014-11-20T14:41:28.000Z</time>
      </trkpt>
      <trkpt lat="47.07155" lon="5.98991">
        <ele>306.79998779297</ele>
        <time>2014-11-20T14:41:32.000Z</time>
      </trkpt>
      <trkpt lat="47.07157" lon="5.9899">
        <ele>306.79998779297</ele>
        <time>2014-11-20T14:41:34.000Z</time>
      </trkpt>
      <trkpt lat="47.07161" lon="5.98987">
        <ele>306.20001220703</ele>
        <time>2014-11-20T14:41:38.000Z</time>
      </trkpt>
      <trkpt lat="47.07161" lon="5.98987">
        <ele>306.20001220703</ele>
        <time>2014-11-20T14:41:39.000Z</time>
      </trkpt>
      <trkpt lat="47.07164" lon="5.98985">
        <ele>305.79998779297</ele>
        <time>2014-11-20T14:41:40.000Z</time>
      </trkpt>
      <trkpt lat="47.07169" lon="5.98982">
        <ele>305</ele>
        <time>2014-11-20T14:41:44.000Z</time>
      </trkpt>
      <trkpt lat="47.07177" lon="5.98978">
        <ele>304.60000610352</ele>
        <time>2014-11-20T14:41:50.000Z</time>
      </trkpt>
      <trkpt lat="47.07178" lon="5.98978">
        <ele>304.60000610352</ele>
        <time>2014-11-20T14:41:51.000Z</time>
      </trkpt>
      <trkpt lat="47.0718" lon="5.98975">
        <ele>304.20001220703</ele>
        <time>2014-11-20T14:41:53.000Z</time>
      </trkpt>
      <trkpt lat="47.07188" lon="5.9897">
        <ele>303.60000610352</ele>
        <time>2014-11-20T14:41:58.000Z</time>
      </trkpt>
      <trkpt lat="47.07193" lon="5.98965">
        <ele>303</ele>
        <time>2014-11-20T14:42:03.000Z</time>
      </trkpt>
      <trkpt lat="47.07197" lon="5.98961">
        <ele>302.39999389648</ele>
        <time>2014-11-20T14:42:07.000Z</time>
      </trkpt>
      <trkpt lat="47.07201" lon="5.98958">
        <ele>302</ele>
        <time>2014-11-20T14:42:12.000Z</time>
      </trkpt>
      <trkpt lat="47.07202" lon="5.98951">
        <ele>301.39999389648</ele>
        <time>2014-11-20T14:42:17.000Z</time>
      </trkpt>
      <trkpt lat="47.07202" lon="5.9895">
        <ele>301.39999389648</ele>
        <time>2014-11-20T14:42:18.000Z</time>
      </trkpt>
      <trkpt lat="47.07201" lon="5.98943">
        <ele>300.79998779297</ele>
        <time>2014-11-20T14:42:23.000Z</time>
      </trkpt>
      <trkpt lat="47.07202" lon="5.98939">
        <ele>300.60000610352</ele>
        <time>2014-11-20T14:42:26.000Z</time>
      </trkpt>
      <trkpt lat="47.072" lon="5.98935">
        <ele>300.20001220703</ele>
        <time>2014-11-20T14:42:29.000Z</time>
      </trkpt>
      <trkpt lat="47.07198" lon="5.98926">
        <ele>299.60000610352</ele>
        <time>2014-11-20T14:42:34.000Z</time>
      </trkpt>
      <trkpt lat="47.07196" lon="5.98922">
        <ele>299.60000610352</ele>
        <time>2014-11-20T14:42:37.000Z</time>
      </trkpt>
      <trkpt lat="47.07194" lon="5.98913">
        <ele>299.20001220703</ele>
        <time>2014-11-20T14:42:42.000Z</time>
      </trkpt>
      <trkpt lat="47.07191" lon="5.98904">
        <ele>298.79998779297</ele>
        <time>2014-11-20T14:42:47.000Z</time>
      </trkpt>
      <trkpt lat="47.07189" lon="5.98898">
        <ele>298.60000610352</ele>
        <time>2014-11-20T14:42:50.000Z</time>
      </trkpt>
      <trkpt lat="47.07188" lon="5.98894">
        <ele>298.39999389648</ele>
        <time>2014-11-20T14:42:52.000Z</time>
      </trkpt>
      <trkpt lat="47.07187" lon="5.98883">
        <ele>298.20001220703</ele>
        <time>2014-11-20T14:42:57.000Z</time>
      </trkpt>
      <trkpt lat="47.07184" lon="5.98874">
        <ele>298</ele>
        <time>2014-11-20T14:43:01.000Z</time>
      </trkpt>
      <trkpt lat="47.07179" lon="5.98864">
        <ele>298</ele>
        <time>2014-11-20T14:43:07.000Z</time>
      </trkpt>
      <trkpt lat="47.0717" lon="5.98853">
        <ele>297.60000610352</ele>
        <time>2014-11-20T14:43:16.000Z</time>
      </trkpt>
      <trkpt lat="47.07169" lon="5.98851">
        <ele>297.60000610352</ele>
        <time>2014-11-20T14:43:17.000Z</time>
      </trkpt>
      <trkpt lat="47.07163" lon="5.98844">
        <ele>297.39999389648</ele>
        <time>2014-11-20T14:43:26.000Z</time>
      </trkpt>
      <trkpt lat="47.0716" lon="5.9884">
        <ele>297.39999389648</ele>
        <time>2014-11-20T14:43:32.000Z</time>
      </trkpt>
      <trkpt lat="47.0716" lon="5.98832">
        <ele>297.20001220703</ele>
        <time>2014-11-20T14:43:41.000Z</time>
      </trkpt>
      <trkpt lat="47.07161" lon="5.9883">
        <ele>297.20001220703</ele>
        <time>2014-11-20T14:43:51.000Z</time>
      </trkpt>
      <trkpt lat="47.07165" lon="5.98832">
        <ele>297.39999389648</ele>
        <time>2014-11-20T14:44:33.000Z</time>
      </trkpt>
      <trkpt lat="47.07166" lon="5.98833">
        <ele>297.39999389648</ele>
        <time>2014-11-20T14:45:01.000Z</time>
      </trkpt>
      <trkpt lat="47.07166" lon="5.98837">
        <ele>297.39999389648</ele>
        <time>2014-11-20T14:45:06.000Z</time>
      </trkpt>
      <trkpt lat="47.07168" lon="5.98842">
        <ele>297.60000610352</ele>
        <time>2014-11-20T14:45:12.000Z</time>
      </trkpt>
      <trkpt lat="47.07171" lon="5.98848">
        <ele>297.60000610352</ele>
        <time>2014-11-20T14:45:18.000Z</time>
      </trkpt>
      <trkpt lat="47.07175" lon="5.98856">
        <ele>297.79998779297</ele>
        <time>2014-11-20T14:45:25.000Z</time>
      </trkpt>
      <trkpt lat="47.07179" lon="5.98864">
        <ele>298</ele>
        <time>2014-11-20T14:45:32.000Z</time>
      </trkpt>
      <trkpt lat="47.0718" lon="5.98866">
        <ele>298</ele>
        <time>2014-11-20T14:45:34.000Z</time>
      </trkpt>
      <trkpt lat="47.07182" lon="5.9887">
        <ele>298</ele>
        <time>2014-11-20T14:45:37.000Z</time>
      </trkpt>
      <trkpt lat="47.07183" lon="5.98874">
        <ele>298</ele>
        <time>2014-11-20T14:45:40.000Z</time>
      </trkpt>
      <trkpt lat="47.07183" lon="5.98878">
        <ele>298.20001220703</ele>
        <time>2014-11-20T14:45:44.000Z</time>
      </trkpt>
      <trkpt lat="47.07184" lon="5.9888">
        <ele>298.20001220703</ele>
        <time>2014-11-20T14:45:46.000Z</time>
      </trkpt>
      <trkpt lat="47.07186" lon="5.98888">
        <ele>298.20001220703</ele>
        <time>2014-11-20T14:45:52.000Z</time>
      </trkpt>
      <trkpt lat="47.07189" lon="5.98893">
        <ele>298.39999389648</ele>
        <time>2014-11-20T14:45:56.000Z</time>
      </trkpt>
      <trkpt lat="47.07195" lon="5.98905">
        <ele>299</ele>
        <time>2014-11-20T14:46:04.000Z</time>
      </trkpt>
      <trkpt lat="47.07198" lon="5.98916">
        <ele>299.39999389648</ele>
        <time>2014-11-20T14:46:11.000Z</time>
      </trkpt>
      <trkpt lat="47.072" lon="5.98923">
        <ele>299.60000610352</ele>
        <time>2014-11-20T14:46:15.000Z</time>
      </trkpt>
      <trkpt lat="47.072" lon="5.98932">
        <ele>300</ele>
        <time>2014-11-20T14:46:20.000Z</time>
      </trkpt>
      <trkpt lat="47.072" lon="5.98933">
        <ele>300</ele>
        <time>2014-11-20T14:46:21.000Z</time>
      </trkpt>
      <trkpt lat="47.072" lon="5.98934">
        <ele>300.20001220703</ele>
        <time>2014-11-20T14:46:22.000Z</time>
      </trkpt>
      <trkpt lat="47.07206" lon="5.98936">
        <ele>300.20001220703</ele>
        <time>2014-11-20T14:46:31.000Z</time>
      </trkpt>
      <trkpt lat="47.07206" lon="5.98949">
        <ele>301.20001220703</ele>
        <time>2014-11-20T14:46:46.000Z</time>
      </trkpt>
      <trkpt lat="47.07206" lon="5.9895">
        <ele>301.20001220703</ele>
        <time>2014-11-20T14:46:47.000Z</time>
      </trkpt>
      <trkpt lat="47.07204" lon="5.98954">
        <ele>301.60000610352</ele>
        <time>2014-11-20T14:46:51.000Z</time>
      </trkpt>
      <trkpt lat="47.07199" lon="5.98955">
        <ele>302</ele>
        <time>2014-11-20T14:46:56.000Z</time>
      </trkpt>
      <trkpt lat="47.07194" lon="5.9896">
        <ele>302.60000610352</ele>
        <time>2014-11-20T14:47:03.000Z</time>
      </trkpt>
      <trkpt lat="47.07191" lon="5.98965">
        <ele>303</ele>
        <time>2014-11-20T14:47:08.000Z</time>
      </trkpt>
      <trkpt lat="47.07188" lon="5.98968">
        <ele>303.39999389648</ele>
        <time>2014-11-20T14:47:14.000Z</time>
      </trkpt>
      <trkpt lat="47.07181" lon="5.98973">
        <ele>304.20001220703</ele>
        <time>2014-11-20T14:47:22.000Z</time>
      </trkpt>
      <trkpt lat="47.07179" lon="5.98975">
        <ele>304.39999389648</ele>
        <time>2014-11-20T14:47:24.000Z</time>
      </trkpt>
      <trkpt lat="47.07176" lon="5.98977">
        <ele>304.60000610352</ele>
        <time>2014-11-20T14:47:28.000Z</time>
      </trkpt>
      <trkpt lat="47.0717" lon="5.98983">
        <ele>305</ele>
        <time>2014-11-20T14:47:34.000Z</time>
      </trkpt>
      <trkpt lat="47.07169" lon="5.98983">
        <ele>305</ele>
        <time>2014-11-20T14:47:35.000Z</time>
      </trkpt>
      <trkpt lat="47.07169" lon="5.98984">
        <ele>305.20001220703</ele>
        <time>2014-11-20T14:47:36.000Z</time>
      </trkpt>
      <trkpt lat="47.07162" lon="5.9899">
        <ele>306.60000610352</ele>
        <time>2014-11-20T14:47:42.000Z</time>
      </trkpt>
      <trkpt lat="47.0716" lon="5.98991">
        <ele>306.79998779297</ele>
        <time>2014-11-20T14:47:43.000Z</time>
      </trkpt>
      <trkpt lat="47.0716" lon="5.98991">
        <ele>307</ele>
        <time>2014-11-20T14:47:44.000Z</time>
      </trkpt>
      <trkpt lat="47.07156" lon="5.98998">
        <ele>307.60000610352</ele>
        <time>2014-11-20T14:47:50.000Z</time>
      </trkpt>
      <trkpt lat="47.07151" lon="5.99005">
        <ele>308.39999389648</ele>
        <time>2014-11-20T14:47:56.000Z</time>
      </trkpt>
      <trkpt lat="47.0715" lon="5.99005">
        <ele>308.39999389648</ele>
        <time>2014-11-20T14:47:57.000Z</time>
      </trkpt>
      <trkpt lat="47.07149" lon="5.99006">
        <ele>308.39999389648</ele>
        <time>2014-11-20T14:47:59.000Z</time>
      </trkpt>
      <trkpt lat="47.07145" lon="5.99011">
        <ele>308.79998779297</ele>
        <time>2014-11-20T14:48:06.000Z</time>
      </trkpt>
      <trkpt lat="47.07144" lon="5.99012">
        <ele>309</ele>
        <time>2014-11-20T14:48:08.000Z</time>
      </trkpt>
      <trkpt lat="47.0714" lon="5.99018">
        <ele>309.39999389648</ele>
        <time>2014-11-20T14:48:14.000Z</time>
      </trkpt>
      <trkpt lat="47.07139" lon="5.99021">
        <ele>309.79998779297</ele>
        <time>2014-11-20T14:48:16.000Z</time>
      </trkpt>
      <trkpt lat="47.07138" lon="5.99023">
        <ele>310</ele>
        <time>2014-11-20T14:48:19.000Z</time>
      </trkpt>
      <trkpt lat="47.07135" lon="5.99032">
        <ele>311</ele>
        <time>2014-11-20T14:48:27.000Z</time>
      </trkpt>
      <trkpt lat="47.07134" lon="5.99034">
        <ele>311</ele>
        <time>2014-11-20T14:48:31.000Z</time>
      </trkpt>
      <trkpt lat="47.07131" lon="5.99041">
        <ele>311</ele>
        <time>2014-11-20T14:48:37.000Z</time>
      </trkpt>
      <trkpt lat="47.07128" lon="5.99051">
        <ele>311.20001220703</ele>
        <time>2014-11-20T14:48:44.000Z</time>
      </trkpt>
      <trkpt lat="47.07128" lon="5.99052">
        <ele>311.39999389648</ele>
        <time>2014-11-20T14:48:45.000Z</time>
      </trkpt>
      <trkpt lat="47.07127" lon="5.99054">
        <ele>311.39999389648</ele>
        <time>2014-11-20T14:48:48.000Z</time>
      </trkpt>
      <trkpt lat="47.07126" lon="5.9906">
        <ele>311.39999389648</ele>
        <time>2014-11-20T14:48:52.000Z</time>
      </trkpt>
      <trkpt lat="47.07124" lon="5.99067">
        <ele>311.60000610352</ele>
        <time>2014-11-20T14:48:58.000Z</time>
      </trkpt>
      <trkpt lat="47.07124" lon="5.99067">
        <ele>311.60000610352</ele>
        <time>2014-11-20T14:48:59.000Z</time>
      </trkpt>
      <trkpt lat="47.07123" lon="5.99072">
        <ele>311.79998779297</ele>
        <time>2014-11-20T14:49:03.000Z</time>
      </trkpt>
      <trkpt lat="47.07121" lon="5.99076">
        <ele>312</ele>
        <time>2014-11-20T14:49:07.000Z</time>
      </trkpt>
      <trkpt lat="47.07119" lon="5.9908">
        <ele>312</ele>
        <time>2014-11-20T14:49:10.000Z</time>
      </trkpt>
      <trkpt lat="47.07118" lon="5.99089">
        <ele>312.39999389648</ele>
        <time>2014-11-20T14:49:15.000Z</time>
      </trkpt>
      <trkpt lat="47.07117" lon="5.99091">
        <ele>312.39999389648</ele>
        <time>2014-11-20T14:49:16.000Z</time>
      </trkpt>
      <trkpt lat="47.07114" lon="5.99101">
        <ele>313</ele>
        <time>2014-11-20T14:49:21.000Z</time>
      </trkpt>
      <trkpt lat="47.07112" lon="5.99112">
        <ele>314.79998779297</ele>
        <time>2014-11-20T14:49:25.000Z</time>
      </trkpt>
      <trkpt lat="47.07109" lon="5.99118">
        <ele>315.60000610352</ele>
        <time>2014-11-20T14:49:29.000Z</time>
      </trkpt>
      <trkpt lat="47.07105" lon="5.99124">
        <ele>316.60000610352</ele>
        <time>2014-11-20T14:49:35.000Z</time>
      </trkpt>
      <trkpt lat="47.07102" lon="5.9913">
        <ele>317.39999389648</ele>
        <time>2014-11-20T14:49:39.000Z</time>
      </trkpt>
      <trkpt lat="47.07101" lon="5.99132">
        <ele>317.79998779297</ele>
        <time>2014-11-20T14:49:42.000Z</time>
      </trkpt>
      <trkpt lat="47.07098" lon="5.99134">
        <ele>318</ele>
        <time>2014-11-20T14:49:44.000Z</time>
      </trkpt>
      <trkpt lat="47.07093" lon="5.99139">
        <ele>318.79998779297</ele>
        <time>2014-11-20T14:49:50.000Z</time>
      </trkpt>
      <trkpt lat="47.07091" lon="5.99142">
        <ele>319.20001220703</ele>
        <time>2014-11-20T14:49:52.000Z</time>
      </trkpt>
      <trkpt lat="47.07084" lon="5.99148">
        <ele>318.79998779297</ele>
        <time>2014-11-20T14:49:58.000Z</time>
      </trkpt>
      <trkpt lat="47.07079" lon="5.99154">
        <ele>319.79998779297</ele>
        <time>2014-11-20T14:50:03.000Z</time>
      </trkpt>
      <trkpt lat="47.07076" lon="5.99159">
        <ele>320.79998779297</ele>
        <time>2014-11-20T14:50:08.000Z</time>
      </trkpt>
      <trkpt lat="47.07075" lon="5.99164">
        <ele>321.39999389648</ele>
        <time>2014-11-20T14:50:12.000Z</time>
      </trkpt>
      <trkpt lat="47.07074" lon="5.99168">
        <ele>321.79998779297</ele>
        <time>2014-11-20T14:50:14.000Z</time>
      </trkpt>
      <trkpt lat="47.07071" lon="5.99172">
        <ele>322.20001220703</ele>
        <time>2014-11-20T14:50:19.000Z</time>
      </trkpt>
      <trkpt lat="47.07068" lon="5.99175">
        <ele>322.39999389648</ele>
        <time>2014-11-20T14:50:27.000Z</time>
      </trkpt>
      <trkpt lat="47.07061" lon="5.99178">
        <ele>322.79998779297</ele>
        <time>2014-11-20T14:50:34.000Z</time>
      </trkpt>
      <trkpt lat="47.0706" lon="5.99178">
        <ele>322.79998779297</ele>
        <time>2014-11-20T14:50:35.000Z</time>
      </trkpt>
      <trkpt lat="47.07053" lon="5.99178">
        <ele>322.79998779297</ele>
        <time>2014-11-20T14:50:42.000Z</time>
      </trkpt>
      <trkpt lat="47.07052" lon="5.99178">
        <ele>322.60000610352</ele>
        <time>2014-11-20T14:50:43.000Z</time>
      </trkpt>
      <trkpt lat="47.0705" lon="5.99178">
        <ele>322.60000610352</ele>
        <time>2014-11-20T14:50:45.000Z</time>
      </trkpt>
      <trkpt lat="47.07046" lon="5.99177">
        <ele>322.39999389648</ele>
        <time>2014-11-20T14:50:49.000Z</time>
      </trkpt>
      <trkpt lat="47.07045" lon="5.99177">
        <ele>322.39999389648</ele>
        <time>2014-11-20T14:50:50.000Z</time>
      </trkpt>
      <trkpt lat="47.07039" lon="5.99177">
        <ele>322.39999389648</ele>
        <time>2014-11-20T14:50:55.000Z</time>
      </trkpt>
      <trkpt lat="47.07038" lon="5.99177">
        <ele>322.39999389648</ele>
        <time>2014-11-20T14:50:56.000Z</time>
      </trkpt>
      <trkpt lat="47.07032" lon="5.99178">
        <ele>322.39999389648</ele>
        <time>2014-11-20T14:51:02.000Z</time>
      </trkpt>
      <trkpt lat="47.07027" lon="5.99175">
        <ele>322</ele>
        <time>2014-11-20T14:51:06.000Z</time>
      </trkpt>
      <trkpt lat="47.07025" lon="5.99175">
        <ele>322</ele>
        <time>2014-11-20T14:51:08.000Z</time>
      </trkpt>
      <trkpt lat="47.07021" lon="5.99176">
        <ele>322.79998779297</ele>
        <time>2014-11-20T14:51:11.000Z</time>
      </trkpt>
      <trkpt lat="47.07016" lon="5.99176">
        <ele>323.20001220703</ele>
        <time>2014-11-20T14:51:15.000Z</time>
      </trkpt>
      <trkpt lat="47.07009" lon="5.99175">
        <ele>323.60000610352</ele>
        <time>2014-11-20T14:51:19.000Z</time>
      </trkpt>
      <trkpt lat="47.07002" lon="5.99174">
        <ele>324.20001220703</ele>
        <time>2014-11-20T14:51:25.000Z</time>
      </trkpt>
      <trkpt lat="47.06997" lon="5.99174">
        <ele>324.60000610352</ele>
        <time>2014-11-20T14:51:29.000Z</time>
      </trkpt>
      <trkpt lat="47.06989" lon="5.99174">
        <ele>325</ele>
        <time>2014-11-20T14:51:35.000Z</time>
      </trkpt>
      <trkpt lat="47.06987" lon="5.99174">
        <ele>325</ele>
        <time>2014-11-20T14:51:37.000Z</time>
      </trkpt>
      <trkpt lat="47.06984" lon="5.99174">
        <ele>325</ele>
        <time>2014-11-20T14:51:41.000Z</time>
      </trkpt>
      <trkpt lat="47.06977" lon="5.99174">
        <ele>325.20001220703</ele>
        <time>2014-11-20T14:51:47.000Z</time>
      </trkpt>
      <trkpt lat="47.06973" lon="5.99171">
        <ele>324.60000610352</ele>
        <time>2014-11-20T14:51:52.000Z</time>
      </trkpt>
      <trkpt lat="47.06966" lon="5.99171">
        <ele>324.79998779297</ele>
        <time>2014-11-20T14:51:58.000Z</time>
      </trkpt>
      <trkpt lat="47.06965" lon="5.99172">
        <ele>324.79998779297</ele>
        <time>2014-11-20T14:51:59.000Z</time>
      </trkpt>
      <trkpt lat="47.06955" lon="5.99173">
        <ele>325.39999389648</ele>
        <time>2014-11-20T14:52:07.000Z</time>
      </trkpt>
      <trkpt lat="47.0695" lon="5.99173">
        <ele>325.20001220703</ele>
        <time>2014-11-20T14:52:11.000Z</time>
      </trkpt>
      <trkpt lat="47.06941" lon="5.99172">
        <ele>325.20001220703</ele>
        <time>2014-11-20T14:52:19.000Z</time>
      </trkpt>
      <trkpt lat="47.06933" lon="5.99172">
        <ele>325.60000610352</ele>
        <time>2014-11-20T14:52:26.000Z</time>
      </trkpt>
      <trkpt lat="47.0693" lon="5.99172">
        <ele>325.79998779297</ele>
        <time>2014-11-20T14:52:31.000Z</time>
      </trkpt>
      <trkpt lat="47.06928" lon="5.99171">
        <ele>325.79998779297</ele>
        <time>2014-11-20T14:52:33.000Z</time>
      </trkpt>
      <trkpt lat="47.06925" lon="5.9917">
        <ele>325.60000610352</ele>
        <time>2014-11-20T14:52:37.000Z</time>
      </trkpt>
      <trkpt lat="47.06923" lon="5.99168">
        <ele>325.39999389648</ele>
        <time>2014-11-20T14:52:39.000Z</time>
      </trkpt>
      <trkpt lat="47.0692" lon="5.99164">
        <ele>324.39999389648</ele>
        <time>2014-11-20T14:52:43.000Z</time>
      </trkpt>
      <trkpt lat="47.06919" lon="5.99164">
        <ele>324.60000610352</ele>
        <time>2014-11-20T14:52:45.000Z</time>
      </trkpt>
      <trkpt lat="47.06913" lon="5.99165">
        <ele>325.20001220703</ele>
        <time>2014-11-20T14:52:49.000Z</time>
      </trkpt>
      <trkpt lat="47.0691" lon="5.99165">
        <ele>325.39999389648</ele>
        <time>2014-11-20T14:52:51.000Z</time>
      </trkpt>
      <trkpt lat="47.069" lon="5.99163">
        <ele>325.60000610352</ele>
        <time>2014-11-20T14:52:58.000Z</time>
      </trkpt>
      <trkpt lat="47.06895" lon="5.99163">
        <ele>325.79998779297</ele>
        <time>2014-11-20T14:53:03.000Z</time>
      </trkpt>
      <trkpt lat="47.06891" lon="5.9916">
        <ele>325.39999389648</ele>
        <time>2014-11-20T14:53:07.000Z</time>
      </trkpt>
      <trkpt lat="47.06884" lon="5.99158">
        <ele>325</ele>
        <time>2014-11-20T14:53:13.000Z</time>
      </trkpt>
      <trkpt lat="47.06877" lon="5.99156">
        <ele>324.79998779297</ele>
        <time>2014-11-20T14:53:18.000Z</time>
      </trkpt>
      <trkpt lat="47.06875" lon="5.99153">
        <ele>324.39999389648</ele>
        <time>2014-11-20T14:53:20.000Z</time>
      </trkpt>
      <trkpt lat="47.06865" lon="5.99153">
        <ele>324.79998779297</ele>
        <time>2014-11-20T14:53:26.000Z</time>
      </trkpt>
      <trkpt lat="47.06864" lon="5.99153">
        <ele>325</ele>
        <time>2014-11-20T14:53:27.000Z</time>
      </trkpt>
      <trkpt lat="47.06862" lon="5.99153">
        <ele>325</ele>
        <time>2014-11-20T14:53:28.000Z</time>
      </trkpt>
      <trkpt lat="47.06858" lon="5.99152">
        <ele>325</ele>
        <time>2014-11-20T14:53:32.000Z</time>
      </trkpt>
      <trkpt lat="47.0685" lon="5.99151">
        <ele>325.20001220703</ele>
        <time>2014-11-20T14:53:37.000Z</time>
      </trkpt>
      <trkpt lat="47.0685" lon="5.99151">
        <ele>325.20001220703</ele>
        <time>2014-11-20T14:53:38.000Z</time>
      </trkpt>
      <trkpt lat="47.06845" lon="5.99148">
        <ele>324.79998779297</ele>
        <time>2014-11-20T14:53:42.000Z</time>
      </trkpt>
      <trkpt lat="47.06841" lon="5.99148">
        <ele>324.79998779297</ele>
        <time>2014-11-20T14:53:45.000Z</time>
      </trkpt>
      <trkpt lat="47.06833" lon="5.99143">
        <ele>323.79998779297</ele>
        <time>2014-11-20T14:53:52.000Z</time>
      </trkpt>
      <trkpt lat="47.06831" lon="5.99142">
        <ele>323.79998779297</ele>
        <time>2014-11-20T14:53:54.000Z</time>
      </trkpt>
      <trkpt lat="47.06825" lon="5.99139">
        <ele>323.39999389648</ele>
        <time>2014-11-20T14:54:00.000Z</time>
      </trkpt>
      <trkpt lat="47.06824" lon="5.99138">
        <ele>323</ele>
        <time>2014-11-20T14:54:02.000Z</time>
      </trkpt>
      <trkpt lat="47.06818" lon="5.99133">
        <ele>322</ele>
        <time>2014-11-20T14:54:07.000Z</time>
      </trkpt>
      <trkpt lat="47.06816" lon="5.99131">
        <ele>321.39999389648</ele>
        <time>2014-11-20T14:54:09.000Z</time>
      </trkpt>
      <trkpt lat="47.0681" lon="5.99129">
        <ele>321</ele>
        <time>2014-11-20T14:54:13.000Z</time>
      </trkpt>
      <trkpt lat="47.06805" lon="5.99126">
        <ele>320.39999389648</ele>
        <time>2014-11-20T14:54:17.000Z</time>
      </trkpt>
      <trkpt lat="47.06798" lon="5.99124">
        <ele>320.20001220703</ele>
        <time>2014-11-20T14:54:23.000Z</time>
      </trkpt>
      <trkpt lat="47.06793" lon="5.99121">
        <ele>319.60000610352</ele>
        <time>2014-11-20T14:54:28.000Z</time>
      </trkpt>
      <trkpt lat="47.06785" lon="5.99113">
        <ele>317.60000610352</ele>
        <time>2014-11-20T14:54:36.000Z</time>
      </trkpt>
      <trkpt lat="47.06783" lon="5.99113">
        <ele>317.60000610352</ele>
        <time>2014-11-20T14:54:37.000Z</time>
      </trkpt>
      <trkpt lat="47.0678" lon="5.99112">
        <ele>317.60000610352</ele>
        <time>2014-11-20T14:54:40.000Z</time>
      </trkpt>
      <trkpt lat="47.0677" lon="5.99107">
        <ele>316.39999389648</ele>
        <time>2014-11-20T14:54:47.000Z</time>
      </trkpt>
      <trkpt lat="47.06762" lon="5.99102">
        <ele>315.39999389648</ele>
        <time>2014-11-20T14:54:54.000Z</time>
      </trkpt>
      <trkpt lat="47.06759" lon="5.991">
        <ele>315</ele>
        <time>2014-11-20T14:54:57.000Z</time>
      </trkpt>
      <trkpt lat="47.06755" lon="5.99098">
        <ele>314.60000610352</ele>
        <time>2014-11-20T14:55:01.000Z</time>
      </trkpt>
      <trkpt lat="47.06749" lon="5.99095">
        <ele>313.79998779297</ele>
        <time>2014-11-20T14:55:08.000Z</time>
      </trkpt>
      <trkpt lat="47.0674" lon="5.9909">
        <ele>312.79998779297</ele>
        <time>2014-11-20T14:55:15.000Z</time>
      </trkpt>
      <trkpt lat="47.06731" lon="5.99088">
        <ele>311.79998779297</ele>
        <time>2014-11-20T14:55:22.000Z</time>
      </trkpt>
      <trkpt lat="47.06722" lon="5.99086">
        <ele>311</ele>
        <time>2014-11-20T14:55:28.000Z</time>
      </trkpt>
      <trkpt lat="47.06716" lon="5.99084">
        <ele>310.39999389648</ele>
        <time>2014-11-20T14:55:32.000Z</time>
      </trkpt>
      <trkpt lat="47.0671" lon="5.99083">
        <ele>310.20001220703</ele>
        <time>2014-11-20T14:55:37.000Z</time>
      </trkpt>
      <trkpt lat="47.06705" lon="5.99084">
        <ele>310.20001220703</ele>
        <time>2014-11-20T14:55:41.000Z</time>
      </trkpt>
      <trkpt lat="47.06694" lon="5.99085">
        <ele>310.20001220703</ele>
        <time>2014-11-20T14:55:50.000Z</time>
      </trkpt>
      <trkpt lat="47.06685" lon="5.99089">
        <ele>311</ele>
        <time>2014-11-20T14:55:56.000Z</time>
      </trkpt>
      <trkpt lat="47.06674" lon="5.99093">
        <ele>311.60000610352</ele>
        <time>2014-11-20T14:56:05.000Z</time>
      </trkpt>
      <trkpt lat="47.06666" lon="5.99097">
        <ele>312.20001220703</ele>
        <time>2014-11-20T14:56:12.000Z</time>
      </trkpt>
      <trkpt lat="47.06658" lon="5.99101">
        <ele>312.79998779297</ele>
        <time>2014-11-20T14:56:19.000Z</time>
      </trkpt>
      <trkpt lat="47.06649" lon="5.99108">
        <ele>314.39999389648</ele>
        <time>2014-11-20T14:56:25.000Z</time>
      </trkpt>
      <trkpt lat="47.06647" lon="5.9911">
        <ele>315.20001220703</ele>
        <time>2014-11-20T14:56:28.000Z</time>
      </trkpt>
      <trkpt lat="47.0664" lon="5.99115">
        <ele>316.20001220703</ele>
        <time>2014-11-20T14:56:35.000Z</time>
      </trkpt>
      <trkpt lat="47.0664" lon="5.99115">
        <ele>316.20001220703</ele>
        <time>2014-11-20T14:56:36.000Z</time>
      </trkpt>
      <trkpt lat="47.06635" lon="5.99118">
        <ele>316.79998779297</ele>
        <time>2014-11-20T14:56:41.000Z</time>
      </trkpt>
      <trkpt lat="47.06626" lon="5.99125">
        <ele>316.20001220703</ele>
        <time>2014-11-20T14:56:48.000Z</time>
      </trkpt>
      <trkpt lat="47.06623" lon="5.99127">
        <ele>316.20001220703</ele>
        <time>2014-11-20T14:56:50.000Z</time>
      </trkpt>
      <trkpt lat="47.06616" lon="5.99133">
        <ele>315.79998779297</ele>
        <time>2014-11-20T14:56:56.000Z</time>
      </trkpt>
      <trkpt lat="47.06615" lon="5.99133">
        <ele>315.79998779297</ele>
        <time>2014-11-20T14:56:57.000Z</time>
      </trkpt>
      <trkpt lat="47.06614" lon="5.99134">
        <ele>315.60000610352</ele>
        <time>2014-11-20T14:56:58.000Z</time>
      </trkpt>
      <trkpt lat="47.06609" lon="5.99139">
        <ele>315.39999389648</ele>
        <time>2014-11-20T14:57:04.000Z</time>
      </trkpt>
      <trkpt lat="47.06608" lon="5.9914">
        <ele>315.39999389648</ele>
        <time>2014-11-20T14:57:07.000Z</time>
      </trkpt>
      <trkpt lat="47.06601" lon="5.99146">
        <ele>315.79998779297</ele>
        <time>2014-11-20T14:57:12.000Z</time>
      </trkpt>
      <trkpt lat="47.06596" lon="5.9915">
        <ele>316.39999389648</ele>
        <time>2014-11-20T14:57:16.000Z</time>
      </trkpt>
      <trkpt lat="47.06593" lon="5.99153">
        <ele>317</ele>
        <time>2014-11-20T14:57:18.000Z</time>
      </trkpt>
      <trkpt lat="47.06585" lon="5.99162">
        <ele>317.79998779297</ele>
        <time>2014-11-20T14:57:25.000Z</time>
      </trkpt>
      <trkpt lat="47.0658" lon="5.99168">
        <ele>318.79998779297</ele>
        <time>2014-11-20T14:57:30.000Z</time>
      </trkpt>
      <trkpt lat="47.06573" lon="5.99175">
        <ele>319.39999389648</ele>
        <time>2014-11-20T14:57:35.000Z</time>
      </trkpt>
      <trkpt lat="47.06569" lon="5.99178">
        <ele>320</ele>
        <time>2014-11-20T14:57:38.000Z</time>
      </trkpt>
      <trkpt lat="47.06565" lon="5.99181">
        <ele>320.39999389648</ele>
        <time>2014-11-20T14:57:42.000Z</time>
      </trkpt>
      <trkpt lat="47.06561" lon="5.99186">
        <ele>321.39999389648</ele>
        <time>2014-11-20T14:57:47.000Z</time>
      </trkpt>
      <trkpt lat="47.0656" lon="5.99188">
        <ele>321.79998779297</ele>
        <time>2014-11-20T14:57:49.000Z</time>
      </trkpt>
      <trkpt lat="47.06555" lon="5.99195">
        <ele>323</ele>
        <time>2014-11-20T14:57:54.000Z</time>
      </trkpt>
      <trkpt lat="47.06551" lon="5.99202">
        <ele>324</ele>
        <time>2014-11-20T14:57:59.000Z</time>
      </trkpt>
      <trkpt lat="47.06544" lon="5.99207">
        <ele>322.39999389648</ele>
        <time>2014-11-20T14:58:04.000Z</time>
      </trkpt>
      <trkpt lat="47.06538" lon="5.99217">
        <ele>321.60000610352</ele>
        <time>2014-11-20T14:58:11.000Z</time>
      </trkpt>
      <trkpt lat="47.06538" lon="5.99218">
        <ele>321.39999389648</ele>
        <time>2014-11-20T14:58:12.000Z</time>
      </trkpt>
      <trkpt lat="47.06533" lon="5.99224">
        <ele>320.39999389648</ele>
        <time>2014-11-20T14:58:16.000Z</time>
      </trkpt>
      <trkpt lat="47.06529" lon="5.99229">
        <ele>321.20001220703</ele>
        <time>2014-11-20T14:58:21.000Z</time>
      </trkpt>
      <trkpt lat="47.06528" lon="5.9923">
        <ele>321.60000610352</ele>
        <time>2014-11-20T14:58:22.000Z</time>
      </trkpt>
      <trkpt lat="47.06527" lon="5.99233">
        <ele>322.20001220703</ele>
        <time>2014-11-20T14:58:23.000Z</time>
      </trkpt>
      <trkpt lat="47.0652" lon="5.99244">
        <ele>324.79998779297</ele>
        <time>2014-11-20T14:58:31.000Z</time>
      </trkpt>
      <trkpt lat="47.06516" lon="5.99249">
        <ele>326</ele>
        <time>2014-11-20T14:58:36.000Z</time>
      </trkpt>
      <trkpt lat="47.0651" lon="5.99257">
        <ele>327.39999389648</ele>
        <time>2014-11-20T14:58:41.000Z</time>
      </trkpt>
      <trkpt lat="47.06505" lon="5.99265">
        <ele>329.20001220703</ele>
        <time>2014-11-20T14:58:47.000Z</time>
      </trkpt>
      <trkpt lat="47.06502" lon="5.9927">
        <ele>330.20001220703</ele>
        <time>2014-11-20T14:58:51.000Z</time>
      </trkpt>
      <trkpt lat="47.06501" lon="5.99271">
        <ele>330.39999389648</ele>
        <time>2014-11-20T14:58:52.000Z</time>
      </trkpt>
      <trkpt lat="47.06499" lon="5.99273">
        <ele>330.79998779297</ele>
        <time>2014-11-20T14:58:54.000Z</time>
      </trkpt>
      <trkpt lat="47.06495" lon="5.99281">
        <ele>332.39999389648</ele>
        <time>2014-11-20T14:59:00.000Z</time>
      </trkpt>
      <trkpt lat="47.06492" lon="5.99287">
        <ele>334.20001220703</ele>
        <time>2014-11-20T14:59:04.000Z</time>
      </trkpt>
      <trkpt lat="47.06487" lon="5.99293">
        <ele>335.79998779297</ele>
        <time>2014-11-20T14:59:09.000Z</time>
      </trkpt>
      <trkpt lat="47.06486" lon="5.99294">
        <ele>336.39999389648</ele>
        <time>2014-11-20T14:59:10.000Z</time>
      </trkpt>
      <trkpt lat="47.06481" lon="5.993">
        <ele>337</ele>
        <time>2014-11-20T14:59:14.000Z</time>
      </trkpt>
      <trkpt lat="47.06477" lon="5.99305">
        <ele>336.60000610352</ele>
        <time>2014-11-20T14:59:18.000Z</time>
      </trkpt>
      <trkpt lat="47.06469" lon="5.99314">
        <ele>337</ele>
        <time>2014-11-20T14:59:25.000Z</time>
      </trkpt>
      <trkpt lat="47.06461" lon="5.9932">
        <ele>337.20001220703</ele>
        <time>2014-11-20T14:59:31.000Z</time>
      </trkpt>
      <trkpt lat="47.06458" lon="5.99323">
        <ele>337.39999389648</ele>
        <time>2014-11-20T14:59:35.000Z</time>
      </trkpt>
      <trkpt lat="47.06454" lon="5.99326">
        <ele>337.20001220703</ele>
        <time>2014-11-20T14:59:42.000Z</time>
      </trkpt>
      <trkpt lat="47.06452" lon="5.99327">
        <ele>336.79998779297</ele>
        <time>2014-11-20T14:59:45.000Z</time>
      </trkpt>
      <trkpt lat="47.06447" lon="5.99329">
        <ele>336</ele>
        <time>2014-11-20T14:59:51.000Z</time>
      </trkpt>
      <trkpt lat="47.06446" lon="5.99329">
        <ele>335.60000610352</ele>
        <time>2014-11-20T14:59:52.000Z</time>
      </trkpt>
      <trkpt lat="47.06444" lon="5.9933">
        <ele>335.60000610352</ele>
        <time>2014-11-20T14:59:53.000Z</time>
      </trkpt>
      <trkpt lat="47.06438" lon="5.99335">
        <ele>335.39999389648</ele>
        <time>2014-11-20T14:59:59.000Z</time>
      </trkpt>
      <trkpt lat="47.06437" lon="5.99335">
        <ele>335.20001220703</ele>
        <time>2014-11-20T15:00:00.000Z</time>
      </trkpt>
      <trkpt lat="47.06429" lon="5.99339">
        <ele>335.60000610352</ele>
        <time>2014-11-20T15:00:07.000Z</time>
      </trkpt>
      <trkpt lat="47.06425" lon="5.9934">
        <ele>335.20001220703</ele>
        <time>2014-11-20T15:00:10.000Z</time>
      </trkpt>
      <trkpt lat="47.06417" lon="5.99344">
        <ele>335.79998779297</ele>
        <time>2014-11-20T15:00:17.000Z</time>
      </trkpt>
      <trkpt lat="47.06413" lon="5.99345">
        <ele>335.60000610352</ele>
        <time>2014-11-20T15:00:22.000Z</time>
      </trkpt>
      <trkpt lat="47.06412" lon="5.99345">
        <ele>335.39999389648</ele>
        <time>2014-11-20T15:00:23.000Z</time>
      </trkpt>
      <trkpt lat="47.06409" lon="5.99346">
        <ele>335.39999389648</ele>
        <time>2014-11-20T15:00:26.000Z</time>
      </trkpt>
      <trkpt lat="47.06402" lon="5.99345">
        <ele>335.20001220703</ele>
        <time>2014-11-20T15:00:33.000Z</time>
      </trkpt>
      <trkpt lat="47.06398" lon="5.99345">
        <ele>335</ele>
        <time>2014-11-20T15:00:37.000Z</time>
      </trkpt>
      <trkpt lat="47.06397" lon="5.99345">
        <ele>334.60000610352</ele>
        <time>2014-11-20T15:00:38.000Z</time>
      </trkpt>
      <trkpt lat="47.06396" lon="5.99345">
        <ele>334.39999389648</ele>
        <time>2014-11-20T15:00:39.000Z</time>
      </trkpt>
      <trkpt lat="47.06391" lon="5.99346">
        <ele>335.20001220703</ele>
        <time>2014-11-20T15:00:44.000Z</time>
      </trkpt>
      <trkpt lat="47.06385" lon="5.99346">
        <ele>335</ele>
        <time>2014-11-20T15:00:49.000Z</time>
      </trkpt>
      <trkpt lat="47.06384" lon="5.99346">
        <ele>335</ele>
        <time>2014-11-20T15:00:50.000Z</time>
      </trkpt>
      <trkpt lat="47.06382" lon="5.99346">
        <ele>334.79998779297</ele>
        <time>2014-11-20T15:00:52.000Z</time>
      </trkpt>
      <trkpt lat="47.06377" lon="5.99344">
        <ele>333.60000610352</ele>
        <time>2014-11-20T15:00:56.000Z</time>
      </trkpt>
      <trkpt lat="47.06371" lon="5.99337">
        <ele>329.20001220703</ele>
        <time>2014-11-20T15:01:03.000Z</time>
      </trkpt>
      <trkpt lat="47.06371" lon="5.99336">
        <ele>328.60000610352</ele>
        <time>2014-11-20T15:01:04.000Z</time>
      </trkpt>
      <trkpt lat="47.06372" lon="5.99332">
        <ele>326.20001220703</ele>
        <time>2014-11-20T15:01:10.000Z</time>
      </trkpt>
      <trkpt lat="47.0637" lon="5.99324">
        <ele>321.79998779297</ele>
        <time>2014-11-20T15:01:35.000Z</time>
      </trkpt>
      <trkpt lat="47.06371" lon="5.99318">
        <ele>317.79998779297</ele>
        <time>2014-11-20T15:01:42.000Z</time>
      </trkpt>
      <trkpt lat="47.06369" lon="5.99314">
        <ele>315.60000610352</ele>
        <time>2014-11-20T15:01:47.000Z</time>
      </trkpt>
      <trkpt lat="47.06366" lon="5.99307">
        <ele>311.79998779297</ele>
        <time>2014-11-20T15:01:54.000Z</time>
      </trkpt>
      <trkpt lat="47.06363" lon="5.99303">
        <ele>311.20001220703</ele>
        <time>2014-11-20T15:02:01.000Z</time>
      </trkpt>
      <trkpt lat="47.0636" lon="5.99299">
        <ele>310.60000610352</ele>
        <time>2014-11-20T15:02:13.000Z</time>
      </trkpt>
      <trkpt lat="47.06361" lon="5.99303">
        <ele>311.20001220703</ele>
        <time>2014-11-20T15:02:20.000Z</time>
      </trkpt>
      <trkpt lat="47.06363" lon="5.99299">
        <ele>310.60000610352</ele>
        <time>2014-11-20T15:02:41.000Z</time>
      </trkpt>
      <trkpt lat="47.06362" lon="5.99304">
        <ele>311.20001220703</ele>
        <time>2014-11-20T15:03:00.000Z</time>
      </trkpt>
      <trkpt lat="47.06361" lon="5.99305">
        <ele>311.39999389648</ele>
        <time>2014-11-20T15:03:06.000Z</time>
      </trkpt>
      <trkpt lat="47.06361" lon="5.99302">
        <ele>311</ele>
        <time>2014-11-20T15:03:16.000Z</time>
      </trkpt>
      <trkpt lat="47.0636" lon="5.99303">
        <ele>311</ele>
        <time>2014-11-20T15:04:14.000Z</time>
      </trkpt>
      <trkpt lat="47.06357" lon="5.99304">
        <ele>311.20001220703</ele>
        <time>2014-11-20T15:04:28.000Z</time>
      </trkpt>
      <trkpt lat="47.06357" lon="5.99304">
        <ele>311.20001220703</ele>
        <time>2014-11-20T15:04:30.000Z</time>
      </trkpt>
      <trkpt lat="47.06359" lon="5.99304">
        <ele>311.20001220703</ele>
        <time>2014-11-20T15:04:41.000Z</time>
      </trkpt>
      <trkpt lat="47.0636" lon="5.99305">
        <ele>311.20001220703</ele>
        <time>2014-11-20T15:04:52.000Z</time>
      </trkpt>
      <trkpt lat="47.06362" lon="5.99307">
        <ele>311.60000610352</ele>
        <time>2014-11-20T15:05:43.000Z</time>
      </trkpt>
      <trkpt lat="47.06362" lon="5.99303">
        <ele>311</ele>
        <time>2014-11-20T15:06:01.000Z</time>
      </trkpt>
      <trkpt lat="47.06363" lon="5.99302">
        <ele>311</ele>
        <time>2014-11-20T15:06:09.000Z</time>
      </trkpt>
      <trkpt lat="47.06364" lon="5.99302">
        <ele>311</ele>
        <time>2014-11-20T15:06:18.000Z</time>
      </trkpt>
      <trkpt lat="47.06361" lon="5.99303">
        <ele>311.20001220703</ele>
        <time>2014-11-20T15:07:41.000Z</time>
      </trkpt>
      <trkpt lat="47.0636" lon="5.99302">
        <ele>310.79998779297</ele>
        <time>2014-11-20T15:07:50.000Z</time>
      </trkpt>
      <trkpt lat="47.0636" lon="5.99304">
        <ele>311.20001220703</ele>
        <time>2014-11-20T15:08:05.000Z</time>
      </trkpt>
      <trkpt lat="47.06359" lon="5.99301">
        <ele>310.79998779297</ele>
        <time>2014-11-20T15:08:18.000Z</time>
      </trkpt>
      <trkpt lat="47.0636" lon="5.99303">
        <ele>311</ele>
        <time>2014-11-20T15:08:27.000Z</time>
      </trkpt>
      <trkpt lat="47.06372" lon="5.9931">
        <ele>313.39999389648</ele>
        <time>2014-11-20T15:10:47.000Z</time>
      </trkpt>
      <trkpt lat="47.0637" lon="5.99314">
        <ele>315.79998779297</ele>
        <time>2014-11-20T15:10:55.000Z</time>
      </trkpt>
      <trkpt lat="47.06367" lon="5.99309">
        <ele>312.20001220703</ele>
        <time>2014-11-20T15:11:45.000Z</time>
      </trkpt>
      <trkpt lat="47.06365" lon="5.99313">
        <ele>314.60000610352</ele>
        <time>2014-11-20T15:13:23.000Z</time>
      </trkpt>
      <trkpt lat="47.06363" lon="5.99312">
        <ele>314</ele>
        <time>2014-11-20T15:13:30.000Z</time>
      </trkpt>
      <trkpt lat="47.06359" lon="5.99309">
        <ele>312.20001220703</ele>
        <time>2014-11-20T15:13:36.000Z</time>
      </trkpt>
      <trkpt lat="47.06363" lon="5.99307">
        <ele>311.79998779297</ele>
        <time>2014-11-20T15:13:44.000Z</time>
      </trkpt>
      <trkpt lat="47.06364" lon="5.99308">
        <ele>312</ele>
        <time>2014-11-20T15:13:49.000Z</time>
      </trkpt>
      <trkpt lat="47.06368" lon="5.99307">
        <ele>311.79998779297</ele>
        <time>2014-11-20T15:16:52.000Z</time>
      </trkpt>
      <trkpt lat="47.06372" lon="5.99312">
        <ele>314.39999389648</ele>
        <time>2014-11-20T15:17:10.000Z</time>
      </trkpt>
      <trkpt lat="47.06372" lon="5.99311">
        <ele>313.60000610352</ele>
        <time>2014-11-20T15:17:17.000Z</time>
      </trkpt>
      <trkpt lat="47.06371" lon="5.99312">
        <ele>314.20001220703</ele>
        <time>2014-11-20T15:17:27.000Z</time>
      </trkpt>
      <trkpt lat="47.06365" lon="5.99294">
        <ele>309.79998779297</ele>
        <time>2014-11-20T15:18:36.000Z</time>
      </trkpt>
      <trkpt lat="47.06373" lon="5.99288">
        <ele>309.20001220703</ele>
        <time>2014-11-20T15:19:50.000Z</time>
      </trkpt>
      <trkpt lat="47.06371" lon="5.99293">
        <ele>310</ele>
        <time>2014-11-20T15:20:00.000Z</time>
      </trkpt>
      <trkpt lat="47.0637" lon="5.99299">
        <ele>310.79998779297</ele>
        <time>2014-11-20T15:20:06.000Z</time>
      </trkpt>
      <trkpt lat="47.06369" lon="5.99303">
        <ele>311.20001220703</ele>
        <time>2014-11-20T15:20:11.000Z</time>
      </trkpt>
      <trkpt lat="47.06369" lon="5.99308">
        <ele>312</ele>
        <time>2014-11-20T15:20:17.000Z</time>
      </trkpt>
      <trkpt lat="47.06368" lon="5.99312">
        <ele>314.39999389648</ele>
        <time>2014-11-20T15:20:23.000Z</time>
      </trkpt>
      <trkpt lat="47.06368" lon="5.99317">
        <ele>317</ele>
        <time>2014-11-20T15:20:30.000Z</time>
      </trkpt>
      <trkpt lat="47.06367" lon="5.99321">
        <ele>319.60000610352</ele>
        <time>2014-11-20T15:20:36.000Z</time>
      </trkpt>
      <trkpt lat="47.06366" lon="5.99325">
        <ele>321.79998779297</ele>
        <time>2014-11-20T15:20:42.000Z</time>
      </trkpt>
      <trkpt lat="47.06362" lon="5.99322">
        <ele>320.20001220703</ele>
        <time>2014-11-20T15:20:48.000Z</time>
      </trkpt>
      <trkpt lat="47.06353" lon="5.99316">
        <ele>316.20001220703</ele>
        <time>2014-11-20T15:20:56.000Z</time>
      </trkpt>
      <trkpt lat="47.06353" lon="5.99315">
        <ele>316</ele>
        <time>2014-11-20T15:20:57.000Z</time>
      </trkpt>
      <trkpt lat="47.06347" lon="5.99312">
        <ele>313.79998779297</ele>
        <time>2014-11-20T15:21:03.000Z</time>
      </trkpt>
      <trkpt lat="47.06339" lon="5.99309">
        <ele>311.39999389648</ele>
        <time>2014-11-20T15:21:10.000Z</time>
      </trkpt>
      <trkpt lat="47.06338" lon="5.99308">
        <ele>311.39999389648</ele>
        <time>2014-11-20T15:21:11.000Z</time>
      </trkpt>
      <trkpt lat="47.06335" lon="5.99309">
        <ele>311.60000610352</ele>
        <time>2014-11-20T15:21:13.000Z</time>
      </trkpt>
      <trkpt lat="47.06326" lon="5.99307">
        <ele>310.79998779297</ele>
        <time>2014-11-20T15:21:20.000Z</time>
      </trkpt>
      <trkpt lat="47.06322" lon="5.99307">
        <ele>311.20001220703</ele>
        <time>2014-11-20T15:21:24.000Z</time>
      </trkpt>
      <trkpt lat="47.06318" lon="5.99305">
        <ele>311.20001220703</ele>
        <time>2014-11-20T15:21:28.000Z</time>
      </trkpt>
      <trkpt lat="47.06316" lon="5.99305">
        <ele>311.39999389648</ele>
        <time>2014-11-20T15:21:30.000Z</time>
      </trkpt>
      <trkpt lat="47.06315" lon="5.99305">
        <ele>311.39999389648</ele>
        <time>2014-11-20T15:21:31.000Z</time>
      </trkpt>
      <trkpt lat="47.06311" lon="5.99303">
        <ele>311.60000610352</ele>
        <time>2014-11-20T15:21:36.000Z</time>
      </trkpt>
      <trkpt lat="47.06308" lon="5.99303">
        <ele>312</ele>
        <time>2014-11-20T15:21:40.000Z</time>
      </trkpt>
      <trkpt lat="47.06303" lon="5.99301">
        <ele>312.20001220703</ele>
        <time>2014-11-20T15:21:45.000Z</time>
      </trkpt>
      <trkpt lat="47.06298" lon="5.99298">
        <ele>311.79998779297</ele>
        <time>2014-11-20T15:21:52.000Z</time>
      </trkpt>
      <trkpt lat="47.06297" lon="5.99298">
        <ele>312</ele>
        <time>2014-11-20T15:21:53.000Z</time>
      </trkpt>
      <trkpt lat="47.06293" lon="5.993">
        <ele>313</ele>
        <time>2014-11-20T15:21:57.000Z</time>
      </trkpt>
      <trkpt lat="47.06286" lon="5.99296">
        <ele>312.79998779297</ele>
        <time>2014-11-20T15:22:04.000Z</time>
      </trkpt>
      <trkpt lat="47.06284" lon="5.99295">
        <ele>313</ele>
        <time>2014-11-20T15:22:05.000Z</time>
      </trkpt>
      <trkpt lat="47.06273" lon="5.99291">
        <ele>313.20001220703</ele>
        <time>2014-11-20T15:22:13.000Z</time>
      </trkpt>
      <trkpt lat="47.06264" lon="5.99285">
        <ele>313</ele>
        <time>2014-11-20T15:22:21.000Z</time>
      </trkpt>
      <trkpt lat="47.06257" lon="5.99282">
        <ele>313.20001220703</ele>
        <time>2014-11-20T15:22:27.000Z</time>
      </trkpt>
      <trkpt lat="47.06254" lon="5.9928">
        <ele>312.79998779297</ele>
        <time>2014-11-20T15:22:30.000Z</time>
      </trkpt>
      <trkpt lat="47.06245" lon="5.99276">
        <ele>312.79998779297</ele>
        <time>2014-11-20T15:22:38.000Z</time>
      </trkpt>
      <trkpt lat="47.06244" lon="5.99275">
        <ele>312.79998779297</ele>
        <time>2014-11-20T15:22:39.000Z</time>
      </trkpt>
      <trkpt lat="47.06242" lon="5.99274">
        <ele>312.79998779297</ele>
        <time>2014-11-20T15:22:41.000Z</time>
      </trkpt>
      <trkpt lat="47.06238" lon="5.99271">
        <ele>312.60000610352</ele>
        <time>2014-11-20T15:22:46.000Z</time>
      </trkpt>
      <trkpt lat="47.06237" lon="5.99271">
        <ele>312.60000610352</ele>
        <time>2014-11-20T15:22:47.000Z</time>
      </trkpt>
      <trkpt lat="47.06232" lon="5.99269">
        <ele>312.39999389648</ele>
        <time>2014-11-20T15:22:51.000Z</time>
      </trkpt>
      <trkpt lat="47.06224" lon="5.99262">
        <ele>311.79998779297</ele>
        <time>2014-11-20T15:23:00.000Z</time>
      </trkpt>
      <trkpt lat="47.06218" lon="5.9926">
        <ele>311.60000610352</ele>
        <time>2014-11-20T15:23:05.000Z</time>
      </trkpt>
      <trkpt lat="47.06211" lon="5.99257">
        <ele>311.79998779297</ele>
        <time>2014-11-20T15:23:12.000Z</time>
      </trkpt>
      <trkpt lat="47.062" lon="5.99255">
        <ele>312.39999389648</ele>
        <time>2014-11-20T15:23:20.000Z</time>
      </trkpt>
      <trkpt lat="47.06191" lon="5.99254">
        <ele>313</ele>
        <time>2014-11-20T15:23:27.000Z</time>
      </trkpt>
      <trkpt lat="47.06179" lon="5.99253">
        <ele>314.39999389648</ele>
        <time>2014-11-20T15:23:37.000Z</time>
      </trkpt>
      <trkpt lat="47.06169" lon="5.99251">
        <ele>315.39999389648</ele>
        <time>2014-11-20T15:23:45.000Z</time>
      </trkpt>
      <trkpt lat="47.06169" lon="5.99251">
        <ele>315.39999389648</ele>
        <time>2014-11-20T15:23:46.000Z</time>
      </trkpt>
      <trkpt lat="47.06163" lon="5.99248">
        <ele>315.39999389648</ele>
        <time>2014-11-20T15:23:53.000Z</time>
      </trkpt>
      <trkpt lat="47.06158" lon="5.99246">
        <ele>315.60000610352</ele>
        <time>2014-11-20T15:23:57.000Z</time>
      </trkpt>
      <trkpt lat="47.06149" lon="5.99242">
        <ele>317.60000610352</ele>
        <time>2014-11-20T15:24:05.000Z</time>
      </trkpt>
      <trkpt lat="47.06144" lon="5.99237">
        <ele>317.60000610352</ele>
        <time>2014-11-20T15:24:11.000Z</time>
      </trkpt>
      <trkpt lat="47.06138" lon="5.99233">
        <ele>318.39999389648</ele>
        <time>2014-11-20T15:24:17.000Z</time>
      </trkpt>
      <trkpt lat="47.06137" lon="5.99232">
        <ele>318.60000610352</ele>
        <time>2014-11-20T15:24:19.000Z</time>
      </trkpt>
      <trkpt lat="47.06131" lon="5.99231">
        <ele>319.79998779297</ele>
        <time>2014-11-20T15:24:24.000Z</time>
      </trkpt>
      <trkpt lat="47.06125" lon="5.99229">
        <ele>321.60000610352</ele>
        <time>2014-11-20T15:24:33.000Z</time>
      </trkpt>
      <trkpt lat="47.06119" lon="5.99227">
        <ele>322.60000610352</ele>
        <time>2014-11-20T15:24:40.000Z</time>
      </trkpt>
      <trkpt lat="47.06114" lon="5.99226">
        <ele>324</ele>
        <time>2014-11-20T15:24:47.000Z</time>
      </trkpt>
      <trkpt lat="47.0611" lon="5.99224">
        <ele>324.79998779297</ele>
        <time>2014-11-20T15:24:53.000Z</time>
      </trkpt>
      <trkpt lat="47.06107" lon="5.99222">
        <ele>325.60000610352</ele>
        <time>2014-11-20T15:24:58.000Z</time>
      </trkpt>
      <trkpt lat="47.06101" lon="5.99219">
        <ele>327.20001220703</ele>
        <time>2014-11-20T15:25:06.000Z</time>
      </trkpt>
      <trkpt lat="47.06096" lon="5.99216">
        <ele>328.20001220703</ele>
        <time>2014-11-20T15:25:12.000Z</time>
      </trkpt>
      <trkpt lat="47.06095" lon="5.99216">
        <ele>328.39999389648</ele>
        <time>2014-11-20T15:25:13.000Z</time>
      </trkpt>
      <trkpt lat="47.06092" lon="5.99213">
        <ele>329</ele>
        <time>2014-11-20T15:25:19.000Z</time>
      </trkpt>
      <trkpt lat="47.06087" lon="5.99209">
        <ele>330</ele>
        <time>2014-11-20T15:25:27.000Z</time>
      </trkpt>
      <trkpt lat="47.06081" lon="5.99205">
        <ele>331.20001220703</ele>
        <time>2014-11-20T15:25:35.000Z</time>
      </trkpt>
      <trkpt lat="47.06079" lon="5.99203">
        <ele>331.79998779297</ele>
        <time>2014-11-20T15:25:38.000Z</time>
      </trkpt>
      <trkpt lat="47.06075" lon="5.99201">
        <ele>332.60000610352</ele>
        <time>2014-11-20T15:25:42.000Z</time>
      </trkpt>
      <trkpt lat="47.0607" lon="5.99199">
        <ele>334.20001220703</ele>
        <time>2014-11-20T15:25:50.000Z</time>
      </trkpt>
      <trkpt lat="47.06066" lon="5.99196">
        <ele>335.20001220703</ele>
        <time>2014-11-20T15:25:57.000Z</time>
      </trkpt>
      <trkpt lat="47.06063" lon="5.99195">
        <ele>336.39999389648</ele>
        <time>2014-11-20T15:26:02.000Z</time>
      </trkpt>
      <trkpt lat="47.06059" lon="5.99193">
        <ele>337.60000610352</ele>
        <time>2014-11-20T15:26:07.000Z</time>
      </trkpt>
      <trkpt lat="47.06052" lon="5.99189">
        <ele>339.60000610352</ele>
        <time>2014-11-20T15:26:15.000Z</time>
      </trkpt>
      <trkpt lat="47.06051" lon="5.99189">
        <ele>339.79998779297</ele>
        <time>2014-11-20T15:26:16.000Z</time>
      </trkpt>
      <trkpt lat="47.06048" lon="5.99187">
        <ele>340.79998779297</ele>
        <time>2014-11-20T15:26:20.000Z</time>
      </trkpt>
      <trkpt lat="47.06043" lon="5.99183">
        <ele>342.20001220703</ele>
        <time>2014-11-20T15:26:29.000Z</time>
      </trkpt>
      <trkpt lat="47.06038" lon="5.99179">
        <ele>343.39999389648</ele>
        <time>2014-11-20T15:26:36.000Z</time>
      </trkpt>
      <trkpt lat="47.06035" lon="5.99175">
        <ele>344</ele>
        <time>2014-11-20T15:26:43.000Z</time>
      </trkpt>
      <trkpt lat="47.06031" lon="5.9917">
        <ele>344.79998779297</ele>
        <time>2014-11-20T15:26:49.000Z</time>
      </trkpt>
      <trkpt lat="47.06028" lon="5.99165">
        <ele>345</ele>
        <time>2014-11-20T15:26:54.000Z</time>
      </trkpt>
      <trkpt lat="47.06028" lon="5.99165">
        <ele>345</ele>
        <time>2014-11-20T15:26:55.000Z</time>
      </trkpt>
      <trkpt lat="47.06025" lon="5.99161">
        <ele>345.60000610352</ele>
        <time>2014-11-20T15:27:00.000Z</time>
      </trkpt>
      <trkpt lat="47.0602" lon="5.99155">
        <ele>346.39999389648</ele>
        <time>2014-11-20T15:27:07.000Z</time>
      </trkpt>
      <trkpt lat="47.0602" lon="5.99154">
        <ele>346.60000610352</ele>
        <time>2014-11-20T15:27:08.000Z</time>
      </trkpt>
      <trkpt lat="47.06019" lon="5.99154">
        <ele>346.79998779297</ele>
        <time>2014-11-20T15:27:09.000Z</time>
      </trkpt>
      <trkpt lat="47.06017" lon="5.99149">
        <ele>347</ele>
        <time>2014-11-20T15:27:14.000Z</time>
      </trkpt>
      <trkpt lat="47.06015" lon="5.99143">
        <ele>346.79998779297</ele>
        <time>2014-11-20T15:27:20.000Z</time>
      </trkpt>
      <trkpt lat="47.06012" lon="5.99138">
        <ele>347</ele>
        <time>2014-11-20T15:27:26.000Z</time>
      </trkpt>
      <trkpt lat="47.0601" lon="5.99134">
        <ele>347</ele>
        <time>2014-11-20T15:27:29.000Z</time>
      </trkpt>
      <trkpt lat="47.06008" lon="5.99126">
        <ele>346.39999389648</ele>
        <time>2014-11-20T15:27:35.000Z</time>
      </trkpt>
      <trkpt lat="47.06007" lon="5.99122">
        <ele>346.39999389648</ele>
        <time>2014-11-20T15:27:39.000Z</time>
      </trkpt>
      <trkpt lat="47.06005" lon="5.99118">
        <ele>346.20001220703</ele>
        <time>2014-11-20T15:27:43.000Z</time>
      </trkpt>
      <trkpt lat="47.06001" lon="5.99108">
        <ele>346</ele>
        <time>2014-11-20T15:27:50.000Z</time>
      </trkpt>
      <trkpt lat="47.06001" lon="5.99106">
        <ele>346</ele>
        <time>2014-11-20T15:27:51.000Z</time>
      </trkpt>
      <trkpt lat="47.05997" lon="5.99096">
        <ele>345.79998779297</ele>
        <time>2014-11-20T15:27:59.000Z</time>
      </trkpt>
      <trkpt lat="47.05997" lon="5.99094">
        <ele>345.60000610352</ele>
        <time>2014-11-20T15:28:00.000Z</time>
      </trkpt>
      <trkpt lat="47.05994" lon="5.99089">
        <ele>345.60000610352</ele>
        <time>2014-11-20T15:28:05.000Z</time>
      </trkpt>
      <trkpt lat="47.05993" lon="5.99086">
        <ele>345.79998779297</ele>
        <time>2014-11-20T15:28:08.000Z</time>
      </trkpt>
      <trkpt lat="47.05991" lon="5.99084">
        <ele>345.79998779297</ele>
        <time>2014-11-20T15:28:10.000Z</time>
      </trkpt>
      <trkpt lat="47.05989" lon="5.99079">
        <ele>346</ele>
        <time>2014-11-20T15:28:14.000Z</time>
      </trkpt>
      <trkpt lat="47.05986" lon="5.99074">
        <ele>346</ele>
        <time>2014-11-20T15:28:18.000Z</time>
      </trkpt>
      <trkpt lat="47.05984" lon="5.99069">
        <ele>346</ele>
        <time>2014-11-20T15:28:22.000Z</time>
      </trkpt>
      <trkpt lat="47.05979" lon="5.99063">
        <ele>346.20001220703</ele>
        <time>2014-11-20T15:28:28.000Z</time>
      </trkpt>
      <trkpt lat="47.05977" lon="5.99059">
        <ele>346.60000610352</ele>
        <time>2014-11-20T15:28:33.000Z</time>
      </trkpt>
      <trkpt lat="47.05973" lon="5.9905">
        <ele>347.39999389648</ele>
        <time>2014-11-20T15:28:40.000Z</time>
      </trkpt>
      <trkpt lat="47.0597" lon="5.99041">
        <ele>348</ele>
        <time>2014-11-20T15:28:47.000Z</time>
      </trkpt>
      <trkpt lat="47.05968" lon="5.99038">
        <ele>348.60000610352</ele>
        <time>2014-11-20T15:28:51.000Z</time>
      </trkpt>
      <trkpt lat="47.05964" lon="5.99032">
        <ele>349.79998779297</ele>
        <time>2014-11-20T15:28:58.000Z</time>
      </trkpt>
      <trkpt lat="47.05963" lon="5.99031">
        <ele>349.79998779297</ele>
        <time>2014-11-20T15:28:59.000Z</time>
      </trkpt>
      <trkpt lat="47.0596" lon="5.99025">
        <ele>350.60000610352</ele>
        <time>2014-11-20T15:29:05.000Z</time>
      </trkpt>
      <trkpt lat="47.05959" lon="5.99022">
        <ele>350.79998779297</ele>
        <time>2014-11-20T15:29:08.000Z</time>
      </trkpt>
      <trkpt lat="47.05956" lon="5.99017">
        <ele>351.20001220703</ele>
        <time>2014-11-20T15:29:13.000Z</time>
      </trkpt>
      <trkpt lat="47.05953" lon="5.99013">
        <ele>351.79998779297</ele>
        <time>2014-11-20T15:29:20.000Z</time>
      </trkpt>
      <trkpt lat="47.05952" lon="5.99007">
        <ele>351.60000610352</ele>
        <time>2014-11-20T15:29:26.000Z</time>
      </trkpt>
      <trkpt lat="47.0595" lon="5.99002">
        <ele>351.60000610352</ele>
        <time>2014-11-20T15:29:32.000Z</time>
      </trkpt>
      <trkpt lat="47.05947" lon="5.98996">
        <ele>352</ele>
        <time>2014-11-20T15:29:37.000Z</time>
      </trkpt>
      <trkpt lat="47.05946" lon="5.98994">
        <ele>352.20001220703</ele>
        <time>2014-11-20T15:29:39.000Z</time>
      </trkpt>
      <trkpt lat="47.05944" lon="5.9899">
        <ele>352.39999389648</ele>
        <time>2014-11-20T15:29:43.000Z</time>
      </trkpt>
      <trkpt lat="47.05942" lon="5.98987">
        <ele>352.60000610352</ele>
        <time>2014-11-20T15:29:46.000Z</time>
      </trkpt>
      <trkpt lat="47.05942" lon="5.98984">
        <ele>352.39999389648</ele>
        <time>2014-11-20T15:29:48.000Z</time>
      </trkpt>
      <trkpt lat="47.0594" lon="5.98982">
        <ele>353</ele>
        <time>2014-11-20T15:29:51.000Z</time>
      </trkpt>
      <trkpt lat="47.05937" lon="5.98977">
        <ele>353.20001220703</ele>
        <time>2014-11-20T15:29:57.000Z</time>
      </trkpt>
      <trkpt lat="47.05934" lon="5.98972">
        <ele>354</ele>
        <time>2014-11-20T15:30:03.000Z</time>
      </trkpt>
      <trkpt lat="47.0593" lon="5.98967">
        <ele>355.39999389648</ele>
        <time>2014-11-20T15:30:10.000Z</time>
      </trkpt>
      <trkpt lat="47.05929" lon="5.98967">
        <ele>355.79998779297</ele>
        <time>2014-11-20T15:30:11.000Z</time>
      </trkpt>
      <trkpt lat="47.05926" lon="5.98965">
        <ele>357.20001220703</ele>
        <time>2014-11-20T15:30:15.000Z</time>
      </trkpt>
      <trkpt lat="47.05923" lon="5.98963">
        <ele>358.39999389648</ele>
        <time>2014-11-20T15:30:19.000Z</time>
      </trkpt>
      <trkpt lat="47.05919" lon="5.98959">
        <ele>359.79998779297</ele>
        <time>2014-11-20T15:30:25.000Z</time>
      </trkpt>
      <trkpt lat="47.05915" lon="5.98957">
        <ele>361.39999389648</ele>
        <time>2014-11-20T15:30:29.000Z</time>
      </trkpt>
      <trkpt lat="47.05909" lon="5.9895">
        <ele>363</ele>
        <time>2014-11-20T15:30:38.000Z</time>
      </trkpt>
      <trkpt lat="47.05907" lon="5.98949">
        <ele>363.20001220703</ele>
        <time>2014-11-20T15:30:40.000Z</time>
      </trkpt>
      <trkpt lat="47.05901" lon="5.98944">
        <ele>363.79998779297</ele>
        <time>2014-11-20T15:30:47.000Z</time>
      </trkpt>
      <trkpt lat="47.05896" lon="5.98943">
        <ele>364.39999389648</ele>
        <time>2014-11-20T15:30:55.000Z</time>
      </trkpt>
      <trkpt lat="47.05893" lon="5.98945">
        <ele>365.39999389648</ele>
        <time>2014-11-20T15:31:03.000Z</time>
      </trkpt>
      <trkpt lat="47.05891" lon="5.98949">
        <ele>366.20001220703</ele>
        <time>2014-11-20T15:31:10.000Z</time>
      </trkpt>
      <trkpt lat="47.0589" lon="5.98954">
        <ele>367</ele>
        <time>2014-11-20T15:31:16.000Z</time>
      </trkpt>
      <trkpt lat="47.05888" lon="5.98959">
        <ele>367.79998779297</ele>
        <time>2014-11-20T15:31:21.000Z</time>
      </trkpt>
      <trkpt lat="47.05887" lon="5.98964">
        <ele>368.39999389648</ele>
        <time>2014-11-20T15:31:26.000Z</time>
      </trkpt>
      <trkpt lat="47.05884" lon="5.98968">
        <ele>369.20001220703</ele>
        <time>2014-11-20T15:31:30.000Z</time>
      </trkpt>
      <trkpt lat="47.05883" lon="5.98978">
        <ele>370.20001220703</ele>
        <time>2014-11-20T15:31:38.000Z</time>
      </trkpt>
      <trkpt lat="47.0588" lon="5.98986">
        <ele>371</ele>
        <time>2014-11-20T15:31:46.000Z</time>
      </trkpt>
      <trkpt lat="47.05879" lon="5.98995">
        <ele>371.39999389648</ele>
        <time>2014-11-20T15:31:54.000Z</time>
      </trkpt>
      <trkpt lat="47.05879" lon="5.98996">
        <ele>371.60000610352</ele>
        <time>2014-11-20T15:31:55.000Z</time>
      </trkpt>
      <trkpt lat="47.05879" lon="5.99005">
        <ele>371.79998779297</ele>
        <time>2014-11-20T15:32:02.000Z</time>
      </trkpt>
      <trkpt lat="47.05877" lon="5.99014">
        <ele>372.39999389648</ele>
        <time>2014-11-20T15:32:12.000Z</time>
      </trkpt>
      <trkpt lat="47.05876" lon="5.99019">
        <ele>372.79998779297</ele>
        <time>2014-11-20T15:32:16.000Z</time>
      </trkpt>
      <trkpt lat="47.05875" lon="5.99025">
        <ele>373.20001220703</ele>
        <time>2014-11-20T15:32:20.000Z</time>
      </trkpt>
      <trkpt lat="47.05873" lon="5.99038">
        <ele>374.79998779297</ele>
        <time>2014-11-20T15:32:29.000Z</time>
      </trkpt>
      <trkpt lat="47.0587" lon="5.9905">
        <ele>376.20001220703</ele>
        <time>2014-11-20T15:32:38.000Z</time>
      </trkpt>
      <trkpt lat="47.0587" lon="5.99051">
        <ele>376.39999389648</ele>
        <time>2014-11-20T15:32:39.000Z</time>
      </trkpt>
      <trkpt lat="47.05869" lon="5.99056">
        <ele>377</ele>
        <time>2014-11-20T15:32:45.000Z</time>
      </trkpt>
      <trkpt lat="47.05863" lon="5.99062">
        <ele>378.60000610352</ele>
        <time>2014-11-20T15:32:54.000Z</time>
      </trkpt>
      <trkpt lat="47.05856" lon="5.9907">
        <ele>380.60000610352</ele>
        <time>2014-11-20T15:33:02.000Z</time>
      </trkpt>
      <trkpt lat="47.05855" lon="5.9907">
        <ele>380.60000610352</ele>
        <time>2014-11-20T15:33:03.000Z</time>
      </trkpt>
      <trkpt lat="47.05854" lon="5.99072">
        <ele>381.20001220703</ele>
        <time>2014-11-20T15:33:06.000Z</time>
      </trkpt>
      <trkpt lat="47.05853" lon="5.99073">
        <ele>381.39999389648</ele>
        <time>2014-11-20T15:33:08.000Z</time>
      </trkpt>
      <trkpt lat="47.05852" lon="5.99074">
        <ele>381.60000610352</ele>
        <time>2014-11-20T15:33:10.000Z</time>
      </trkpt>
      <trkpt lat="47.05845" lon="5.99084">
        <ele>383.20001220703</ele>
        <time>2014-11-20T15:33:19.000Z</time>
      </trkpt>
      <trkpt lat="47.05843" lon="5.99086">
        <ele>383.39999389648</ele>
        <time>2014-11-20T15:33:22.000Z</time>
      </trkpt>
      <trkpt lat="47.05839" lon="5.99089">
        <ele>384</ele>
        <time>2014-11-20T15:33:26.000Z</time>
      </trkpt>
      <trkpt lat="47.0583" lon="5.99097">
        <ele>385</ele>
        <time>2014-11-20T15:33:35.000Z</time>
      </trkpt>
      <trkpt lat="47.05829" lon="5.99098">
        <ele>385.20001220703</ele>
        <time>2014-11-20T15:33:36.000Z</time>
      </trkpt>
      <trkpt lat="47.05823" lon="5.99104">
        <ele>385.60000610352</ele>
        <time>2014-11-20T15:33:43.000Z</time>
      </trkpt>
      <trkpt lat="47.05819" lon="5.9911">
        <ele>385.60000610352</ele>
        <time>2014-11-20T15:33:48.000Z</time>
      </trkpt>
      <trkpt lat="47.05818" lon="5.99112">
        <ele>385.60000610352</ele>
        <time>2014-11-20T15:33:50.000Z</time>
      </trkpt>
      <trkpt lat="47.05813" lon="5.99118">
        <ele>385.79998779297</ele>
        <time>2014-11-20T15:33:55.000Z</time>
      </trkpt>
      <trkpt lat="47.05812" lon="5.99119">
        <ele>385.79998779297</ele>
        <time>2014-11-20T15:33:56.000Z</time>
      </trkpt>
      <trkpt lat="47.05804" lon="5.99128">
        <ele>386.60000610352</ele>
        <time>2014-11-20T15:34:03.000Z</time>
      </trkpt>
      <trkpt lat="47.05802" lon="5.99131">
        <ele>387</ele>
        <time>2014-11-20T15:34:05.000Z</time>
      </trkpt>
      <trkpt lat="47.05796" lon="5.99139">
        <ele>388.20001220703</ele>
        <time>2014-11-20T15:34:11.000Z</time>
      </trkpt>
      <trkpt lat="47.05795" lon="5.9914">
        <ele>388.20001220703</ele>
        <time>2014-11-20T15:34:12.000Z</time>
      </trkpt>
      <trkpt lat="47.0579" lon="5.99146">
        <ele>389.20001220703</ele>
        <time>2014-11-20T15:34:17.000Z</time>
      </trkpt>
      <trkpt lat="47.05787" lon="5.9915">
        <ele>389.60000610352</ele>
        <time>2014-11-20T15:34:21.000Z</time>
      </trkpt>
      <trkpt lat="47.05784" lon="5.99153">
        <ele>390</ele>
        <time>2014-11-20T15:34:24.000Z</time>
      </trkpt>
      <trkpt lat="47.05782" lon="5.99157">
        <ele>390.60000610352</ele>
        <time>2014-11-20T15:34:27.000Z</time>
      </trkpt>
      <trkpt lat="47.05777" lon="5.9916">
        <ele>391.20001220703</ele>
        <time>2014-11-20T15:34:31.000Z</time>
      </trkpt>
      <trkpt lat="47.05771" lon="5.99168">
        <ele>392.20001220703</ele>
        <time>2014-11-20T15:34:38.000Z</time>
      </trkpt>
      <trkpt lat="47.05767" lon="5.99172">
        <ele>392.60000610352</ele>
        <time>2014-11-20T15:34:43.000Z</time>
      </trkpt>
      <trkpt lat="47.05763" lon="5.99176">
        <ele>393</ele>
        <time>2014-11-20T15:34:47.000Z</time>
      </trkpt>
      <trkpt lat="47.05756" lon="5.99184">
        <ele>393.60000610352</ele>
        <time>2014-11-20T15:34:54.000Z</time>
      </trkpt>
      <trkpt lat="47.05754" lon="5.99187">
        <ele>393.79998779297</ele>
        <time>2014-11-20T15:34:57.000Z</time>
      </trkpt>
      <trkpt lat="47.05747" lon="5.99194">
        <ele>394.39999389648</ele>
        <time>2014-11-20T15:35:04.000Z</time>
      </trkpt>
      <trkpt lat="47.0574" lon="5.99202">
        <ele>394.79998779297</ele>
        <time>2014-11-20T15:35:12.000Z</time>
      </trkpt>
      <trkpt lat="47.05736" lon="5.99207">
        <ele>395</ele>
        <time>2014-11-20T15:35:18.000Z</time>
      </trkpt>
      <trkpt lat="47.05726" lon="5.99221">
        <ele>395.79998779297</ele>
        <time>2014-11-20T15:35:30.000Z</time>
      </trkpt>
      <trkpt lat="47.05722" lon="5.99227">
        <ele>396</ele>
        <time>2014-11-20T15:35:40.000Z</time>
      </trkpt>
      <trkpt lat="47.05721" lon="5.99229">
        <ele>396.20001220703</ele>
        <time>2014-11-20T15:35:42.000Z</time>
      </trkpt>
      <trkpt lat="47.05715" lon="5.99235">
        <ele>396.60000610352</ele>
        <time>2014-11-20T15:35:48.000Z</time>
      </trkpt>
      <trkpt lat="47.05709" lon="5.99246">
        <ele>397.20001220703</ele>
        <time>2014-11-20T15:35:56.000Z</time>
      </trkpt>
      <trkpt lat="47.05707" lon="5.99251">
        <ele>397.39999389648</ele>
        <time>2014-11-20T15:35:59.000Z</time>
      </trkpt>
      <trkpt lat="47.05709" lon="5.99266">
        <ele>397.60000610352</ele>
        <time>2014-11-20T15:36:08.000Z</time>
      </trkpt>
      <trkpt lat="47.05712" lon="5.99271">
        <ele>397.60000610352</ele>
        <time>2014-11-20T15:36:15.000Z</time>
      </trkpt>
      <trkpt lat="47.05708" lon="5.99268">
        <ele>397.79998779297</ele>
        <time>2014-11-20T15:36:40.000Z</time>
      </trkpt>
      <trkpt lat="47.05706" lon="5.99266">
        <ele>397.79998779297</ele>
        <time>2014-11-20T15:36:42.000Z</time>
      </trkpt>
      <trkpt lat="47.05698" lon="5.99264">
        <ele>398</ele>
        <time>2014-11-20T15:36:49.000Z</time>
      </trkpt>
      <trkpt lat="47.05697" lon="5.99264">
        <ele>398.20001220703</ele>
        <time>2014-11-20T15:36:50.000Z</time>
      </trkpt>
      <trkpt lat="47.0569" lon="5.99271">
        <ele>399</ele>
        <time>2014-11-20T15:36:57.000Z</time>
      </trkpt>
      <trkpt lat="47.05683" lon="5.9928">
        <ele>400</ele>
        <time>2014-11-20T15:37:06.000Z</time>
      </trkpt>
      <trkpt lat="47.05677" lon="5.99285">
        <ele>400.60000610352</ele>
        <time>2014-11-20T15:37:12.000Z</time>
      </trkpt>
      <trkpt lat="47.05673" lon="5.99287">
        <ele>401</ele>
        <time>2014-11-20T15:37:15.000Z</time>
      </trkpt>
      <trkpt lat="47.0567" lon="5.99291">
        <ele>401.39999389648</ele>
        <time>2014-11-20T15:37:19.000Z</time>
      </trkpt>
      <trkpt lat="47.05664" lon="5.99298">
        <ele>402.20001220703</ele>
        <time>2014-11-20T15:37:27.000Z</time>
      </trkpt>
      <trkpt lat="47.05658" lon="5.99302">
        <ele>402.79998779297</ele>
        <time>2014-11-20T15:37:32.000Z</time>
      </trkpt>
      <trkpt lat="47.0565" lon="5.99306">
        <ele>403.20001220703</ele>
        <time>2014-11-20T15:37:38.000Z</time>
      </trkpt>
      <trkpt lat="47.05642" lon="5.99307">
        <ele>403.39999389648</ele>
        <time>2014-11-20T15:37:44.000Z</time>
      </trkpt>
      <trkpt lat="47.05635" lon="5.99309">
        <ele>403.60000610352</ele>
        <time>2014-11-20T15:37:49.000Z</time>
      </trkpt>
      <trkpt lat="47.05629" lon="5.9931">
        <ele>403.79998779297</ele>
        <time>2014-11-20T15:37:56.000Z</time>
      </trkpt>
      <trkpt lat="47.05629" lon="5.9931">
        <ele>403.79998779297</ele>
        <time>2014-11-20T15:37:57.000Z</time>
      </trkpt>
      <trkpt lat="47.05625" lon="5.99311">
        <ele>404</ele>
        <time>2014-11-20T15:38:06.000Z</time>
      </trkpt>
      <trkpt lat="47.05621" lon="5.9931">
        <ele>404</ele>
        <time>2014-11-20T15:38:13.000Z</time>
      </trkpt>
      <trkpt lat="47.05615" lon="5.99312">
        <ele>404.20001220703</ele>
        <time>2014-11-20T15:38:20.000Z</time>
      </trkpt>
      <trkpt lat="47.0561" lon="5.99312">
        <ele>404.39999389648</ele>
        <time>2014-11-20T15:38:25.000Z</time>
      </trkpt>
      <trkpt lat="47.056" lon="5.99313">
        <ele>404.60000610352</ele>
        <time>2014-11-20T15:38:38.000Z</time>
      </trkpt>
      <trkpt lat="47.05599" lon="5.99315">
        <ele>404.60000610352</ele>
        <time>2014-11-20T15:38:46.000Z</time>
      </trkpt>
      <trkpt lat="47.05598" lon="5.99316">
        <ele>404.79998779297</ele>
        <time>2014-11-20T15:39:01.000Z</time>
      </trkpt>
      <trkpt lat="47.05598" lon="5.99316">
        <ele>404.79998779297</ele>
        <time>2014-11-20T15:39:03.000Z</time>
      </trkpt>
    </trkseg>
  </trk>
</gpx>